<?xml version="1.0" encoding="UTF-8"?>
<gpx version="1.1" creator="2bulu-scraper" xmlns="http://www.topografix.com/GPX/1/1">
  <metadata><name>2026-04-04 10:12:24</name><desc>source: 2bulu.com trackId=81581659; exported 2026-09-01T14:54:35.058Z</desc>
    <bounds minlat="28.820915" minlon="105.290124" maxlat="28.834588" maxlon="105.321576"/>
    <link href="https://www.2bulu.com/track/t-4upppIaujxfp%252FR2KBg5Tzw%253D%253D.htm"><text>2bulu 源页面</text></link>
  </metadata>
  <wpt lat="28.828472" lon="105.311497"><ele>635</ele><name>公共卫生间</name></wpt>
  <wpt lat="28.829029" lon="105.311908"><ele>633</ele><name>可以吃凉面、酸辣粉、土豆花，冰淇淋的地点</name></wpt>
  <wpt lat="28.829074" lon="105.312648"><ele>632</ele><name>直行</name></wpt>
  <wpt lat="28.829489" lon="105.31334"><ele>619</ele><name>右转</name></wpt>
  <wpt lat="28.829176" lon="105.318165"><ele>602</ele><name>方山最佳打卡点</name></wpt>
  <wpt lat="28.829475" lon="105.321418"><ele>553</ele><name>第二个亭子为薄刀林折返点</name></wpt>
  <wpt lat="28.828838" lon="105.316902"><ele>601</ele><name>右转往报晓亭</name></wpt>
  <wpt lat="28.830049" lon="105.31666"><ele>571</ele><name>注意悬崖</name></wpt>
  <wpt lat="28.830905" lon="105.316269"><ele>570</ele><name>左转往上</name></wpt>
  <wpt lat="28.833033" lon="105.31565"><ele>579</ele><name>悬崖平台打卡点，景美风大</name></wpt>
  <wpt lat="28.834368" lon="105.314902"><ele>597</ele><name>报晓亭，可以登顶！</name></wpt>
  <wpt lat="28.834542" lon="105.314985"><ele>598</ele><name>报晓亭等高视角</name></wpt>
  <wpt lat="28.830454" lon="105.313572"><ele>624</ele><name>这里有吃的，有吊床可以休息</name></wpt>
  <wpt lat="28.829087" lon="105.312591"><ele>629</ele><name>千年铁树王</name></wpt>
  <wpt lat="28.826504" lon="105.305222"><ele>624</ele><name>折返到此时，直行</name></wpt>
  <wpt lat="28.821098" lon="105.303618"><ele>585</ele><name>右转</name></wpt>
  <wpt lat="28.820915" lon="105.303791"><ele>585</ele><name>打卡望远点</name></wpt>
  <wpt lat="28.821797" lon="105.302945"><ele>565</ele><name>右转</name></wpt>
  <wpt lat="28.822573" lon="105.302714"><ele>548</ele><name>马上开始出片</name></wpt>
  <wpt lat="28.823362" lon="105.301642"><ele>551</ele><name>与地平线共舞</name></wpt>
  <wpt lat="28.824679" lon="105.301423"><ele>567</ele><name>左转，小心恶犬</name></wpt>
  <wpt lat="28.824503" lon="105.300733"><ele>551</ele><name>直行</name></wpt>
  <wpt lat="28.824786" lon="105.300453"><ele>552</ele><name>到这棵树刚好11公里，继续前行</name></wpt>
  <wpt lat="28.824893" lon="105.300536"><ele>551</ele><name>左转</name></wpt>
  <wpt lat="28.825067" lon="105.300122"><ele>553</ele><name>出片点</name></wpt>
  <wpt lat="28.825362" lon="105.299567"><ele>538</ele><name>从这里下去，注意安全</name></wpt>
  <wpt lat="28.825428" lon="105.299496"><ele>535</ele><name>注意安全，坡陡</name></wpt>
  <wpt lat="28.825344" lon="105.299204"><ele>526</ele><name>出片点</name></wpt>
  <wpt lat="28.82526" lon="105.299161"><ele>524</ele><name>出片点</name></wpt>
  <wpt lat="28.825057" lon="105.299078"><ele>515</ele><name>挂树打卡点</name></wpt>
  <wpt lat="28.825065" lon="105.299013"><ele>512</ele><name>这里也可以挂树拍照</name></wpt>
  <wpt lat="28.825949" lon="105.298844"><ele>496</ele><name>古树</name></wpt>
  <wpt lat="28.82674" lon="105.298917"><ele>512</ele><name>出片点</name></wpt>
  <wpt lat="28.827054" lon="105.298808"><ele>510</ele><name>经过荒屋</name></wpt>
  <wpt lat="28.827382" lon="105.298762"><ele>502</ele><name>路过石头房</name></wpt>
  <wpt lat="28.827719" lon="105.298761"><ele>491</ele><name></name></wpt>
  <wpt lat="28.827985" lon="105.299159"><ele>496</ele><name>有棵大树</name></wpt>
  <wpt lat="28.829667" lon="105.297753"><ele>483</ele><name>经过超出片的桉树林</name></wpt>
  <wpt lat="28.830059" lon="105.296913"><ele>473</ele><name>持续下坡</name></wpt>
  <wpt lat="28.830504" lon="105.295198"><ele>434</ele><name>又是一座石头房，历史感厚重</name></wpt>
  <wpt lat="28.831534" lon="105.294921"><ele>427</ele><name>这里有石桌可以休息</name></wpt>
  <wpt lat="28.831754" lon="105.295013"><ele>426</ele><name>交汇点</name></wpt>
  <wpt lat="28.832899" lon="105.290155"><ele>318</ele><name>终点即起点</name></wpt>
  <trk><name>2026-04-04 10:12:24</name>
      <trkseg>
        <trkpt lat="28.832422" lon="105.292273"><ele>352.5539</ele><time>2026-04-03T18:12:27.000Z</time></trkpt>
        <trkpt lat="28.832372" lon="105.29227"><ele>352.77774</ele><time>2026-04-03T18:12:31.000Z</time></trkpt>
        <trkpt lat="28.832326" lon="105.292297"><ele>353.23022</ele><time>2026-04-03T18:12:36.000Z</time></trkpt>
        <trkpt lat="28.832306" lon="105.292344"><ele>354.58694</ele><time>2026-04-03T18:12:42.000Z</time></trkpt>
        <trkpt lat="28.832332" lon="105.29239"><ele>355.71576</ele><time>2026-04-03T18:12:46.000Z</time></trkpt>
        <trkpt lat="28.832369" lon="105.292435"><ele>357.69238</ele><time>2026-04-03T18:12:55.000Z</time></trkpt>
        <trkpt lat="28.832404" lon="105.292475"><ele>358.06198</ele><time>2026-04-03T18:13:01.000Z</time></trkpt>
        <trkpt lat="28.832424" lon="105.292528"><ele>359.5423</ele><time>2026-04-03T18:13:07.000Z</time></trkpt>
        <trkpt lat="28.83247" lon="105.292556"><ele>360.5605</ele><time>2026-04-03T18:13:14.000Z</time></trkpt>
        <trkpt lat="28.832496" lon="105.292603"><ele>361.622</ele><time>2026-04-03T18:13:23.000Z</time></trkpt>
        <trkpt lat="28.83253" lon="105.292653"><ele>362.24942</ele><time>2026-04-03T18:13:29.000Z</time></trkpt>
        <trkpt lat="28.832572" lon="105.292685"><ele>363.28687</ele><time>2026-04-03T18:13:34.000Z</time></trkpt>
        <trkpt lat="28.832619" lon="105.292712"><ele>363.86728</ele><time>2026-04-03T18:13:38.000Z</time></trkpt>
        <trkpt lat="28.832659" lon="105.292739"><ele>363.74353</ele><time>2026-04-03T18:13:43.000Z</time></trkpt>
        <trkpt lat="28.83269" lon="105.292777"><ele>363.89014</ele><time>2026-04-03T18:13:47.000Z</time></trkpt>
        <trkpt lat="28.832726" lon="105.292826"><ele>365.08624</ele><time>2026-04-03T18:13:52.000Z</time></trkpt>
        <trkpt lat="28.832757" lon="105.292863"><ele>365.29236</ele><time>2026-04-03T18:13:57.000Z</time></trkpt>
        <trkpt lat="28.832783" lon="105.292914"><ele>366.23425</ele><time>2026-04-03T18:14:02.000Z</time></trkpt>
        <trkpt lat="28.832795" lon="105.292973"><ele>367.765</ele><time>2026-04-03T18:14:09.000Z</time></trkpt>
        <trkpt lat="28.832798" lon="105.293026"><ele>369.15533</ele><time>2026-04-03T18:14:14.000Z</time></trkpt>
        <trkpt lat="28.832788" lon="105.293085"><ele>370.8784</ele><time>2026-04-03T18:14:19.000Z</time></trkpt>
        <trkpt lat="28.832741" lon="105.293106"><ele>371.40622</ele><time>2026-04-03T18:14:25.000Z</time></trkpt>
        <trkpt lat="28.832698" lon="105.293127"><ele>372.503</ele><time>2026-04-03T18:14:31.000Z</time></trkpt>
        <trkpt lat="28.832652" lon="105.293146"><ele>373.66046</ele><time>2026-04-03T18:14:37.000Z</time></trkpt>
        <trkpt lat="28.832607" lon="105.293183"><ele>374.91623</ele><time>2026-04-03T18:14:43.000Z</time></trkpt>
        <trkpt lat="28.832566" lon="105.293216"><ele>375.6614</ele><time>2026-04-03T18:14:49.000Z</time></trkpt>
        <trkpt lat="28.83252" lon="105.293251"><ele>375.66855</ele><time>2026-04-03T18:14:54.000Z</time></trkpt>
        <trkpt lat="28.83248" lon="105.293284"><ele>375.7865</ele><time>2026-04-03T18:14:58.000Z</time></trkpt>
        <trkpt lat="28.832462" lon="105.293337"><ele>377.20627</ele><time>2026-04-03T18:15:04.000Z</time></trkpt>
        <trkpt lat="28.832457" lon="105.293391"><ele>377.55292</ele><time>2026-04-03T18:15:09.000Z</time></trkpt>
        <trkpt lat="28.832449" lon="105.293447"><ele>377.8959</ele><time>2026-04-03T18:15:15.000Z</time></trkpt>
        <trkpt lat="28.832444" lon="105.293508"><ele>379.39252</ele><time>2026-04-03T18:15:20.000Z</time></trkpt>
        <trkpt lat="28.832437" lon="105.293561"><ele>380.00327</ele><time>2026-04-03T18:15:25.000Z</time></trkpt>
        <trkpt lat="28.832433" lon="105.293619"><ele>379.93008</ele><time>2026-04-03T18:15:31.000Z</time></trkpt>
        <trkpt lat="28.832434" lon="105.293686"><ele>380.37274</ele><time>2026-04-03T18:15:39.000Z</time></trkpt>
        <trkpt lat="28.832481" lon="105.293713"><ele>380.71347</ele><time>2026-04-03T18:15:42.000Z</time></trkpt>
        <trkpt lat="28.832504" lon="105.293763"><ele>382.15942</ele><time>2026-04-03T18:15:56.000Z</time></trkpt>
        <trkpt lat="28.832526" lon="105.293813"><ele>382.87326</ele><time>2026-04-03T18:16:02.000Z</time></trkpt>
        <trkpt lat="28.83255" lon="105.293865"><ele>384.00458</ele><time>2026-04-03T18:16:07.000Z</time></trkpt>
        <trkpt lat="28.832572" lon="105.293914"><ele>386.00278</ele><time>2026-04-03T18:16:12.000Z</time></trkpt>
        <trkpt lat="28.832593" lon="105.29396"><ele>385.4445</ele><time>2026-04-03T18:16:24.000Z</time></trkpt>
        <trkpt lat="28.832616" lon="105.29401"><ele>387.8109</ele><time>2026-04-03T18:16:39.000Z</time></trkpt>
        <trkpt lat="28.832617" lon="105.294067"><ele>388.84036</ele><time>2026-04-03T18:16:46.000Z</time></trkpt>
        <trkpt lat="28.832581" lon="105.294108"><ele>389.49713</ele><time>2026-04-03T18:16:51.000Z</time></trkpt>
        <trkpt lat="28.832574" lon="105.29416"><ele>389.9609</ele><time>2026-04-03T18:16:56.000Z</time></trkpt>
        <trkpt lat="28.832584" lon="105.294226"><ele>390.62668</ele><time>2026-04-03T18:17:02.000Z</time></trkpt>
        <trkpt lat="28.832574" lon="105.29428"><ele>391.6769</ele><time>2026-04-03T18:17:07.000Z</time></trkpt>
        <trkpt lat="28.832573" lon="105.294335"><ele>393.56216</ele><time>2026-04-03T18:17:15.000Z</time></trkpt>
        <trkpt lat="28.832568" lon="105.294392"><ele>396.21268</ele><time>2026-04-03T18:17:28.000Z</time></trkpt>
        <trkpt lat="28.832541" lon="105.29445"><ele>398.25644</ele><time>2026-04-03T18:17:36.000Z</time></trkpt>
        <trkpt lat="28.832542" lon="105.294503"><ele>399.177</ele><time>2026-04-03T18:17:40.000Z</time></trkpt>
        <trkpt lat="28.832514" lon="105.294552"><ele>401.1079</ele><time>2026-04-03T18:17:46.000Z</time></trkpt>
        <trkpt lat="28.832463" lon="105.294574"><ele>402.62653</ele><time>2026-04-03T18:17:52.000Z</time></trkpt>
        <trkpt lat="28.832433" lon="105.294614"><ele>402.9458</ele><time>2026-04-03T18:17:59.000Z</time></trkpt>
        <trkpt lat="28.832394" lon="105.294643"><ele>404.73438</ele><time>2026-04-03T18:18:17.000Z</time></trkpt>
        <trkpt lat="28.832362" lon="105.29468"><ele>405.86185</ele><time>2026-04-03T18:18:23.000Z</time></trkpt>
        <trkpt lat="28.832325" lon="105.294715"><ele>407.631</ele><time>2026-04-03T18:18:29.000Z</time></trkpt>
        <trkpt lat="28.832287" lon="105.294749"><ele>408.11435</ele><time>2026-04-03T18:18:35.000Z</time></trkpt>
        <trkpt lat="28.832271" lon="105.294799"><ele>410.3566</ele><time>2026-04-03T18:18:43.000Z</time></trkpt>
        <trkpt lat="28.832222" lon="105.294821"><ele>411.13657</ele><time>2026-04-03T18:18:49.000Z</time></trkpt>
        <trkpt lat="28.832185" lon="105.294856"><ele>412.48154</ele><time>2026-04-03T18:18:59.000Z</time></trkpt>
        <trkpt lat="28.832142" lon="105.294882"><ele>414.34525</ele><time>2026-04-03T18:19:02.000Z</time></trkpt>
        <trkpt lat="28.832113" lon="105.29493"><ele>414.80505</ele><time>2026-04-03T18:19:12.000Z</time></trkpt>
        <trkpt lat="28.832069" lon="105.294946"><ele>418.06464</ele><time>2026-04-03T18:19:19.000Z</time></trkpt>
        <trkpt lat="28.832019" lon="105.294958"><ele>419.8327</ele><time>2026-04-03T18:19:24.000Z</time></trkpt>
        <trkpt lat="28.831972" lon="105.294977"><ele>421.31342</ele><time>2026-04-03T18:19:31.000Z</time></trkpt>
        <trkpt lat="28.831928" lon="105.294999"><ele>423.01523</ele><time>2026-04-03T18:19:38.000Z</time></trkpt>
        <trkpt lat="28.831885" lon="105.295033"><ele>423.73016</ele><time>2026-04-03T18:19:47.000Z</time></trkpt>
        <trkpt lat="28.831838" lon="105.295044"><ele>424.8975</ele><time>2026-04-03T18:19:53.000Z</time></trkpt>
        <trkpt lat="28.831789" lon="105.295048"><ele>427.78387</ele><time>2026-04-03T18:20:00.000Z</time></trkpt>
        <trkpt lat="28.831739" lon="105.295056"><ele>428.1946</ele><time>2026-04-03T18:20:06.000Z</time></trkpt>
        <trkpt lat="28.831685" lon="105.295056"><ele>430.27567</ele><time>2026-04-03T18:20:11.000Z</time></trkpt>
        <trkpt lat="28.831645" lon="105.295031"><ele>428.89642</ele><time>2026-04-03T18:20:25.000Z</time></trkpt>
        <trkpt lat="28.831588" lon="105.295048"><ele>428.373</ele><time>2026-04-03T18:20:33.000Z</time></trkpt>
        <trkpt lat="28.831545" lon="105.295063"><ele>431.12985</ele><time>2026-04-03T18:20:52.000Z</time></trkpt>
        <trkpt lat="28.831497" lon="105.295058"><ele>430.42926</ele><time>2026-04-03T18:20:59.000Z</time></trkpt>
        <trkpt lat="28.831452" lon="105.295081"><ele>431.6613</ele><time>2026-04-03T18:21:06.000Z</time></trkpt>
        <trkpt lat="28.831399" lon="105.295094"><ele>433.7285</ele><time>2026-04-03T18:21:14.000Z</time></trkpt>
        <trkpt lat="28.831351" lon="105.295114"><ele>435.30353</ele><time>2026-04-03T18:21:21.000Z</time></trkpt>
        <trkpt lat="28.831304" lon="105.295121"><ele>434.77298</ele><time>2026-04-03T18:21:37.000Z</time></trkpt>
        <trkpt lat="28.831262" lon="105.295161"><ele>435.6204</ele><time>2026-04-03T18:21:44.000Z</time></trkpt>
        <trkpt lat="28.831255" lon="105.295215"><ele>435.9422</ele><time>2026-04-03T18:21:50.000Z</time></trkpt>
        <trkpt lat="28.831244" lon="105.295265"><ele>438.37057</ele><time>2026-04-03T18:21:58.000Z</time></trkpt>
        <trkpt lat="28.831235" lon="105.295317"><ele>439.61963</ele><time>2026-04-03T18:22:08.000Z</time></trkpt>
        <trkpt lat="28.83121" lon="105.295365"><ele>441.19348</ele><time>2026-04-03T18:22:19.000Z</time></trkpt>
        <trkpt lat="28.831157" lon="105.295388"><ele>446.77072</ele><time>2026-04-03T18:22:28.000Z</time></trkpt>
        <trkpt lat="28.831122" lon="105.295429"><ele>450.52573</ele><time>2026-04-03T18:22:41.000Z</time></trkpt>
        <trkpt lat="28.831072" lon="105.295429"><ele>448.1949</ele><time>2026-04-03T18:22:45.000Z</time></trkpt>
        <trkpt lat="28.831024" lon="105.295414"><ele>447.60205</ele><time>2026-04-03T18:22:53.000Z</time></trkpt>
        <trkpt lat="28.83098" lon="105.29544"><ele>448.40585</ele><time>2026-04-03T18:23:00.000Z</time></trkpt>
        <trkpt lat="28.830934" lon="105.29544"><ele>449.5984</ele><time>2026-04-03T18:23:06.000Z</time></trkpt>
        <trkpt lat="28.830886" lon="105.295442"><ele>450.41592</ele><time>2026-04-03T18:23:14.000Z</time></trkpt>
        <trkpt lat="28.830835" lon="105.295465"><ele>452.8829</ele><time>2026-04-03T18:23:23.000Z</time></trkpt>
        <trkpt lat="28.830791" lon="105.295482"><ele>452.69925</ele><time>2026-04-03T18:23:37.000Z</time></trkpt>
        <trkpt lat="28.830751" lon="105.295513"><ele>454.21838</ele><time>2026-04-03T18:23:44.000Z</time></trkpt>
        <trkpt lat="28.83077" lon="105.295561"><ele>450.2439</ele><time>2026-04-03T18:26:27.000Z</time></trkpt>
        <trkpt lat="28.830817" lon="105.295564"><ele>455.01437</ele><time>2026-04-03T18:26:37.000Z</time></trkpt>
        <trkpt lat="28.830864" lon="105.295581"><ele>457.96283</ele><time>2026-04-03T18:26:45.000Z</time></trkpt>
        <trkpt lat="28.830909" lon="105.295598"><ele>459.65698</ele><time>2026-04-03T18:26:54.000Z</time></trkpt>
        <trkpt lat="28.830951" lon="105.295619"><ele>460.4513</ele><time>2026-04-03T18:27:01.000Z</time></trkpt>
        <trkpt lat="28.830998" lon="105.295636"><ele>463.6315</ele><time>2026-04-03T18:27:10.000Z</time></trkpt>
        <trkpt lat="28.831028" lon="105.295677"><ele>466.09033</ele><time>2026-04-03T18:27:18.000Z</time></trkpt>
        <trkpt lat="28.831071" lon="105.295695"><ele>465.98944</ele><time>2026-04-03T18:27:23.000Z</time></trkpt>
        <trkpt lat="28.831092" lon="105.295753"><ele>468.5633</ele><time>2026-04-03T18:27:31.000Z</time></trkpt>
        <trkpt lat="28.831093" lon="105.295811"><ele>470.8581</ele><time>2026-04-03T18:27:38.000Z</time></trkpt>
        <trkpt lat="28.8311" lon="105.295862"><ele>472.87085</ele><time>2026-04-03T18:27:49.000Z</time></trkpt>
        <trkpt lat="28.831139" lon="105.295893"><ele>473.05365</ele><time>2026-04-03T18:28:02.000Z</time></trkpt>
        <trkpt lat="28.831167" lon="105.295935"><ele>473.9885</ele><time>2026-04-03T18:28:07.000Z</time></trkpt>
        <trkpt lat="28.83121" lon="105.295958"><ele>475.70807</ele><time>2026-04-03T18:28:13.000Z</time></trkpt>
        <trkpt lat="28.831241" lon="105.296001"><ele>476.85284</ele><time>2026-04-03T18:28:21.000Z</time></trkpt>
        <trkpt lat="28.831252" lon="105.296061"><ele>476.8147</ele><time>2026-04-03T18:28:28.000Z</time></trkpt>
        <trkpt lat="28.831288" lon="105.296109"><ele>477.80997</ele><time>2026-04-03T18:28:34.000Z</time></trkpt>
        <trkpt lat="28.831298" lon="105.296162"><ele>479.5026</ele><time>2026-04-03T18:28:39.000Z</time></trkpt>
        <trkpt lat="28.831316" lon="105.296217"><ele>480.47263</ele><time>2026-04-03T18:28:45.000Z</time></trkpt>
        <trkpt lat="28.831315" lon="105.296274"><ele>482.46796</ele><time>2026-04-03T18:29:01.000Z</time></trkpt>
        <trkpt lat="28.8313" lon="105.296335"><ele>485.21582</ele><time>2026-04-03T18:29:09.000Z</time></trkpt>
        <trkpt lat="28.831248" lon="105.296327"><ele>486.58505</ele><time>2026-04-03T18:29:19.000Z</time></trkpt>
        <trkpt lat="28.831208" lon="105.296299"><ele>485.13458</ele><time>2026-04-03T18:29:26.000Z</time></trkpt>
        <trkpt lat="28.831159" lon="105.296287"><ele>485.75406</ele><time>2026-04-03T18:29:31.000Z</time></trkpt>
        <trkpt lat="28.831127" lon="105.296325"><ele>486.0661</ele><time>2026-04-03T18:29:38.000Z</time></trkpt>
        <trkpt lat="28.831133" lon="105.296381"><ele>485.08206</ele><time>2026-04-03T18:29:46.000Z</time></trkpt>
        <trkpt lat="28.831101" lon="105.296425"><ele>489.07584</ele><time>2026-04-03T18:29:56.000Z</time></trkpt>
        <trkpt lat="28.831069" lon="105.296463"><ele>491.93738</ele><time>2026-04-03T18:30:04.000Z</time></trkpt>
        <trkpt lat="28.831034" lon="105.296497"><ele>494.10428</ele><time>2026-04-03T18:30:11.000Z</time></trkpt>
        <trkpt lat="28.831024" lon="105.296548"><ele>496.7365</ele><time>2026-04-03T18:30:18.000Z</time></trkpt>
        <trkpt lat="28.831051" lon="105.296504"><ele>493.0564</ele><time>2026-04-03T18:32:31.000Z</time></trkpt>
        <trkpt lat="28.831039" lon="105.296557"><ele>494.61343</ele><time>2026-04-03T18:32:37.000Z</time></trkpt>
        <trkpt lat="28.831007" lon="105.296606"><ele>496.98758</ele><time>2026-04-03T18:32:43.000Z</time></trkpt>
        <trkpt lat="28.831006" lon="105.296658"><ele>503.39426</ele><time>2026-04-03T18:33:00.000Z</time></trkpt>
        <trkpt lat="28.831054" lon="105.296638"><ele>504.5111</ele><time>2026-04-03T18:33:16.000Z</time></trkpt>
        <trkpt lat="28.831101" lon="105.296648"><ele>504.95874</ele><time>2026-04-03T18:33:26.000Z</time></trkpt>
        <trkpt lat="28.831132" lon="105.296692"><ele>504.37057</ele><time>2026-04-03T18:33:38.000Z</time></trkpt>
        <trkpt lat="28.831208" lon="105.296727"><ele>510.24216</ele><time>2026-04-03T18:33:53.000Z</time></trkpt>
        <trkpt lat="28.831163" lon="105.296773"><ele>510.162</ele><time>2026-04-03T18:33:56.000Z</time></trkpt>
        <trkpt lat="28.831094" lon="105.296795"><ele>510.5676</ele><time>2026-04-03T18:33:57.000Z</time></trkpt>
        <trkpt lat="28.831053" lon="105.296859"><ele>510.56842</ele><time>2026-04-03T18:33:59.000Z</time></trkpt>
        <trkpt lat="28.83123" lon="105.296751"><ele>510.48184</ele><time>2026-04-03T18:34:00.000Z</time></trkpt>
        <trkpt lat="28.831233" lon="105.296809"><ele>513.1782</ele><time>2026-04-03T18:34:08.000Z</time></trkpt>
        <trkpt lat="28.831208" lon="105.296888"><ele>512.8367</ele><time>2026-04-03T18:34:13.000Z</time></trkpt>
        <trkpt lat="28.831144" lon="105.296905"><ele>512.0896</ele><time>2026-04-03T18:34:14.000Z</time></trkpt>
        <trkpt lat="28.831238" lon="105.296886"><ele>519.0985</ele><time>2026-04-03T18:34:19.000Z</time></trkpt>
        <trkpt lat="28.831219" lon="105.296791"><ele>519.67584</ele><time>2026-04-03T18:34:20.000Z</time></trkpt>
        <trkpt lat="28.831214" lon="105.296845"><ele>518.7942</ele><time>2026-04-03T18:34:21.000Z</time></trkpt>
        <trkpt lat="28.831256" lon="105.296879"><ele>518.3951</ele><time>2026-04-03T18:34:23.000Z</time></trkpt>
        <trkpt lat="28.831292" lon="105.296918"><ele>520.00476</ele><time>2026-04-03T18:34:38.000Z</time></trkpt>
        <trkpt lat="28.831319" lon="105.296963"><ele>521.55493</ele><time>2026-04-03T18:34:46.000Z</time></trkpt>
        <trkpt lat="28.831362" lon="105.29699"><ele>523.29834</ele><time>2026-04-03T18:34:52.000Z</time></trkpt>
        <trkpt lat="28.831411" lon="105.29702"><ele>523.79144</ele><time>2026-04-03T18:34:59.000Z</time></trkpt>
        <trkpt lat="28.831444" lon="105.297059"><ele>526.5009</ele><time>2026-04-03T18:35:05.000Z</time></trkpt>
        <trkpt lat="28.831451" lon="105.297113"><ele>527.1556</ele><time>2026-04-03T18:35:11.000Z</time></trkpt>
        <trkpt lat="28.831447" lon="105.297167"><ele>531.3955</ele><time>2026-04-03T18:35:20.000Z</time></trkpt>
        <trkpt lat="28.831479" lon="105.297216"><ele>533.72687</ele><time>2026-04-03T18:35:37.000Z</time></trkpt>
        <trkpt lat="28.831494" lon="105.297277"><ele>534.1386</ele><time>2026-04-03T18:35:49.000Z</time></trkpt>
        <trkpt lat="28.831479" lon="105.297332"><ele>534.90625</ele><time>2026-04-03T18:42:09.000Z</time></trkpt>
        <trkpt lat="28.831451" lon="105.29738"><ele>539.7944</ele><time>2026-04-03T18:42:23.000Z</time></trkpt>
        <trkpt lat="28.831429" lon="105.297427"><ele>541.7811</ele><time>2026-04-03T18:42:32.000Z</time></trkpt>
        <trkpt lat="28.831417" lon="105.297478"><ele>547.1832</ele><time>2026-04-03T18:43:00.000Z</time></trkpt>
        <trkpt lat="28.831419" lon="105.297534"><ele>549.65967</ele><time>2026-04-03T18:43:11.000Z</time></trkpt>
        <trkpt lat="28.831381" lon="105.297567"><ele>550.97925</ele><time>2026-04-03T18:43:23.000Z</time></trkpt>
        <trkpt lat="28.831422" lon="105.297587"><ele>552.849</ele><time>2026-04-03T18:43:31.000Z</time></trkpt>
        <trkpt lat="28.831455" lon="105.297638"><ele>558.35254</ele><time>2026-04-03T18:43:50.000Z</time></trkpt>
        <trkpt lat="28.831486" lon="105.297681"><ele>559.6022</ele><time>2026-04-03T18:43:59.000Z</time></trkpt>
        <trkpt lat="28.831531" lon="105.297687"><ele>562.472</ele><time>2026-04-03T18:44:10.000Z</time></trkpt>
        <trkpt lat="28.831568" lon="105.297718"><ele>564.93176</ele><time>2026-04-03T18:44:24.000Z</time></trkpt>
        <trkpt lat="28.831527" lon="105.297746"><ele>566.62946</ele><time>2026-04-03T18:44:31.000Z</time></trkpt>
        <trkpt lat="28.831489" lon="105.297777"><ele>568.6134</ele><time>2026-04-03T18:44:39.000Z</time></trkpt>
        <trkpt lat="28.831453" lon="105.297815"><ele>567.5345</ele><time>2026-04-03T18:44:46.000Z</time></trkpt>
        <trkpt lat="28.831413" lon="105.297848"><ele>568.6649</ele><time>2026-04-03T18:44:56.000Z</time></trkpt>
        <trkpt lat="28.831365" lon="105.29787"><ele>571.5357</ele><time>2026-04-03T18:45:02.000Z</time></trkpt>
        <trkpt lat="28.831335" lon="105.29791"><ele>574.2749</ele><time>2026-04-03T18:45:09.000Z</time></trkpt>
        <trkpt lat="28.831302" lon="105.297952"><ele>576.992</ele><time>2026-04-03T18:45:17.000Z</time></trkpt>
        <trkpt lat="28.831302" lon="105.298007"><ele>578.75616</ele><time>2026-04-03T18:45:28.000Z</time></trkpt>
        <trkpt lat="28.831288" lon="105.298056"><ele>579.4077</ele><time>2026-04-03T18:45:38.000Z</time></trkpt>
        <trkpt lat="28.831285" lon="105.298114"><ele>580.4216</ele><time>2026-04-03T18:45:48.000Z</time></trkpt>
        <trkpt lat="28.831304" lon="105.298164"><ele>582.38696</ele><time>2026-04-03T18:46:04.000Z</time></trkpt>
        <trkpt lat="28.831297" lon="105.29822"><ele>584.5983</ele><time>2026-04-03T18:46:10.000Z</time></trkpt>
        <trkpt lat="28.831268" lon="105.298263"><ele>584.91125</ele><time>2026-04-03T18:46:20.000Z</time></trkpt>
        <trkpt lat="28.831287" lon="105.298215"><ele>582.01605</ele><time>2026-04-03T18:47:01.000Z</time></trkpt>
        <trkpt lat="28.831286" lon="105.298153"><ele>579.66534</ele><time>2026-04-03T18:49:49.000Z</time></trkpt>
        <trkpt lat="28.831281" lon="105.298101"><ele>580.52344</ele><time>2026-04-03T18:49:59.000Z</time></trkpt>
        <trkpt lat="28.831296" lon="105.298046"><ele>577.3648</ele><time>2026-04-03T18:50:09.000Z</time></trkpt>
        <trkpt lat="28.831263" lon="105.298089"><ele>581.4669</ele><time>2026-04-03T18:50:35.000Z</time></trkpt>
        <trkpt lat="28.831273" lon="105.298139"><ele>582.0693</ele><time>2026-04-03T18:50:45.000Z</time></trkpt>
        <trkpt lat="28.831264" lon="105.29819"><ele>581.38995</ele><time>2026-04-03T18:50:58.000Z</time></trkpt>
        <trkpt lat="28.831245" lon="105.298243"><ele>583.549</ele><time>2026-04-03T18:51:06.000Z</time></trkpt>
        <trkpt lat="28.831233" lon="105.298305"><ele>584.1533</ele><time>2026-04-03T18:51:14.000Z</time></trkpt>
        <trkpt lat="28.831225" lon="105.298366"><ele>582.5018</ele><time>2026-04-03T18:51:20.000Z</time></trkpt>
        <trkpt lat="28.831199" lon="105.298409"><ele>586.6462</ele><time>2026-04-03T18:51:28.000Z</time></trkpt>
        <trkpt lat="28.831191" lon="105.298463"><ele>588.1276</ele><time>2026-04-03T18:51:36.000Z</time></trkpt>
        <trkpt lat="28.831222" lon="105.298503"><ele>587.38495</ele><time>2026-04-03T18:53:07.000Z</time></trkpt>
        <trkpt lat="28.831186" lon="105.298549"><ele>588.49744</ele><time>2026-04-03T18:53:17.000Z</time></trkpt>
        <trkpt lat="28.831168" lon="105.29861"><ele>591.9438</ele><time>2026-04-03T18:53:24.000Z</time></trkpt>
        <trkpt lat="28.831151" lon="105.298658"><ele>592.4486</ele><time>2026-04-03T18:53:29.000Z</time></trkpt>
        <trkpt lat="28.831125" lon="105.298708"><ele>594.8206</ele><time>2026-04-03T18:53:37.000Z</time></trkpt>
        <trkpt lat="28.831128" lon="105.298764"><ele>596.9113</ele><time>2026-04-03T18:53:46.000Z</time></trkpt>
        <trkpt lat="28.831113" lon="105.298819"><ele>597.95</ele><time>2026-04-03T18:54:13.000Z</time></trkpt>
        <trkpt lat="28.831073" lon="105.298846"><ele>600.6783</ele><time>2026-04-03T18:54:17.000Z</time></trkpt>
        <trkpt lat="28.831035" lon="105.298888"><ele>601.91205</ele><time>2026-04-03T18:54:23.000Z</time></trkpt>
        <trkpt lat="28.830998" lon="105.29892"><ele>603.3703</ele><time>2026-04-03T18:54:29.000Z</time></trkpt>
        <trkpt lat="28.83098" lon="105.298967"><ele>604.28784</ele><time>2026-04-03T18:54:37.000Z</time></trkpt>
        <trkpt lat="28.83093" lon="105.299009"><ele>605.34686</ele><time>2026-04-03T18:54:46.000Z</time></trkpt>
        <trkpt lat="28.830882" lon="105.299028"><ele>605.8062</ele><time>2026-04-03T18:54:51.000Z</time></trkpt>
        <trkpt lat="28.830831" lon="105.299043"><ele>608.02344</ele><time>2026-04-03T18:54:56.000Z</time></trkpt>
        <trkpt lat="28.830773" lon="105.299064"><ele>608.019</ele><time>2026-04-03T18:55:01.000Z</time></trkpt>
        <trkpt lat="28.830724" lon="105.299097"><ele>608.3205</ele><time>2026-04-03T18:55:06.000Z</time></trkpt>
        <trkpt lat="28.830678" lon="105.299127"><ele>608.0375</ele><time>2026-04-03T18:55:10.000Z</time></trkpt>
        <trkpt lat="28.830641" lon="105.299167"><ele>607.7831</ele><time>2026-04-03T18:55:15.000Z</time></trkpt>
        <trkpt lat="28.830602" lon="105.299201"><ele>607.7244</ele><time>2026-04-03T18:55:20.000Z</time></trkpt>
        <trkpt lat="28.830562" lon="105.299224"><ele>608.5505</ele><time>2026-04-03T18:55:23.000Z</time></trkpt>
        <trkpt lat="28.830523" lon="105.299257"><ele>607.5566</ele><time>2026-04-03T18:55:27.000Z</time></trkpt>
        <trkpt lat="28.830492" lon="105.299302"><ele>606.80975</ele><time>2026-04-03T18:55:32.000Z</time></trkpt>
        <trkpt lat="28.830458" lon="105.299339"><ele>607.9496</ele><time>2026-04-03T18:55:36.000Z</time></trkpt>
        <trkpt lat="28.830434" lon="105.299391"><ele>607.1284</ele><time>2026-04-03T18:55:42.000Z</time></trkpt>
        <trkpt lat="28.830411" lon="105.299446"><ele>608.13354</ele><time>2026-04-03T18:55:50.000Z</time></trkpt>
        <trkpt lat="28.830405" lon="105.299501"><ele>607.95404</ele><time>2026-04-03T18:55:56.000Z</time></trkpt>
        <trkpt lat="28.83042" lon="105.299554"><ele>608.4026</ele><time>2026-04-03T18:56:04.000Z</time></trkpt>
        <trkpt lat="28.830412" lon="105.299612"><ele>609.52893</ele><time>2026-04-03T18:56:10.000Z</time></trkpt>
        <trkpt lat="28.830391" lon="105.299667"><ele>611.0576</ele><time>2026-04-03T18:56:14.000Z</time></trkpt>
        <trkpt lat="28.830383" lon="105.299726"><ele>611.808</ele><time>2026-04-03T18:56:21.000Z</time></trkpt>
        <trkpt lat="28.830366" lon="105.299776"><ele>611.9412</ele><time>2026-04-03T18:56:26.000Z</time></trkpt>
        <trkpt lat="28.830349" lon="105.299837"><ele>612.54834</ele><time>2026-04-03T18:56:31.000Z</time></trkpt>
        <trkpt lat="28.830328" lon="105.299884"><ele>615.1655</ele><time>2026-04-03T18:56:38.000Z</time></trkpt>
        <trkpt lat="28.830302" lon="105.299941"><ele>614.1191</ele><time>2026-04-03T18:56:44.000Z</time></trkpt>
        <trkpt lat="28.830285" lon="105.299992"><ele>615.9549</ele><time>2026-04-03T18:56:49.000Z</time></trkpt>
        <trkpt lat="28.830287" lon="105.300057"><ele>611.97424</ele><time>2026-04-03T18:56:55.000Z</time></trkpt>
        <trkpt lat="28.830313" lon="105.300103"><ele>613.9155</ele><time>2026-04-03T18:56:58.000Z</time></trkpt>
        <trkpt lat="28.830338" lon="105.30017"><ele>614.71747</ele><time>2026-04-03T18:57:03.000Z</time></trkpt>
        <trkpt lat="28.830329" lon="105.30023"><ele>612.8013</ele><time>2026-04-03T18:57:13.000Z</time></trkpt>
        <trkpt lat="28.830337" lon="105.300282"><ele>612.7811</ele><time>2026-04-03T18:57:18.000Z</time></trkpt>
        <trkpt lat="28.830291" lon="105.300292"><ele>612.6982</ele><time>2026-04-03T18:57:22.000Z</time></trkpt>
        <trkpt lat="28.830264" lon="105.300349"><ele>612.6806</ele><time>2026-04-03T18:57:31.000Z</time></trkpt>
        <trkpt lat="28.830223" lon="105.300376"><ele>612.4941</ele><time>2026-04-03T18:57:35.000Z</time></trkpt>
        <trkpt lat="28.830185" lon="105.300444"><ele>613.3347</ele><time>2026-04-03T18:57:39.000Z</time></trkpt>
        <trkpt lat="28.830152" lon="105.300398"><ele>615.42865</ele><time>2026-04-03T18:57:43.000Z</time></trkpt>
        <trkpt lat="28.830093" lon="105.300409"><ele>616.2717</ele><time>2026-04-03T18:57:48.000Z</time></trkpt>
        <trkpt lat="28.830065" lon="105.30045"><ele>616.8318</ele><time>2026-04-03T18:57:54.000Z</time></trkpt>
        <trkpt lat="28.830017" lon="105.300497"><ele>616.5841</ele><time>2026-04-03T18:58:00.000Z</time></trkpt>
        <trkpt lat="28.829994" lon="105.300561"><ele>618.07526</ele><time>2026-04-03T18:58:06.000Z</time></trkpt>
        <trkpt lat="28.829942" lon="105.30059"><ele>618.0278</ele><time>2026-04-03T18:58:10.000Z</time></trkpt>
        <trkpt lat="28.829901" lon="105.300625"><ele>618.4849</ele><time>2026-04-03T18:58:16.000Z</time></trkpt>
        <trkpt lat="28.82988" lon="105.300684"><ele>619.66644</ele><time>2026-04-03T18:58:21.000Z</time></trkpt>
        <trkpt lat="28.829831" lon="105.300714"><ele>620.0542</ele><time>2026-04-03T18:58:29.000Z</time></trkpt>
        <trkpt lat="28.829789" lon="105.300756"><ele>620.3981</ele><time>2026-04-03T18:58:36.000Z</time></trkpt>
        <trkpt lat="28.829746" lon="105.300782"><ele>622.30756</ele><time>2026-04-03T18:58:43.000Z</time></trkpt>
        <trkpt lat="28.829701" lon="105.300808"><ele>623.686</ele><time>2026-04-03T18:58:50.000Z</time></trkpt>
        <trkpt lat="28.829663" lon="105.300847"><ele>623.7344</ele><time>2026-04-03T18:58:55.000Z</time></trkpt>
        <trkpt lat="28.829629" lon="105.300883"><ele>621.97003</ele><time>2026-04-03T18:58:59.000Z</time></trkpt>
        <trkpt lat="28.829584" lon="105.300913"><ele>621.1173</ele><time>2026-04-03T18:59:03.000Z</time></trkpt>
        <trkpt lat="28.829544" lon="105.300944"><ele>619.9712</ele><time>2026-04-03T18:59:08.000Z</time></trkpt>
        <trkpt lat="28.829501" lon="105.300966"><ele>618.99274</ele><time>2026-04-03T18:59:13.000Z</time></trkpt>
        <trkpt lat="28.829464" lon="105.300999"><ele>618.21387</ele><time>2026-04-03T18:59:18.000Z</time></trkpt>
        <trkpt lat="28.829425" lon="105.301033"><ele>618.7925</ele><time>2026-04-03T18:59:23.000Z</time></trkpt>
        <trkpt lat="28.829402" lon="105.301083"><ele>622.0097</ele><time>2026-04-03T18:59:29.000Z</time></trkpt>
        <trkpt lat="28.829362" lon="105.30111"><ele>619.9769</ele><time>2026-04-03T18:59:34.000Z</time></trkpt>
        <trkpt lat="28.829317" lon="105.301124"><ele>618.5368</ele><time>2026-04-03T18:59:38.000Z</time></trkpt>
        <trkpt lat="28.829275" lon="105.301145"><ele>616.99133</ele><time>2026-04-03T18:59:42.000Z</time></trkpt>
        <trkpt lat="28.829216" lon="105.301154"><ele>618.6385</ele><time>2026-04-03T18:59:48.000Z</time></trkpt>
        <trkpt lat="28.829173" lon="105.301187"><ele>618.94025</ele><time>2026-04-03T18:59:56.000Z</time></trkpt>
        <trkpt lat="28.829141" lon="105.301223"><ele>620.18427</ele><time>2026-04-03T19:00:01.000Z</time></trkpt>
        <trkpt lat="28.829107" lon="105.301262"><ele>620.61426</ele><time>2026-04-03T19:00:08.000Z</time></trkpt>
        <trkpt lat="28.829074" lon="105.301301"><ele>621.3197</ele><time>2026-04-03T19:00:13.000Z</time></trkpt>
        <trkpt lat="28.829042" lon="105.301338"><ele>621.7734</ele><time>2026-04-03T19:00:18.000Z</time></trkpt>
        <trkpt lat="28.829003" lon="105.30137"><ele>620.92096</ele><time>2026-04-03T19:00:23.000Z</time></trkpt>
        <trkpt lat="28.828964" lon="105.3014"><ele>621.2873</ele><time>2026-04-03T19:00:30.000Z</time></trkpt>
        <trkpt lat="28.828911" lon="105.301423"><ele>620.46655</ele><time>2026-04-03T19:00:37.000Z</time></trkpt>
        <trkpt lat="28.828864" lon="105.301431"><ele>620.2221</ele><time>2026-04-03T19:00:42.000Z</time></trkpt>
        <trkpt lat="28.828818" lon="105.30142"><ele>620.93713</ele><time>2026-04-03T19:00:46.000Z</time></trkpt>
        <trkpt lat="28.828773" lon="105.301408"><ele>621.46277</ele><time>2026-04-03T19:00:51.000Z</time></trkpt>
        <trkpt lat="28.828726" lon="105.301398"><ele>622.1178</ele><time>2026-04-03T19:00:56.000Z</time></trkpt>
        <trkpt lat="28.828672" lon="105.301381"><ele>622.84607</ele><time>2026-04-03T19:01:01.000Z</time></trkpt>
        <trkpt lat="28.828618" lon="105.301377"><ele>622.5273</ele><time>2026-04-03T19:01:06.000Z</time></trkpt>
        <trkpt lat="28.828569" lon="105.301372"><ele>621.7435</ele><time>2026-04-03T19:01:11.000Z</time></trkpt>
        <trkpt lat="28.828525" lon="105.301357"><ele>620.6812</ele><time>2026-04-03T19:01:17.000Z</time></trkpt>
        <trkpt lat="28.828479" lon="105.301354"><ele>619.7441</ele><time>2026-04-03T19:01:22.000Z</time></trkpt>
        <trkpt lat="28.828448" lon="105.301393"><ele>619.6323</ele><time>2026-04-03T19:01:26.000Z</time></trkpt>
        <trkpt lat="28.828421" lon="105.301446"><ele>620.6472</ele><time>2026-04-03T19:01:32.000Z</time></trkpt>
        <trkpt lat="28.8284" lon="105.301508"><ele>621.7388</ele><time>2026-04-03T19:01:39.000Z</time></trkpt>
        <trkpt lat="28.828404" lon="105.301568"><ele>621.89954</ele><time>2026-04-03T19:01:45.000Z</time></trkpt>
        <trkpt lat="28.828421" lon="105.301619"><ele>621.3206</ele><time>2026-04-03T19:01:52.000Z</time></trkpt>
        <trkpt lat="28.828422" lon="105.301672"><ele>622.5367</ele><time>2026-04-03T19:01:57.000Z</time></trkpt>
        <trkpt lat="28.828432" lon="105.301722"><ele>625.001</ele><time>2026-04-03T19:02:04.000Z</time></trkpt>
        <trkpt lat="28.828433" lon="105.301776"><ele>626.29193</ele><time>2026-04-03T19:02:10.000Z</time></trkpt>
        <trkpt lat="28.82841" lon="105.301826"><ele>625.7013</ele><time>2026-04-03T19:02:16.000Z</time></trkpt>
        <trkpt lat="28.828377" lon="105.301864"><ele>626.8423</ele><time>2026-04-03T19:02:22.000Z</time></trkpt>
        <trkpt lat="28.828334" lon="105.301902"><ele>627.5226</ele><time>2026-04-03T19:02:27.000Z</time></trkpt>
        <trkpt lat="28.828284" lon="105.301907"><ele>627.2338</ele><time>2026-04-03T19:02:34.000Z</time></trkpt>
        <trkpt lat="28.828236" lon="105.301927"><ele>628.4319</ele><time>2026-04-03T19:02:42.000Z</time></trkpt>
        <trkpt lat="28.828183" lon="105.301928"><ele>628.69324</ele><time>2026-04-03T19:02:50.000Z</time></trkpt>
        <trkpt lat="28.828142" lon="105.301955"><ele>628.6164</ele><time>2026-04-03T19:02:55.000Z</time></trkpt>
        <trkpt lat="28.828097" lon="105.301981"><ele>630.15826</ele><time>2026-04-03T19:03:02.000Z</time></trkpt>
        <trkpt lat="28.828064" lon="105.302017"><ele>629.82886</ele><time>2026-04-03T19:03:09.000Z</time></trkpt>
        <trkpt lat="28.828037" lon="105.302061"><ele>628.6141</ele><time>2026-04-03T19:03:12.000Z</time></trkpt>
        <trkpt lat="28.828011" lon="105.302112"><ele>629.85516</ele><time>2026-04-03T19:03:22.000Z</time></trkpt>
        <trkpt lat="28.828001" lon="105.302169"><ele>629.1285</ele><time>2026-04-03T19:03:27.000Z</time></trkpt>
        <trkpt lat="28.827989" lon="105.302225"><ele>629.5119</ele><time>2026-04-03T19:03:33.000Z</time></trkpt>
        <trkpt lat="28.828001" lon="105.302282"><ele>629.32117</ele><time>2026-04-03T19:03:39.000Z</time></trkpt>
        <trkpt lat="28.828016" lon="105.302336"><ele>630.0886</ele><time>2026-04-03T19:03:46.000Z</time></trkpt>
        <trkpt lat="28.828048" lon="105.302373"><ele>630.77405</ele><time>2026-04-03T19:03:53.000Z</time></trkpt>
        <trkpt lat="28.82808" lon="105.302425"><ele>630.8598</ele><time>2026-04-03T19:04:00.000Z</time></trkpt>
        <trkpt lat="28.828119" lon="105.30246"><ele>630.54565</ele><time>2026-04-03T19:04:04.000Z</time></trkpt>
        <trkpt lat="28.828152" lon="105.3025"><ele>629.9463</ele><time>2026-04-03T19:04:10.000Z</time></trkpt>
        <trkpt lat="28.828184" lon="105.302536"><ele>629.98505</ele><time>2026-04-03T19:04:15.000Z</time></trkpt>
        <trkpt lat="28.828223" lon="105.30257"><ele>629.1254</ele><time>2026-04-03T19:04:19.000Z</time></trkpt>
        <trkpt lat="28.828251" lon="105.30261"><ele>630.3934</ele><time>2026-04-03T19:04:25.000Z</time></trkpt>
        <trkpt lat="28.828286" lon="105.302645"><ele>629.7329</ele><time>2026-04-03T19:04:31.000Z</time></trkpt>
        <trkpt lat="28.828303" lon="105.3027"><ele>630.7051</ele><time>2026-04-03T19:04:37.000Z</time></trkpt>
        <trkpt lat="28.828297" lon="105.302765"><ele>629.7494</ele><time>2026-04-03T19:04:44.000Z</time></trkpt>
        <trkpt lat="28.828254" lon="105.302808"><ele>628.7316</ele><time>2026-04-03T19:04:49.000Z</time></trkpt>
        <trkpt lat="28.828209" lon="105.302824"><ele>628.7217</ele><time>2026-04-03T19:04:54.000Z</time></trkpt>
        <trkpt lat="28.828165" lon="105.302845"><ele>628.85205</ele><time>2026-04-03T19:04:59.000Z</time></trkpt>
        <trkpt lat="28.828123" lon="105.302867"><ele>628.59174</ele><time>2026-04-03T19:05:04.000Z</time></trkpt>
        <trkpt lat="28.828067" lon="105.30289"><ele>629.902</ele><time>2026-04-03T19:05:09.000Z</time></trkpt>
        <trkpt lat="28.828029" lon="105.30292"><ele>631.1683</ele><time>2026-04-03T19:05:15.000Z</time></trkpt>
        <trkpt lat="28.827983" lon="105.302944"><ele>631.48956</ele><time>2026-04-03T19:05:21.000Z</time></trkpt>
        <trkpt lat="28.827938" lon="105.302959"><ele>632.01074</ele><time>2026-04-03T19:05:25.000Z</time></trkpt>
        <trkpt lat="28.82789" lon="105.30296"><ele>632.35394</ele><time>2026-04-03T19:05:31.000Z</time></trkpt>
        <trkpt lat="28.827844" lon="105.302961"><ele>633.6872</ele><time>2026-04-03T19:05:35.000Z</time></trkpt>
        <trkpt lat="28.827788" lon="105.302955"><ele>633.4553</ele><time>2026-04-03T19:05:40.000Z</time></trkpt>
        <trkpt lat="28.827739" lon="105.302946"><ele>633.7078</ele><time>2026-04-03T19:05:45.000Z</time></trkpt>
        <trkpt lat="28.827694" lon="105.302938"><ele>633.9275</ele><time>2026-04-03T19:05:50.000Z</time></trkpt>
        <trkpt lat="28.827649" lon="105.302921"><ele>632.1275</ele><time>2026-04-03T19:05:56.000Z</time></trkpt>
        <trkpt lat="28.827603" lon="105.302912"><ele>631.5483</ele><time>2026-04-03T19:06:01.000Z</time></trkpt>
        <trkpt lat="28.827551" lon="105.302899"><ele>630.0018</ele><time>2026-04-03T19:06:06.000Z</time></trkpt>
        <trkpt lat="28.827501" lon="105.302893"><ele>629.3488</ele><time>2026-04-03T19:06:12.000Z</time></trkpt>
        <trkpt lat="28.82754" lon="105.302944"><ele>628.3724</ele><time>2026-04-03T19:06:30.000Z</time></trkpt>
        <trkpt lat="28.827546" lon="105.303002"><ele>628.4675</ele><time>2026-04-03T19:06:34.000Z</time></trkpt>
        <trkpt lat="28.827553" lon="105.303053"><ele>628.2148</ele><time>2026-04-03T19:06:40.000Z</time></trkpt>
        <trkpt lat="28.827555" lon="105.303109"><ele>627.8447</ele><time>2026-04-03T19:06:46.000Z</time></trkpt>
        <trkpt lat="28.827551" lon="105.30316"><ele>626.87537</ele><time>2026-04-03T19:06:51.000Z</time></trkpt>
        <trkpt lat="28.82754" lon="105.303211"><ele>626.33484</ele><time>2026-04-03T19:06:56.000Z</time></trkpt>
        <trkpt lat="28.827537" lon="105.303269"><ele>625.11865</ele><time>2026-04-03T19:07:01.000Z</time></trkpt>
        <trkpt lat="28.827538" lon="105.30332"><ele>623.8261</ele><time>2026-04-03T19:07:06.000Z</time></trkpt>
        <trkpt lat="28.827543" lon="105.303377"><ele>621.7718</ele><time>2026-04-03T19:07:11.000Z</time></trkpt>
        <trkpt lat="28.82757" lon="105.303434"><ele>619.7833</ele><time>2026-04-03T19:07:16.000Z</time></trkpt>
        <trkpt lat="28.827619" lon="105.303416"><ele>619.4796</ele><time>2026-04-03T19:07:23.000Z</time></trkpt>
        <trkpt lat="28.827671" lon="105.303418"><ele>618.9254</ele><time>2026-04-03T19:07:29.000Z</time></trkpt>
        <trkpt lat="28.827716" lon="105.303429"><ele>617.6482</ele><time>2026-04-03T19:07:34.000Z</time></trkpt>
        <trkpt lat="28.82776" lon="105.303442"><ele>617.6921</ele><time>2026-04-03T19:07:38.000Z</time></trkpt>
        <trkpt lat="28.827806" lon="105.303453"><ele>618.4381</ele><time>2026-04-03T19:07:43.000Z</time></trkpt>
        <trkpt lat="28.827851" lon="105.30345"><ele>618.9419</ele><time>2026-04-03T19:07:46.000Z</time></trkpt>
        <trkpt lat="28.827901" lon="105.303438"><ele>618.57837</ele><time>2026-04-03T19:07:53.000Z</time></trkpt>
        <trkpt lat="28.827951" lon="105.303421"><ele>618.48083</ele><time>2026-04-03T19:07:59.000Z</time></trkpt>
        <trkpt lat="28.827992" lon="105.303385"><ele>619.286</ele><time>2026-04-03T19:08:03.000Z</time></trkpt>
        <trkpt lat="28.828025" lon="105.303345"><ele>620.5053</ele><time>2026-04-03T19:08:08.000Z</time></trkpt>
        <trkpt lat="28.828062" lon="105.303299"><ele>621.72437</ele><time>2026-04-03T19:08:14.000Z</time></trkpt>
        <trkpt lat="28.828082" lon="105.303243"><ele>622.0207</ele><time>2026-04-03T19:08:22.000Z</time></trkpt>
        <trkpt lat="28.828106" lon="105.303192"><ele>623.44867</ele><time>2026-04-03T19:08:27.000Z</time></trkpt>
        <trkpt lat="28.828126" lon="105.303142"><ele>624.0599</ele><time>2026-04-03T19:08:31.000Z</time></trkpt>
        <trkpt lat="28.828162" lon="105.303112"><ele>625.19293</ele><time>2026-04-03T19:08:35.000Z</time></trkpt>
        <trkpt lat="28.828215" lon="105.303099"><ele>625.43823</ele><time>2026-04-03T19:08:40.000Z</time></trkpt>
        <trkpt lat="28.828259" lon="105.303122"><ele>624.45</ele><time>2026-04-03T19:08:45.000Z</time></trkpt>
        <trkpt lat="28.828304" lon="105.303144"><ele>623.94165</ele><time>2026-04-03T19:08:49.000Z</time></trkpt>
        <trkpt lat="28.828348" lon="105.30317"><ele>622.6906</ele><time>2026-04-03T19:08:54.000Z</time></trkpt>
        <trkpt lat="28.828397" lon="105.303187"><ele>622.3099</ele><time>2026-04-03T19:08:59.000Z</time></trkpt>
        <trkpt lat="28.828445" lon="105.303219"><ele>621.47455</ele><time>2026-04-03T19:09:04.000Z</time></trkpt>
        <trkpt lat="28.828499" lon="105.303233"><ele>622.14026</ele><time>2026-04-03T19:09:10.000Z</time></trkpt>
        <trkpt lat="28.828592" lon="105.303293"><ele>620.6228</ele><time>2026-04-03T19:10:00.000Z</time></trkpt>
        <trkpt lat="28.828638" lon="105.303299"><ele>619.70557</ele><time>2026-04-03T19:10:04.000Z</time></trkpt>
        <trkpt lat="28.828685" lon="105.303289"><ele>621.33527</ele><time>2026-04-03T19:10:09.000Z</time></trkpt>
        <trkpt lat="28.82873" lon="105.303282"><ele>621.5002</ele><time>2026-04-03T19:10:12.000Z</time></trkpt>
        <trkpt lat="28.828778" lon="105.303282"><ele>621.4903</ele><time>2026-04-03T19:10:15.000Z</time></trkpt>
        <trkpt lat="28.828822" lon="105.303295"><ele>621.748</ele><time>2026-04-03T19:10:18.000Z</time></trkpt>
        <trkpt lat="28.828881" lon="105.303291"><ele>623.3442</ele><time>2026-04-03T19:10:22.000Z</time></trkpt>
        <trkpt lat="28.828924" lon="105.303269"><ele>623.6935</ele><time>2026-04-03T19:10:25.000Z</time></trkpt>
        <trkpt lat="28.828983" lon="105.30326"><ele>624.7434</ele><time>2026-04-03T19:10:29.000Z</time></trkpt>
        <trkpt lat="28.829035" lon="105.303255"><ele>624.1111</ele><time>2026-04-03T19:10:32.000Z</time></trkpt>
        <trkpt lat="28.829074" lon="105.303289"><ele>623.1013</ele><time>2026-04-03T19:10:34.000Z</time></trkpt>
        <trkpt lat="28.829126" lon="105.303287"><ele>623.00793</ele><time>2026-04-03T19:10:37.000Z</time></trkpt>
        <trkpt lat="28.829177" lon="105.303291"><ele>622.83795</ele><time>2026-04-03T19:10:40.000Z</time></trkpt>
        <trkpt lat="28.829233" lon="105.303261"><ele>622.3289</ele><time>2026-04-03T19:10:44.000Z</time></trkpt>
        <trkpt lat="28.829283" lon="105.303242"><ele>623.81213</ele><time>2026-04-03T19:10:47.000Z</time></trkpt>
        <trkpt lat="28.829323" lon="105.303216"><ele>623.71857</ele><time>2026-04-03T19:10:50.000Z</time></trkpt>
        <trkpt lat="28.829372" lon="105.303196"><ele>623.0356</ele><time>2026-04-03T19:10:54.000Z</time></trkpt>
        <trkpt lat="28.829425" lon="105.303175"><ele>621.31366</ele><time>2026-04-03T19:11:00.000Z</time></trkpt>
        <trkpt lat="28.829474" lon="105.303176"><ele>621.3902</ele><time>2026-04-03T19:11:04.000Z</time></trkpt>
        <trkpt lat="28.829519" lon="105.303185"><ele>621.9858</ele><time>2026-04-03T19:11:10.000Z</time></trkpt>
        <trkpt lat="28.829565" lon="105.303197"><ele>622.23206</ele><time>2026-04-03T19:11:14.000Z</time></trkpt>
        <trkpt lat="28.829615" lon="105.303198"><ele>621.4047</ele><time>2026-04-03T19:11:19.000Z</time></trkpt>
        <trkpt lat="28.829666" lon="105.303198"><ele>621.7276</ele><time>2026-04-03T19:11:24.000Z</time></trkpt>
        <trkpt lat="28.829715" lon="105.303202"><ele>621.59656</ele><time>2026-04-03T19:11:27.000Z</time></trkpt>
        <trkpt lat="28.829764" lon="105.303193"><ele>622.5503</ele><time>2026-04-03T19:11:33.000Z</time></trkpt>
        <trkpt lat="28.829807" lon="105.303169"><ele>622.0708</ele><time>2026-04-03T19:11:40.000Z</time></trkpt>
        <trkpt lat="28.829827" lon="105.303118"><ele>621.79785</ele><time>2026-04-03T19:11:46.000Z</time></trkpt>
        <trkpt lat="28.829832" lon="105.303062"><ele>622.24414</ele><time>2026-04-03T19:11:51.000Z</time></trkpt>
        <trkpt lat="28.829859" lon="105.303017"><ele>622.5819</ele><time>2026-04-03T19:11:55.000Z</time></trkpt>
        <trkpt lat="28.82988" lon="105.302958"><ele>621.96484</ele><time>2026-04-03T19:11:59.000Z</time></trkpt>
        <trkpt lat="28.829899" lon="105.302904"><ele>621.3708</ele><time>2026-04-03T19:12:04.000Z</time></trkpt>
        <trkpt lat="28.829925" lon="105.302858"><ele>621.1472</ele><time>2026-04-03T19:12:07.000Z</time></trkpt>
        <trkpt lat="28.829967" lon="105.302816"><ele>619.47906</ele><time>2026-04-03T19:12:11.000Z</time></trkpt>
        <trkpt lat="28.830004" lon="105.302774"><ele>619.05493</ele><time>2026-04-03T19:12:15.000Z</time></trkpt>
        <trkpt lat="28.830047" lon="105.302745"><ele>618.759</ele><time>2026-04-03T19:12:18.000Z</time></trkpt>
        <trkpt lat="28.83009" lon="105.302721"><ele>618.2558</ele><time>2026-04-03T19:12:21.000Z</time></trkpt>
        <trkpt lat="28.830133" lon="105.302704"><ele>617.6205</ele><time>2026-04-03T19:12:25.000Z</time></trkpt>
        <trkpt lat="28.830184" lon="105.302693"><ele>617.21124</ele><time>2026-04-03T19:12:28.000Z</time></trkpt>
        <trkpt lat="28.830228" lon="105.302713"><ele>616.94507</ele><time>2026-04-03T19:12:31.000Z</time></trkpt>
        <trkpt lat="28.830275" lon="105.30274"><ele>616.0256</ele><time>2026-04-03T19:12:35.000Z</time></trkpt>
        <trkpt lat="28.830313" lon="105.302786"><ele>617.08356</ele><time>2026-04-03T19:12:41.000Z</time></trkpt>
        <trkpt lat="28.83035" lon="105.302835"><ele>617.59375</ele><time>2026-04-03T19:12:46.000Z</time></trkpt>
        <trkpt lat="28.830373" lon="105.302888"><ele>617.8149</ele><time>2026-04-03T19:12:49.000Z</time></trkpt>
        <trkpt lat="28.830394" lon="105.302935"><ele>618.21497</ele><time>2026-04-03T19:12:52.000Z</time></trkpt>
        <trkpt lat="28.830411" lon="105.302993"><ele>617.44586</ele><time>2026-04-03T19:12:56.000Z</time></trkpt>
        <trkpt lat="28.83043" lon="105.303043"><ele>618.6802</ele><time>2026-04-03T19:13:00.000Z</time></trkpt>
        <trkpt lat="28.830454" lon="105.303089"><ele>618.66174</ele><time>2026-04-03T19:13:04.000Z</time></trkpt>
        <trkpt lat="28.830479" lon="105.303137"><ele>619.89624</ele><time>2026-04-03T19:13:09.000Z</time></trkpt>
        <trkpt lat="28.830504" lon="105.303186"><ele>618.5496</ele><time>2026-04-03T19:13:13.000Z</time></trkpt>
        <trkpt lat="28.830521" lon="105.303241"><ele>620.34534</ele><time>2026-04-03T19:13:17.000Z</time></trkpt>
        <trkpt lat="28.830557" lon="105.303282"><ele>619.2308</ele><time>2026-04-03T19:13:21.000Z</time></trkpt>
        <trkpt lat="28.830576" lon="105.303337"><ele>616.9213</ele><time>2026-04-03T19:13:25.000Z</time></trkpt>
        <trkpt lat="28.830603" lon="105.303382"><ele>615.53687</ele><time>2026-04-03T19:13:29.000Z</time></trkpt>
        <trkpt lat="28.830628" lon="105.303439"><ele>617.5069</ele><time>2026-04-03T19:13:33.000Z</time></trkpt>
        <trkpt lat="28.830649" lon="105.303492"><ele>618.996</ele><time>2026-04-03T19:13:37.000Z</time></trkpt>
        <trkpt lat="28.830677" lon="105.303549"><ele>621.43146</ele><time>2026-04-03T19:13:42.000Z</time></trkpt>
        <trkpt lat="28.830665" lon="105.303599"><ele>620.9748</ele><time>2026-04-03T19:14:07.000Z</time></trkpt>
        <trkpt lat="28.830649" lon="105.30365"><ele>621.4022</ele><time>2026-04-03T19:14:12.000Z</time></trkpt>
        <trkpt lat="28.830614" lon="105.303699"><ele>621.44385</ele><time>2026-04-03T19:14:17.000Z</time></trkpt>
        <trkpt lat="28.830597" lon="105.30375"><ele>621.60785</ele><time>2026-04-03T19:14:22.000Z</time></trkpt>
        <trkpt lat="28.830557" lon="105.303794"><ele>621.0408</ele><time>2026-04-03T19:14:27.000Z</time></trkpt>
        <trkpt lat="28.830538" lon="105.303852"><ele>619.6429</ele><time>2026-04-03T19:14:33.000Z</time></trkpt>
        <trkpt lat="28.830524" lon="105.303911"><ele>618.6895</ele><time>2026-04-03T19:14:38.000Z</time></trkpt>
        <trkpt lat="28.830492" lon="105.303965"><ele>617.45483</ele><time>2026-04-03T19:14:43.000Z</time></trkpt>
        <trkpt lat="28.830453" lon="105.304018"><ele>617.1613</ele><time>2026-04-03T19:14:48.000Z</time></trkpt>
        <trkpt lat="28.830419" lon="105.30406"><ele>616.55096</ele><time>2026-04-03T19:14:53.000Z</time></trkpt>
        <trkpt lat="28.830401" lon="105.304111"><ele>616.0369</ele><time>2026-04-03T19:14:57.000Z</time></trkpt>
        <trkpt lat="28.830373" lon="105.304153"><ele>615.16223</ele><time>2026-04-03T19:15:01.000Z</time></trkpt>
        <trkpt lat="28.830362" lon="105.304215"><ele>616.2214</ele><time>2026-04-03T19:15:06.000Z</time></trkpt>
        <trkpt lat="28.830377" lon="105.304265"><ele>616.5885</ele><time>2026-04-03T19:15:14.000Z</time></trkpt>
        <trkpt lat="28.830423" lon="105.304293"><ele>616.3478</ele><time>2026-04-03T19:15:19.000Z</time></trkpt>
        <trkpt lat="28.830468" lon="105.304304"><ele>616.41376</ele><time>2026-04-03T19:15:22.000Z</time></trkpt>
        <trkpt lat="28.830443" lon="105.30435"><ele>616.1764</ele><time>2026-04-03T19:15:31.000Z</time></trkpt>
        <trkpt lat="28.830389" lon="105.304341"><ele>616.90375</ele><time>2026-04-03T19:15:37.000Z</time></trkpt>
        <trkpt lat="28.83034" lon="105.304324"><ele>616.6002</ele><time>2026-04-03T19:15:42.000Z</time></trkpt>
        <trkpt lat="28.830291" lon="105.304314"><ele>617.23157</ele><time>2026-04-03T19:15:47.000Z</time></trkpt>
        <trkpt lat="28.830242" lon="105.304314"><ele>617.361</ele><time>2026-04-03T19:15:52.000Z</time></trkpt>
        <trkpt lat="28.830192" lon="105.304304"><ele>618.10077</ele><time>2026-04-03T19:15:58.000Z</time></trkpt>
        <trkpt lat="28.830144" lon="105.30429"><ele>618.28644</ele><time>2026-04-03T19:16:03.000Z</time></trkpt>
        <trkpt lat="28.8301" lon="105.304282"><ele>618.9516</ele><time>2026-04-03T19:16:07.000Z</time></trkpt>
        <trkpt lat="28.830049" lon="105.30428"><ele>620.0476</ele><time>2026-04-03T19:16:11.000Z</time></trkpt>
        <trkpt lat="28.830002" lon="105.304285"><ele>621.08405</ele><time>2026-04-03T19:16:16.000Z</time></trkpt>
        <trkpt lat="28.829956" lon="105.304269"><ele>620.4602</ele><time>2026-04-03T19:16:22.000Z</time></trkpt>
        <trkpt lat="28.829912" lon="105.304254"><ele>620.86847</ele><time>2026-04-03T19:16:28.000Z</time></trkpt>
        <trkpt lat="28.829863" lon="105.304266"><ele>620.93616</ele><time>2026-04-03T19:16:33.000Z</time></trkpt>
        <trkpt lat="28.82981" lon="105.304284"><ele>622.4698</ele><time>2026-04-03T19:16:38.000Z</time></trkpt>
        <trkpt lat="28.829775" lon="105.304322"><ele>621.04047</ele><time>2026-04-03T19:16:53.000Z</time></trkpt>
        <trkpt lat="28.829749" lon="105.304374"><ele>620.3908</ele><time>2026-04-03T19:16:58.000Z</time></trkpt>
        <trkpt lat="28.829727" lon="105.30442"><ele>620.0799</ele><time>2026-04-03T19:17:02.000Z</time></trkpt>
        <trkpt lat="28.82971" lon="105.304468"><ele>620.01324</ele><time>2026-04-03T19:17:06.000Z</time></trkpt>
        <trkpt lat="28.829703" lon="105.304531"><ele>619.4986</ele><time>2026-04-03T19:17:11.000Z</time></trkpt>
        <trkpt lat="28.829717" lon="105.304586"><ele>619.9776</ele><time>2026-04-03T19:17:16.000Z</time></trkpt>
        <trkpt lat="28.829741" lon="105.30464"><ele>620.03174</ele><time>2026-04-03T19:17:22.000Z</time></trkpt>
        <trkpt lat="28.82976" lon="105.304689"><ele>619.99304</ele><time>2026-04-03T19:17:27.000Z</time></trkpt>
        <trkpt lat="28.82979" lon="105.304737"><ele>620.2731</ele><time>2026-04-03T19:17:32.000Z</time></trkpt>
        <trkpt lat="28.829807" lon="105.304794"><ele>620.41156</ele><time>2026-04-03T19:17:37.000Z</time></trkpt>
        <trkpt lat="28.829835" lon="105.304851"><ele>621.05786</ele><time>2026-04-03T19:17:42.000Z</time></trkpt>
        <trkpt lat="28.829854" lon="105.304909"><ele>621.6031</ele><time>2026-04-03T19:17:47.000Z</time></trkpt>
        <trkpt lat="28.829861" lon="105.304963"><ele>622.7898</ele><time>2026-04-03T19:17:51.000Z</time></trkpt>
        <trkpt lat="28.829884" lon="105.305017"><ele>622.34393</ele><time>2026-04-03T19:17:56.000Z</time></trkpt>
        <trkpt lat="28.829913" lon="105.305071"><ele>623.05145</ele><time>2026-04-03T19:18:01.000Z</time></trkpt>
        <trkpt lat="28.829926" lon="105.305122"><ele>623.4884</ele><time>2026-04-03T19:18:05.000Z</time></trkpt>
        <trkpt lat="28.829941" lon="105.305172"><ele>623.7888</ele><time>2026-04-03T19:18:09.000Z</time></trkpt>
        <trkpt lat="28.829953" lon="105.305222"><ele>624.3165</ele><time>2026-04-03T19:18:14.000Z</time></trkpt>
        <trkpt lat="28.82998" lon="105.305274"><ele>624.0519</ele><time>2026-04-03T19:18:20.000Z</time></trkpt>
        <trkpt lat="28.829986" lon="105.305325"><ele>624.2192</ele><time>2026-04-03T19:18:24.000Z</time></trkpt>
        <trkpt lat="28.830004" lon="105.30538"><ele>625.30023</ele><time>2026-04-03T19:18:29.000Z</time></trkpt>
        <trkpt lat="28.830037" lon="105.305425"><ele>625.12146</ele><time>2026-04-03T19:18:34.000Z</time></trkpt>
        <trkpt lat="28.830065" lon="105.305469"><ele>623.9556</ele><time>2026-04-03T19:18:38.000Z</time></trkpt>
        <trkpt lat="28.830092" lon="105.305523"><ele>623.33966</ele><time>2026-04-03T19:18:43.000Z</time></trkpt>
        <trkpt lat="28.830115" lon="105.305573"><ele>622.91504</ele><time>2026-04-03T19:18:47.000Z</time></trkpt>
        <trkpt lat="28.830147" lon="105.305622"><ele>622.7164</ele><time>2026-04-03T19:18:52.000Z</time></trkpt>
        <trkpt lat="28.830177" lon="105.305669"><ele>621.268</ele><time>2026-04-03T19:18:56.000Z</time></trkpt>
        <trkpt lat="28.830196" lon="105.305723"><ele>620.4295</ele><time>2026-04-03T19:19:00.000Z</time></trkpt>
        <trkpt lat="28.830216" lon="105.30577"><ele>620.1177</ele><time>2026-04-03T19:19:04.000Z</time></trkpt>
        <trkpt lat="28.830222" lon="105.305836"><ele>619.90765</ele><time>2026-04-03T19:19:08.000Z</time></trkpt>
        <trkpt lat="28.830227" lon="105.305902"><ele>620.13324</ele><time>2026-04-03T19:19:13.000Z</time></trkpt>
        <trkpt lat="28.830233" lon="105.305953"><ele>620.8686</ele><time>2026-04-03T19:19:17.000Z</time></trkpt>
        <trkpt lat="28.83023" lon="105.306006"><ele>620.22485</ele><time>2026-04-03T19:19:21.000Z</time></trkpt>
        <trkpt lat="28.830203" lon="105.306053"><ele>621.14923</ele><time>2026-04-03T19:19:26.000Z</time></trkpt>
        <trkpt lat="28.830195" lon="105.306113"><ele>620.73615</ele><time>2026-04-03T19:19:31.000Z</time></trkpt>
        <trkpt lat="28.830173" lon="105.306172"><ele>621.62537</ele><time>2026-04-03T19:19:36.000Z</time></trkpt>
        <trkpt lat="28.830154" lon="105.306222"><ele>621.64685</ele><time>2026-04-03T19:19:40.000Z</time></trkpt>
        <trkpt lat="28.830133" lon="105.306284"><ele>621.5289</ele><time>2026-04-03T19:19:45.000Z</time></trkpt>
        <trkpt lat="28.830112" lon="105.306334"><ele>622.295</ele><time>2026-04-03T19:19:49.000Z</time></trkpt>
        <trkpt lat="28.830068" lon="105.306381"><ele>623.6145</ele><time>2026-04-03T19:19:54.000Z</time></trkpt>
        <trkpt lat="28.830025" lon="105.306412"><ele>623.13226</ele><time>2026-04-03T19:19:58.000Z</time></trkpt>
        <trkpt lat="28.829982" lon="105.306441"><ele>623.66876</ele><time>2026-04-03T19:20:03.000Z</time></trkpt>
        <trkpt lat="28.829938" lon="105.306456"><ele>623.12646</ele><time>2026-04-03T19:20:08.000Z</time></trkpt>
        <trkpt lat="28.829892" lon="105.306477"><ele>623.9061</ele><time>2026-04-03T19:20:18.000Z</time></trkpt>
        <trkpt lat="28.829891" lon="105.306425"><ele>623.02814</ele><time>2026-04-03T19:20:52.000Z</time></trkpt>
        <trkpt lat="28.829869" lon="105.306477"><ele>621.10645</ele><time>2026-04-03T19:22:58.000Z</time></trkpt>
        <trkpt lat="28.829822" lon="105.306465"><ele>623.52057</ele><time>2026-04-03T19:24:41.000Z</time></trkpt>
        <trkpt lat="28.829788" lon="105.306505"><ele>621.9093</ele><time>2026-04-03T19:24:49.000Z</time></trkpt>
        <trkpt lat="28.829746" lon="105.30654"><ele>621.7148</ele><time>2026-04-03T19:24:56.000Z</time></trkpt>
        <trkpt lat="28.829707" lon="105.30658"><ele>620.94104</ele><time>2026-04-03T19:25:04.000Z</time></trkpt>
        <trkpt lat="28.829677" lon="105.306628"><ele>621.2751</ele><time>2026-04-03T19:25:12.000Z</time></trkpt>
        <trkpt lat="28.829642" lon="105.306669"><ele>619.50977</ele><time>2026-04-03T19:25:20.000Z</time></trkpt>
        <trkpt lat="28.829592" lon="105.306693"><ele>618.4356</ele><time>2026-04-03T19:25:26.000Z</time></trkpt>
        <trkpt lat="28.829545" lon="105.306693"><ele>618.4854</ele><time>2026-04-03T19:25:31.000Z</time></trkpt>
        <trkpt lat="28.829506" lon="105.30673"><ele>618.06793</ele><time>2026-04-03T19:25:36.000Z</time></trkpt>
        <trkpt lat="28.829474" lon="105.30678"><ele>617.3639</ele><time>2026-04-03T19:25:43.000Z</time></trkpt>
        <trkpt lat="28.829465" lon="105.306831"><ele>616.99664</ele><time>2026-04-03T19:25:47.000Z</time></trkpt>
        <trkpt lat="28.829426" lon="105.306859"><ele>617.08923</ele><time>2026-04-03T19:25:52.000Z</time></trkpt>
        <trkpt lat="28.82938" lon="105.306857"><ele>617.4042</ele><time>2026-04-03T19:25:57.000Z</time></trkpt>
        <trkpt lat="28.829335" lon="105.306866"><ele>616.19946</ele><time>2026-04-03T19:26:02.000Z</time></trkpt>
        <trkpt lat="28.829286" lon="105.306876"><ele>616.64276</ele><time>2026-04-03T19:26:07.000Z</time></trkpt>
        <trkpt lat="28.829244" lon="105.306896"><ele>615.976</ele><time>2026-04-03T19:26:11.000Z</time></trkpt>
        <trkpt lat="28.829201" lon="105.306912"><ele>614.5223</ele><time>2026-04-03T19:26:16.000Z</time></trkpt>
        <trkpt lat="28.829153" lon="105.306925"><ele>613.9407</ele><time>2026-04-03T19:26:21.000Z</time></trkpt>
        <trkpt lat="28.829106" lon="105.306938"><ele>614.7737</ele><time>2026-04-03T19:26:27.000Z</time></trkpt>
        <trkpt lat="28.829056" lon="105.306953"><ele>616.25653</ele><time>2026-04-03T19:26:32.000Z</time></trkpt>
        <trkpt lat="28.829004" lon="105.306938"><ele>616.46423</ele><time>2026-04-03T19:26:38.000Z</time></trkpt>
        <trkpt lat="28.828981" lon="105.30689"><ele>615.96484</ele><time>2026-04-03T19:26:45.000Z</time></trkpt>
        <trkpt lat="28.828969" lon="105.306837"><ele>615.9098</ele><time>2026-04-03T19:26:49.000Z</time></trkpt>
        <trkpt lat="28.828936" lon="105.306788"><ele>615.48206</ele><time>2026-04-03T19:26:55.000Z</time></trkpt>
        <trkpt lat="28.828893" lon="105.306761"><ele>615.64526</ele><time>2026-04-03T19:26:59.000Z</time></trkpt>
        <trkpt lat="28.82884" lon="105.306738"><ele>616.6558</ele><time>2026-04-03T19:27:04.000Z</time></trkpt>
        <trkpt lat="28.828797" lon="105.306711"><ele>617.7329</ele><time>2026-04-03T19:27:09.000Z</time></trkpt>
        <trkpt lat="28.828739" lon="105.306711"><ele>618.38745</ele><time>2026-04-03T19:27:15.000Z</time></trkpt>
        <trkpt lat="28.828682" lon="105.306695"><ele>618.204</ele><time>2026-04-03T19:27:21.000Z</time></trkpt>
        <trkpt lat="28.82863" lon="105.306685"><ele>619.7687</ele><time>2026-04-03T19:27:26.000Z</time></trkpt>
        <trkpt lat="28.828589" lon="105.306658"><ele>620.59454</ele><time>2026-04-03T19:27:30.000Z</time></trkpt>
        <trkpt lat="28.828545" lon="105.306628"><ele>621.9153</ele><time>2026-04-03T19:27:35.000Z</time></trkpt>
        <trkpt lat="28.8285" lon="105.306608"><ele>622.3203</ele><time>2026-04-03T19:27:40.000Z</time></trkpt>
        <trkpt lat="28.828462" lon="105.306578"><ele>624.1756</ele><time>2026-04-03T19:27:46.000Z</time></trkpt>
        <trkpt lat="28.828421" lon="105.306545"><ele>624.21875</ele><time>2026-04-03T19:27:53.000Z</time></trkpt>
        <trkpt lat="28.828365" lon="105.306529"><ele>626.62537</ele><time>2026-04-03T19:27:58.000Z</time></trkpt>
        <trkpt lat="28.828323" lon="105.306492"><ele>625.93506</ele><time>2026-04-03T19:28:03.000Z</time></trkpt>
        <trkpt lat="28.828283" lon="105.30646"><ele>626.424</ele><time>2026-04-03T19:28:09.000Z</time></trkpt>
        <trkpt lat="28.828245" lon="105.306423"><ele>626.8188</ele><time>2026-04-03T19:28:14.000Z</time></trkpt>
        <trkpt lat="28.828235" lon="105.306365"><ele>626.35486</ele><time>2026-04-03T19:28:19.000Z</time></trkpt>
        <trkpt lat="28.828262" lon="105.306315"><ele>626.80804</ele><time>2026-04-03T19:28:23.000Z</time></trkpt>
        <trkpt lat="28.828292" lon="105.306277"><ele>627.0704</ele><time>2026-04-03T19:28:27.000Z</time></trkpt>
        <trkpt lat="28.828332" lon="105.306237"><ele>627.2827</ele><time>2026-04-03T19:28:32.000Z</time></trkpt>
        <trkpt lat="28.828368" lon="105.306201"><ele>627.2633</ele><time>2026-04-03T19:28:37.000Z</time></trkpt>
        <trkpt lat="28.828409" lon="105.306155"><ele>626.4176</ele><time>2026-04-03T19:28:42.000Z</time></trkpt>
        <trkpt lat="28.82846" lon="105.306155"><ele>626.46423</ele><time>2026-04-03T19:28:47.000Z</time></trkpt>
        <trkpt lat="28.828507" lon="105.306152"><ele>626.18976</ele><time>2026-04-03T19:28:52.000Z</time></trkpt>
        <trkpt lat="28.828551" lon="105.30616"><ele>624.1927</ele><time>2026-04-03T19:29:08.000Z</time></trkpt>
        <trkpt lat="28.828598" lon="105.306165"><ele>622.9758</ele><time>2026-04-03T19:29:17.000Z</time></trkpt>
        <trkpt lat="28.828636" lon="105.306203"><ele>621.95374</ele><time>2026-04-03T19:29:21.000Z</time></trkpt>
        <trkpt lat="28.828668" lon="105.306239"><ele>620.5184</ele><time>2026-04-03T19:29:27.000Z</time></trkpt>
        <trkpt lat="28.828717" lon="105.30624"><ele>620.2601</ele><time>2026-04-03T19:29:31.000Z</time></trkpt>
        <trkpt lat="28.828762" lon="105.306252"><ele>620.0458</ele><time>2026-04-03T19:29:36.000Z</time></trkpt>
        <trkpt lat="28.828812" lon="105.306232"><ele>620.53925</ele><time>2026-04-03T19:29:42.000Z</time></trkpt>
        <trkpt lat="28.828855" lon="105.306196"><ele>619.13727</ele><time>2026-04-03T19:29:47.000Z</time></trkpt>
        <trkpt lat="28.828886" lon="105.306151"><ele>617.87146</ele><time>2026-04-03T19:29:51.000Z</time></trkpt>
        <trkpt lat="28.828885" lon="105.3061"><ele>618.5298</ele><time>2026-04-03T19:29:56.000Z</time></trkpt>
        <trkpt lat="28.828859" lon="105.306042"><ele>616.80316</ele><time>2026-04-03T19:30:01.000Z</time></trkpt>
        <trkpt lat="28.828843" lon="105.305986"><ele>616.5256</ele><time>2026-04-03T19:30:05.000Z</time></trkpt>
        <trkpt lat="28.828825" lon="105.305934"><ele>617.733</ele><time>2026-04-03T19:30:09.000Z</time></trkpt>
        <trkpt lat="28.828801" lon="105.305885"><ele>616.8663</ele><time>2026-04-03T19:30:14.000Z</time></trkpt>
        <trkpt lat="28.828789" lon="105.305831"><ele>617.68256</ele><time>2026-04-03T19:30:19.000Z</time></trkpt>
        <trkpt lat="28.828774" lon="105.305777"><ele>617.31647</ele><time>2026-04-03T19:30:23.000Z</time></trkpt>
        <trkpt lat="28.828756" lon="105.305728"><ele>617.05206</ele><time>2026-04-03T19:30:27.000Z</time></trkpt>
        <trkpt lat="28.828727" lon="105.305683"><ele>617.3909</ele><time>2026-04-03T19:30:32.000Z</time></trkpt>
        <trkpt lat="28.828691" lon="105.305642"><ele>617.313</ele><time>2026-04-03T19:30:37.000Z</time></trkpt>
        <trkpt lat="28.828661" lon="105.305599"><ele>617.37036</ele><time>2026-04-03T19:30:40.000Z</time></trkpt>
        <trkpt lat="28.828612" lon="105.305576"><ele>616.30023</ele><time>2026-04-03T19:30:46.000Z</time></trkpt>
        <trkpt lat="28.82857" lon="105.305553"><ele>616.9445</ele><time>2026-04-03T19:30:50.000Z</time></trkpt>
        <trkpt lat="28.828521" lon="105.305529"><ele>616.8334</ele><time>2026-04-03T19:30:56.000Z</time></trkpt>
        <trkpt lat="28.828477" lon="105.305496"><ele>618.33765</ele><time>2026-04-03T19:31:02.000Z</time></trkpt>
        <trkpt lat="28.828434" lon="105.30547"><ele>618.53937</ele><time>2026-04-03T19:31:06.000Z</time></trkpt>
        <trkpt lat="28.828396" lon="105.30543"><ele>617.3492</ele><time>2026-04-03T19:31:12.000Z</time></trkpt>
        <trkpt lat="28.828349" lon="105.305398"><ele>616.36176</ele><time>2026-04-03T19:31:18.000Z</time></trkpt>
        <trkpt lat="28.828303" lon="105.305393"><ele>617.1251</ele><time>2026-04-03T19:31:23.000Z</time></trkpt>
        <trkpt lat="28.828257" lon="105.305386"><ele>618.4255</ele><time>2026-04-03T19:31:28.000Z</time></trkpt>
        <trkpt lat="28.828204" lon="105.305382"><ele>618.9485</ele><time>2026-04-03T19:31:32.000Z</time></trkpt>
        <trkpt lat="28.828154" lon="105.30539"><ele>619.0216</ele><time>2026-04-03T19:31:38.000Z</time></trkpt>
        <trkpt lat="28.828104" lon="105.305406"><ele>618.3034</ele><time>2026-04-03T19:31:43.000Z</time></trkpt>
        <trkpt lat="28.82806" lon="105.305421"><ele>618.3862</ele><time>2026-04-03T19:31:47.000Z</time></trkpt>
        <trkpt lat="28.828013" lon="105.305427"><ele>617.9051</ele><time>2026-04-03T19:31:52.000Z</time></trkpt>
        <trkpt lat="28.827968" lon="105.305456"><ele>618.63367</ele><time>2026-04-03T19:31:58.000Z</time></trkpt>
        <trkpt lat="28.827933" lon="105.305493"><ele>619.4258</ele><time>2026-04-03T19:32:02.000Z</time></trkpt>
        <trkpt lat="28.827875" lon="105.305489"><ele>620.0762</ele><time>2026-04-03T19:32:07.000Z</time></trkpt>
        <trkpt lat="28.827829" lon="105.30546"><ele>620.16095</ele><time>2026-04-03T19:32:11.000Z</time></trkpt>
        <trkpt lat="28.827784" lon="105.305428"><ele>619.9882</ele><time>2026-04-03T19:32:17.000Z</time></trkpt>
        <trkpt lat="28.827763" lon="105.305383"><ele>620.3119</ele><time>2026-04-03T19:32:21.000Z</time></trkpt>
        <trkpt lat="28.827799" lon="105.305416"><ele>619.1676</ele><time>2026-04-03T19:32:50.000Z</time></trkpt>
        <trkpt lat="28.827849" lon="105.305443"><ele>620.0126</ele><time>2026-04-03T19:32:55.000Z</time></trkpt>
        <trkpt lat="28.827895" lon="105.305456"><ele>620.0919</ele><time>2026-04-03T19:33:00.000Z</time></trkpt>
        <trkpt lat="28.827947" lon="105.305445"><ele>621.1659</ele><time>2026-04-03T19:33:04.000Z</time></trkpt>
        <trkpt lat="28.827986" lon="105.305411"><ele>620.07263</ele><time>2026-04-03T19:33:09.000Z</time></trkpt>
        <trkpt lat="28.828025" lon="105.305381"><ele>620.0777</ele><time>2026-04-03T19:33:14.000Z</time></trkpt>
        <trkpt lat="28.828079" lon="105.305364"><ele>618.4552</ele><time>2026-04-03T19:33:19.000Z</time></trkpt>
        <trkpt lat="28.828126" lon="105.305358"><ele>618.1652</ele><time>2026-04-03T19:33:23.000Z</time></trkpt>
        <trkpt lat="28.828172" lon="105.305344"><ele>617.3502</ele><time>2026-04-03T19:33:27.000Z</time></trkpt>
        <trkpt lat="28.828222" lon="105.305337"><ele>616.883</ele><time>2026-04-03T19:33:31.000Z</time></trkpt>
        <trkpt lat="28.828272" lon="105.305341"><ele>617.54565</ele><time>2026-04-03T19:33:35.000Z</time></trkpt>
        <trkpt lat="28.828321" lon="105.30535"><ele>617.3716</ele><time>2026-04-03T19:33:39.000Z</time></trkpt>
        <trkpt lat="28.828374" lon="105.305372"><ele>617.834</ele><time>2026-04-03T19:33:44.000Z</time></trkpt>
        <trkpt lat="28.828418" lon="105.305401"><ele>617.82556</ele><time>2026-04-03T19:33:48.000Z</time></trkpt>
        <trkpt lat="28.828459" lon="105.305433"><ele>618.1935</ele><time>2026-04-03T19:33:52.000Z</time></trkpt>
        <trkpt lat="28.828499" lon="105.305466"><ele>618.2636</ele><time>2026-04-03T19:33:56.000Z</time></trkpt>
        <trkpt lat="28.828547" lon="105.305489"><ele>618.0398</ele><time>2026-04-03T19:34:01.000Z</time></trkpt>
        <trkpt lat="28.828584" lon="105.305519"><ele>617.34033</ele><time>2026-04-03T19:34:06.000Z</time></trkpt>
        <trkpt lat="28.82863" lon="105.305539"><ele>616.9298</ele><time>2026-04-03T19:34:10.000Z</time></trkpt>
        <trkpt lat="28.828675" lon="105.30557"><ele>617.31055</ele><time>2026-04-03T19:34:15.000Z</time></trkpt>
        <trkpt lat="28.82871" lon="105.305616"><ele>617.4292</ele><time>2026-04-03T19:34:20.000Z</time></trkpt>
        <trkpt lat="28.828748" lon="105.305664"><ele>617.95544</ele><time>2026-04-03T19:34:25.000Z</time></trkpt>
        <trkpt lat="28.828776" lon="105.305714"><ele>618.727</ele><time>2026-04-03T19:34:28.000Z</time></trkpt>
        <trkpt lat="28.828801" lon="105.305758"><ele>618.7195</ele><time>2026-04-03T19:34:31.000Z</time></trkpt>
        <trkpt lat="28.828815" lon="105.305819"><ele>618.1679</ele><time>2026-04-03T19:34:35.000Z</time></trkpt>
        <trkpt lat="28.828845" lon="105.305868"><ele>618.9972</ele><time>2026-04-03T19:34:39.000Z</time></trkpt>
        <trkpt lat="28.828864" lon="105.305924"><ele>618.9662</ele><time>2026-04-03T19:34:44.000Z</time></trkpt>
        <trkpt lat="28.828873" lon="105.305984"><ele>618.76605</ele><time>2026-04-03T19:34:48.000Z</time></trkpt>
        <trkpt lat="28.828891" lon="105.306035"><ele>619.8907</ele><time>2026-04-03T19:34:53.000Z</time></trkpt>
        <trkpt lat="28.828909" lon="105.306085"><ele>618.3852</ele><time>2026-04-03T19:34:57.000Z</time></trkpt>
        <trkpt lat="28.828919" lon="105.306147"><ele>618.3809</ele><time>2026-04-03T19:35:02.000Z</time></trkpt>
        <trkpt lat="28.828902" lon="105.306205"><ele>618.3433</ele><time>2026-04-03T19:35:07.000Z</time></trkpt>
        <trkpt lat="28.828868" lon="105.306252"><ele>618.7172</ele><time>2026-04-03T19:35:11.000Z</time></trkpt>
        <trkpt lat="28.828822" lon="105.306291"><ele>619.4193</ele><time>2026-04-03T19:35:16.000Z</time></trkpt>
        <trkpt lat="28.828772" lon="105.306303"><ele>619.2833</ele><time>2026-04-03T19:35:21.000Z</time></trkpt>
        <trkpt lat="28.82872" lon="105.306292"><ele>620.9592</ele><time>2026-04-03T19:35:26.000Z</time></trkpt>
        <trkpt lat="28.828676" lon="105.306275"><ele>621.56146</ele><time>2026-04-03T19:35:30.000Z</time></trkpt>
        <trkpt lat="28.828628" lon="105.30624"><ele>622.2246</ele><time>2026-04-03T19:35:35.000Z</time></trkpt>
        <trkpt lat="28.828584" lon="105.306208"><ele>622.94714</ele><time>2026-04-03T19:35:40.000Z</time></trkpt>
        <trkpt lat="28.828544" lon="105.306181"><ele>623.7366</ele><time>2026-04-03T19:35:44.000Z</time></trkpt>
        <trkpt lat="28.8285" lon="105.306167"><ele>623.80444</ele><time>2026-04-03T19:35:49.000Z</time></trkpt>
        <trkpt lat="28.828454" lon="105.306175"><ele>624.8924</ele><time>2026-04-03T19:35:53.000Z</time></trkpt>
        <trkpt lat="28.82841" lon="105.30619"><ele>626.0118</ele><time>2026-04-03T19:35:59.000Z</time></trkpt>
        <trkpt lat="28.828372" lon="105.306229"><ele>626.71606</ele><time>2026-04-03T19:36:05.000Z</time></trkpt>
        <trkpt lat="28.828348" lon="105.306274"><ele>626.3263</ele><time>2026-04-03T19:36:12.000Z</time></trkpt>
        <trkpt lat="28.828306" lon="105.306323"><ele>626.3778</ele><time>2026-04-03T19:36:17.000Z</time></trkpt>
        <trkpt lat="28.828275" lon="105.30637"><ele>625.67413</ele><time>2026-04-03T19:36:23.000Z</time></trkpt>
        <trkpt lat="28.828224" lon="105.306393"><ele>625.70355</ele><time>2026-04-03T19:36:27.000Z</time></trkpt>
        <trkpt lat="28.828185" lon="105.306367"><ele>625.62866</ele><time>2026-04-03T19:36:31.000Z</time></trkpt>
        <trkpt lat="28.828143" lon="105.306342"><ele>625.05426</ele><time>2026-04-03T19:36:35.000Z</time></trkpt>
        <trkpt lat="28.8281" lon="105.30632"><ele>625.6657</ele><time>2026-04-03T19:36:40.000Z</time></trkpt>
        <trkpt lat="28.828053" lon="105.306287"><ele>626.78815</ele><time>2026-04-03T19:36:45.000Z</time></trkpt>
        <trkpt lat="28.828022" lon="105.306248"><ele>627.70874</ele><time>2026-04-03T19:36:49.000Z</time></trkpt>
        <trkpt lat="28.828006" lon="105.306194"><ele>627.9127</ele><time>2026-04-03T19:36:53.000Z</time></trkpt>
        <trkpt lat="28.827975" lon="105.306145"><ele>628.41125</ele><time>2026-04-03T19:36:57.000Z</time></trkpt>
        <trkpt lat="28.827934" lon="105.306106"><ele>629.40216</ele><time>2026-04-03T19:37:02.000Z</time></trkpt>
        <trkpt lat="28.827918" lon="105.306054"><ele>629.23883</ele><time>2026-04-03T19:37:07.000Z</time></trkpt>
        <trkpt lat="28.827894" lon="105.306008"><ele>629.90607</ele><time>2026-04-03T19:37:12.000Z</time></trkpt>
        <trkpt lat="28.827852" lon="105.30598"><ele>627.139</ele><time>2026-04-03T19:37:21.000Z</time></trkpt>
        <trkpt lat="28.827809" lon="105.305996"><ele>628.80304</ele><time>2026-04-03T19:37:31.000Z</time></trkpt>
        <trkpt lat="28.827769" lon="105.306022"><ele>628.38916</ele><time>2026-04-03T19:37:40.000Z</time></trkpt>
        <trkpt lat="28.827722" lon="105.306014"><ele>629.22845</ele><time>2026-04-03T19:37:47.000Z</time></trkpt>
        <trkpt lat="28.827676" lon="105.305993"><ele>628.6233</ele><time>2026-04-03T19:37:51.000Z</time></trkpt>
        <trkpt lat="28.827628" lon="105.305978"><ele>629.43207</ele><time>2026-04-03T19:37:56.000Z</time></trkpt>
        <trkpt lat="28.827584" lon="105.305955"><ele>631.0486</ele><time>2026-04-03T19:38:01.000Z</time></trkpt>
        <trkpt lat="28.827535" lon="105.305936"><ele>631.9403</ele><time>2026-04-03T19:38:12.000Z</time></trkpt>
        <trkpt lat="28.82749" lon="105.305918"><ele>631.2001</ele><time>2026-04-03T19:38:19.000Z</time></trkpt>
        <trkpt lat="28.827451" lon="105.30589"><ele>631.2805</ele><time>2026-04-03T19:38:24.000Z</time></trkpt>
        <trkpt lat="28.827409" lon="105.30585"><ele>631.19116</ele><time>2026-04-03T19:38:29.000Z</time></trkpt>
        <trkpt lat="28.827374" lon="105.305815"><ele>631.3481</ele><time>2026-04-03T19:38:33.000Z</time></trkpt>
        <trkpt lat="28.827326" lon="105.305791"><ele>630.6849</ele><time>2026-04-03T19:38:38.000Z</time></trkpt>
        <trkpt lat="28.827299" lon="105.305745"><ele>632.24835</ele><time>2026-04-03T19:38:48.000Z</time></trkpt>
        <trkpt lat="28.827252" lon="105.305727"><ele>631.59174</ele><time>2026-04-03T19:38:53.000Z</time></trkpt>
        <trkpt lat="28.827216" lon="105.30569"><ele>629.91925</ele><time>2026-04-03T19:38:57.000Z</time></trkpt>
        <trkpt lat="28.827191" lon="105.305647"><ele>630.64575</ele><time>2026-04-03T19:39:02.000Z</time></trkpt>
        <trkpt lat="28.827149" lon="105.305625"><ele>630.40027</ele><time>2026-04-03T19:39:05.000Z</time></trkpt>
        <trkpt lat="28.827104" lon="105.305598"><ele>630.80237</ele><time>2026-04-03T19:39:07.000Z</time></trkpt>
        <trkpt lat="28.827059" lon="105.305567"><ele>633.50604</ele><time>2026-04-03T19:39:11.000Z</time></trkpt>
        <trkpt lat="28.827022" lon="105.305536"><ele>634.6331</ele><time>2026-04-03T19:39:15.000Z</time></trkpt>
        <trkpt lat="28.826977" lon="105.305509"><ele>634.5038</ele><time>2026-04-03T19:39:20.000Z</time></trkpt>
        <trkpt lat="28.826937" lon="105.30547"><ele>633.05237</ele><time>2026-04-03T19:39:25.000Z</time></trkpt>
        <trkpt lat="28.82689" lon="105.305445"><ele>631.45764</ele><time>2026-04-03T19:39:31.000Z</time></trkpt>
        <trkpt lat="28.826843" lon="105.305435"><ele>630.70374</ele><time>2026-04-03T19:39:35.000Z</time></trkpt>
        <trkpt lat="28.826802" lon="105.305411"><ele>630.1314</ele><time>2026-04-03T19:39:40.000Z</time></trkpt>
        <trkpt lat="28.826758" lon="105.305383"><ele>630.8164</ele><time>2026-04-03T19:39:44.000Z</time></trkpt>
        <trkpt lat="28.826716" lon="105.305355"><ele>631.2589</ele><time>2026-04-03T19:39:47.000Z</time></trkpt>
        <trkpt lat="28.826678" lon="105.305311"><ele>629.1748</ele><time>2026-04-03T19:39:56.000Z</time></trkpt>
        <trkpt lat="28.826625" lon="105.305286"><ele>628.82135</ele><time>2026-04-03T19:40:03.000Z</time></trkpt>
        <trkpt lat="28.826582" lon="105.305248"><ele>628.1691</ele><time>2026-04-03T19:40:08.000Z</time></trkpt>
        <trkpt lat="28.826552" lon="105.305209"><ele>628.1453</ele><time>2026-04-03T19:40:11.000Z</time></trkpt>
        <trkpt lat="28.826516" lon="105.305175"><ele>626.6874</ele><time>2026-04-03T19:40:16.000Z</time></trkpt>
        <trkpt lat="28.826469" lon="105.305162"><ele>625.85406</ele><time>2026-04-03T19:40:21.000Z</time></trkpt>
        <trkpt lat="28.826418" lon="105.305134"><ele>624.28296</ele><time>2026-04-03T19:40:26.000Z</time></trkpt>
        <trkpt lat="28.826433" lon="105.30519"><ele>625.0385</ele><time>2026-04-03T19:40:34.000Z</time></trkpt>
        <trkpt lat="28.826456" lon="105.305242"><ele>624.7775</ele><time>2026-04-03T19:40:39.000Z</time></trkpt>
        <trkpt lat="28.826474" lon="105.30529"><ele>625.3455</ele><time>2026-04-03T19:40:42.000Z</time></trkpt>
        <trkpt lat="28.826481" lon="105.305351"><ele>626.6951</ele><time>2026-04-03T19:40:47.000Z</time></trkpt>
        <trkpt lat="28.826488" lon="105.305415"><ele>626.44037</ele><time>2026-04-03T19:40:52.000Z</time></trkpt>
        <trkpt lat="28.826505" lon="105.305467"><ele>626.1957</ele><time>2026-04-03T19:40:56.000Z</time></trkpt>
        <trkpt lat="28.826522" lon="105.30552"><ele>625.2453</ele><time>2026-04-03T19:41:01.000Z</time></trkpt>
        <trkpt lat="28.826532" lon="105.305577"><ele>626.8203</ele><time>2026-04-03T19:41:06.000Z</time></trkpt>
        <trkpt lat="28.826537" lon="105.30563"><ele>625.99835</ele><time>2026-04-03T19:41:09.000Z</time></trkpt>
        <trkpt lat="28.826558" lon="105.305688"><ele>625.31476</ele><time>2026-04-03T19:41:13.000Z</time></trkpt>
        <trkpt lat="28.82658" lon="105.305745"><ele>624.7638</ele><time>2026-04-03T19:41:17.000Z</time></trkpt>
        <trkpt lat="28.826607" lon="105.30579"><ele>623.3443</ele><time>2026-04-03T19:41:21.000Z</time></trkpt>
        <trkpt lat="28.826647" lon="105.305819"><ele>621.491</ele><time>2026-04-03T19:41:25.000Z</time></trkpt>
        <trkpt lat="28.826689" lon="105.305839"><ele>619.8138</ele><time>2026-04-03T19:41:29.000Z</time></trkpt>
        <trkpt lat="28.82674" lon="105.305847"><ele>621.3425</ele><time>2026-04-03T19:41:34.000Z</time></trkpt>
        <trkpt lat="28.826785" lon="105.305859"><ele>621.39453</ele><time>2026-04-03T19:41:38.000Z</time></trkpt>
        <trkpt lat="28.826841" lon="105.305864"><ele>619.68463</ele><time>2026-04-03T19:41:43.000Z</time></trkpt>
        <trkpt lat="28.826887" lon="105.30589"><ele>620.5282</ele><time>2026-04-03T19:41:47.000Z</time></trkpt>
        <trkpt lat="28.826916" lon="105.305947"><ele>622.8356</ele><time>2026-04-03T19:41:51.000Z</time></trkpt>
        <trkpt lat="28.826928" lon="105.306009"><ele>623.31525</ele><time>2026-04-03T19:41:55.000Z</time></trkpt>
        <trkpt lat="28.826929" lon="105.306068"><ele>622.7664</ele><time>2026-04-03T19:41:59.000Z</time></trkpt>
        <trkpt lat="28.826903" lon="105.306121"><ele>623.19244</ele><time>2026-04-03T19:42:03.000Z</time></trkpt>
        <trkpt lat="28.826871" lon="105.306163"><ele>623.80743</ele><time>2026-04-03T19:42:07.000Z</time></trkpt>
        <trkpt lat="28.826855" lon="105.306216"><ele>623.95825</ele><time>2026-04-03T19:42:11.000Z</time></trkpt>
        <trkpt lat="28.826821" lon="105.306254"><ele>624.2467</ele><time>2026-04-03T19:42:15.000Z</time></trkpt>
        <trkpt lat="28.82681" lon="105.306307"><ele>624.51544</ele><time>2026-04-03T19:42:19.000Z</time></trkpt>
        <trkpt lat="28.82681" lon="105.306365"><ele>624.6416</ele><time>2026-04-03T19:42:23.000Z</time></trkpt>
        <trkpt lat="28.826811" lon="105.30642"><ele>624.41815</ele><time>2026-04-03T19:42:28.000Z</time></trkpt>
        <trkpt lat="28.826817" lon="105.30648"><ele>624.1208</ele><time>2026-04-03T19:42:32.000Z</time></trkpt>
        <trkpt lat="28.826827" lon="105.306531"><ele>623.8108</ele><time>2026-04-03T19:42:36.000Z</time></trkpt>
        <trkpt lat="28.826826" lon="105.306588"><ele>624.2064</ele><time>2026-04-03T19:42:40.000Z</time></trkpt>
        <trkpt lat="28.826831" lon="105.306642"><ele>623.506</ele><time>2026-04-03T19:42:44.000Z</time></trkpt>
        <trkpt lat="28.826835" lon="105.306699"><ele>623.33307</ele><time>2026-04-03T19:42:48.000Z</time></trkpt>
        <trkpt lat="28.826842" lon="105.306751"><ele>623.288</ele><time>2026-04-03T19:42:52.000Z</time></trkpt>
        <trkpt lat="28.826859" lon="105.306803"><ele>623.0993</ele><time>2026-04-03T19:42:56.000Z</time></trkpt>
        <trkpt lat="28.826885" lon="105.306848"><ele>619.623</ele><time>2026-04-03T19:43:01.000Z</time></trkpt>
        <trkpt lat="28.826921" lon="105.306897"><ele>620.1273</ele><time>2026-04-03T19:43:05.000Z</time></trkpt>
        <trkpt lat="28.826957" lon="105.306938"><ele>621.2378</ele><time>2026-04-03T19:43:08.000Z</time></trkpt>
        <trkpt lat="28.826998" lon="105.306971"><ele>621.7049</ele><time>2026-04-03T19:43:12.000Z</time></trkpt>
        <trkpt lat="28.827049" lon="105.306992"><ele>621.3279</ele><time>2026-04-03T19:43:18.000Z</time></trkpt>
        <trkpt lat="28.827093" lon="105.307007"><ele>622.6938</ele><time>2026-04-03T19:43:23.000Z</time></trkpt>
        <trkpt lat="28.827135" lon="105.307035"><ele>624.42993</ele><time>2026-04-03T19:43:28.000Z</time></trkpt>
        <trkpt lat="28.827177" lon="105.30706"><ele>624.72577</ele><time>2026-04-03T19:43:33.000Z</time></trkpt>
        <trkpt lat="28.827212" lon="105.30711"><ele>625.61633</ele><time>2026-04-03T19:43:38.000Z</time></trkpt>
        <trkpt lat="28.82721" lon="105.307168"><ele>626.21094</ele><time>2026-04-03T19:43:42.000Z</time></trkpt>
        <trkpt lat="28.82719" lon="105.307224"><ele>625.5974</ele><time>2026-04-03T19:43:47.000Z</time></trkpt>
        <trkpt lat="28.827153" lon="105.307263"><ele>623.99585</ele><time>2026-04-03T19:43:52.000Z</time></trkpt>
        <trkpt lat="28.827117" lon="105.307304"><ele>622.2822</ele><time>2026-04-03T19:43:57.000Z</time></trkpt>
        <trkpt lat="28.827075" lon="105.307331"><ele>620.9626</ele><time>2026-04-03T19:44:01.000Z</time></trkpt>
        <trkpt lat="28.827025" lon="105.307368"><ele>619.3874</ele><time>2026-04-03T19:44:07.000Z</time></trkpt>
        <trkpt lat="28.826983" lon="105.307403"><ele>619.2893</ele><time>2026-04-03T19:44:11.000Z</time></trkpt>
        <trkpt lat="28.826946" lon="105.307444"><ele>617.31213</ele><time>2026-04-03T19:44:17.000Z</time></trkpt>
        <trkpt lat="28.82694" lon="105.3075"><ele>616.70465</ele><time>2026-04-03T19:44:21.000Z</time></trkpt>
        <trkpt lat="28.82692" lon="105.307547"><ele>616.70703</ele><time>2026-04-03T19:44:26.000Z</time></trkpt>
        <trkpt lat="28.826907" lon="105.307601"><ele>616.76825</ele><time>2026-04-03T19:44:31.000Z</time></trkpt>
        <trkpt lat="28.826914" lon="105.307656"><ele>615.60205</ele><time>2026-04-03T19:44:37.000Z</time></trkpt>
        <trkpt lat="28.826921" lon="105.307713"><ele>615.5966</ele><time>2026-04-03T19:44:41.000Z</time></trkpt>
        <trkpt lat="28.826941" lon="105.307763"><ele>615.0346</ele><time>2026-04-03T19:44:45.000Z</time></trkpt>
        <trkpt lat="28.826965" lon="105.307814"><ele>615.0467</ele><time>2026-04-03T19:44:49.000Z</time></trkpt>
        <trkpt lat="28.826993" lon="105.307865"><ele>614.75146</ele><time>2026-04-03T19:44:54.000Z</time></trkpt>
        <trkpt lat="28.827009" lon="105.30792"><ele>614.5693</ele><time>2026-04-03T19:44:58.000Z</time></trkpt>
        <trkpt lat="28.827038" lon="105.307969"><ele>614.46387</ele><time>2026-04-03T19:45:02.000Z</time></trkpt>
        <trkpt lat="28.827055" lon="105.30802"><ele>613.56104</ele><time>2026-04-03T19:45:07.000Z</time></trkpt>
        <trkpt lat="28.827077" lon="105.308071"><ele>614.64514</ele><time>2026-04-03T19:45:12.000Z</time></trkpt>
        <trkpt lat="28.827105" lon="105.308114"><ele>614.65247</ele><time>2026-04-03T19:45:16.000Z</time></trkpt>
        <trkpt lat="28.827148" lon="105.308159"><ele>614.7814</ele><time>2026-04-03T19:45:21.000Z</time></trkpt>
        <trkpt lat="28.827181" lon="105.308206"><ele>615.4037</ele><time>2026-04-03T19:45:26.000Z</time></trkpt>
        <trkpt lat="28.82723" lon="105.308229"><ele>616.1809</ele><time>2026-04-03T19:45:32.000Z</time></trkpt>
        <trkpt lat="28.827278" lon="105.308255"><ele>616.1407</ele><time>2026-04-03T19:45:36.000Z</time></trkpt>
        <trkpt lat="28.827326" lon="105.308291"><ele>615.6177</ele><time>2026-04-03T19:45:41.000Z</time></trkpt>
        <trkpt lat="28.827384" lon="105.308298"><ele>615.4809</ele><time>2026-04-03T19:45:46.000Z</time></trkpt>
        <trkpt lat="28.827429" lon="105.308296"><ele>614.727</ele><time>2026-04-03T19:45:50.000Z</time></trkpt>
        <trkpt lat="28.827484" lon="105.308296"><ele>614.682</ele><time>2026-04-03T19:45:54.000Z</time></trkpt>
        <trkpt lat="28.82753" lon="105.308297"><ele>614.3199</ele><time>2026-04-03T19:45:59.000Z</time></trkpt>
        <trkpt lat="28.82758" lon="105.308309"><ele>614.5873</ele><time>2026-04-03T19:46:03.000Z</time></trkpt>
        <trkpt lat="28.827616" lon="105.308359"><ele>614.585</ele><time>2026-04-03T19:46:07.000Z</time></trkpt>
        <trkpt lat="28.827645" lon="105.308407"><ele>615.40906</ele><time>2026-04-03T19:46:11.000Z</time></trkpt>
        <trkpt lat="28.827641" lon="105.30846"><ele>616.9713</ele><time>2026-04-03T19:46:15.000Z</time></trkpt>
        <trkpt lat="28.827619" lon="105.308506"><ele>617.71716</ele><time>2026-04-03T19:46:19.000Z</time></trkpt>
        <trkpt lat="28.827608" lon="105.308559"><ele>617.5336</ele><time>2026-04-03T19:46:23.000Z</time></trkpt>
        <trkpt lat="28.827588" lon="105.308613"><ele>618.7495</ele><time>2026-04-03T19:46:27.000Z</time></trkpt>
        <trkpt lat="28.827567" lon="105.308666"><ele>619.6031</ele><time>2026-04-03T19:46:31.000Z</time></trkpt>
        <trkpt lat="28.827562" lon="105.308724"><ele>619.44305</ele><time>2026-04-03T19:46:37.000Z</time></trkpt>
        <trkpt lat="28.82756" lon="105.308786"><ele>618.6985</ele><time>2026-04-03T19:46:43.000Z</time></trkpt>
        <trkpt lat="28.82757" lon="105.308853"><ele>618.3048</ele><time>2026-04-03T19:46:49.000Z</time></trkpt>
        <trkpt lat="28.827567" lon="105.308911"><ele>618.9342</ele><time>2026-04-03T19:46:53.000Z</time></trkpt>
        <trkpt lat="28.827568" lon="105.308964"><ele>618.7231</ele><time>2026-04-03T19:46:58.000Z</time></trkpt>
        <trkpt lat="28.827555" lon="105.309014"><ele>619.4517</ele><time>2026-04-03T19:47:03.000Z</time></trkpt>
        <trkpt lat="28.82752" lon="105.309049"><ele>618.82056</ele><time>2026-04-03T19:47:12.000Z</time></trkpt>
        <trkpt lat="28.827469" lon="105.309059"><ele>618.45496</ele><time>2026-04-03T19:47:19.000Z</time></trkpt>
        <trkpt lat="28.827419" lon="105.309071"><ele>618.8439</ele><time>2026-04-03T19:47:24.000Z</time></trkpt>
        <trkpt lat="28.827371" lon="105.309076"><ele>619.46906</ele><time>2026-04-03T19:47:29.000Z</time></trkpt>
        <trkpt lat="28.827317" lon="105.309081"><ele>621.3082</ele><time>2026-04-03T19:47:36.000Z</time></trkpt>
        <trkpt lat="28.827294" lon="105.309125"><ele>622.0119</ele><time>2026-04-03T19:47:40.000Z</time></trkpt>
        <trkpt lat="28.827285" lon="105.309189"><ele>622.17615</ele><time>2026-04-03T19:47:47.000Z</time></trkpt>
        <trkpt lat="28.827289" lon="105.309252"><ele>621.13416</ele><time>2026-04-03T19:47:53.000Z</time></trkpt>
        <trkpt lat="28.827293" lon="105.30931"><ele>622.02155</ele><time>2026-04-03T19:47:58.000Z</time></trkpt>
        <trkpt lat="28.827285" lon="105.309367"><ele>622.1605</ele><time>2026-04-03T19:48:03.000Z</time></trkpt>
        <trkpt lat="28.82729" lon="105.309423"><ele>622.0825</ele><time>2026-04-03T19:48:10.000Z</time></trkpt>
        <trkpt lat="28.827303" lon="105.309479"><ele>623.5548</ele><time>2026-04-03T19:48:14.000Z</time></trkpt>
        <trkpt lat="28.827309" lon="105.309534"><ele>622.96606</ele><time>2026-04-03T19:48:19.000Z</time></trkpt>
        <trkpt lat="28.827313" lon="105.309594"><ele>623.0346</ele><time>2026-04-03T19:48:24.000Z</time></trkpt>
        <trkpt lat="28.827326" lon="105.309645"><ele>621.60944</ele><time>2026-04-03T19:48:29.000Z</time></trkpt>
        <trkpt lat="28.827352" lon="105.309706"><ele>622.1016</ele><time>2026-04-03T19:48:34.000Z</time></trkpt>
        <trkpt lat="28.827371" lon="105.309759"><ele>621.12</ele><time>2026-04-03T19:48:37.000Z</time></trkpt>
        <trkpt lat="28.827387" lon="105.30981"><ele>622.21454</ele><time>2026-04-03T19:48:41.000Z</time></trkpt>
        <trkpt lat="28.827403" lon="105.309863"><ele>622.56824</ele><time>2026-04-03T19:48:47.000Z</time></trkpt>
        <trkpt lat="28.827431" lon="105.309913"><ele>623.26465</ele><time>2026-04-03T19:48:51.000Z</time></trkpt>
        <trkpt lat="28.827473" lon="105.309957"><ele>622.6896</ele><time>2026-04-03T19:48:55.000Z</time></trkpt>
        <trkpt lat="28.827503" lon="105.310004"><ele>623.23645</ele><time>2026-04-03T19:49:00.000Z</time></trkpt>
        <trkpt lat="28.82753" lon="105.310048"><ele>622.8618</ele><time>2026-04-03T19:49:04.000Z</time></trkpt>
        <trkpt lat="28.827559" lon="105.310104"><ele>623.0116</ele><time>2026-04-03T19:49:09.000Z</time></trkpt>
        <trkpt lat="28.827559" lon="105.310159"><ele>623.13403</ele><time>2026-04-03T19:49:15.000Z</time></trkpt>
        <trkpt lat="28.827541" lon="105.310208"><ele>623.6145</ele><time>2026-04-03T19:49:20.000Z</time></trkpt>
        <trkpt lat="28.827523" lon="105.310255"><ele>624.2623</ele><time>2026-04-03T19:49:24.000Z</time></trkpt>
        <trkpt lat="28.827502" lon="105.310304"><ele>624.4348</ele><time>2026-04-03T19:49:30.000Z</time></trkpt>
        <trkpt lat="28.827487" lon="105.310365"><ele>625.2013</ele><time>2026-04-03T19:49:36.000Z</time></trkpt>
        <trkpt lat="28.827453" lon="105.310413"><ele>627.73987</ele><time>2026-04-03T19:49:42.000Z</time></trkpt>
        <trkpt lat="28.827439" lon="105.310464"><ele>628.0115</ele><time>2026-04-03T19:49:47.000Z</time></trkpt>
        <trkpt lat="28.827413" lon="105.310518"><ele>627.26556</ele><time>2026-04-03T19:49:54.000Z</time></trkpt>
        <trkpt lat="28.827395" lon="105.310573"><ele>627.39343</ele><time>2026-04-03T19:50:01.000Z</time></trkpt>
        <trkpt lat="28.827369" lon="105.310621"><ele>627.78864</ele><time>2026-04-03T19:50:06.000Z</time></trkpt>
        <trkpt lat="28.827348" lon="105.310671"><ele>628.4169</ele><time>2026-04-03T19:50:13.000Z</time></trkpt>
        <trkpt lat="28.827323" lon="105.310715"><ele>627.8312</ele><time>2026-04-03T19:50:18.000Z</time></trkpt>
        <trkpt lat="28.827313" lon="105.310771"><ele>628.5829</ele><time>2026-04-03T19:50:25.000Z</time></trkpt>
        <trkpt lat="28.8273" lon="105.310828"><ele>629.17065</ele><time>2026-04-03T19:50:32.000Z</time></trkpt>
        <trkpt lat="28.827296" lon="105.310889"><ele>629.8709</ele><time>2026-04-03T19:50:38.000Z</time></trkpt>
        <trkpt lat="28.827329" lon="105.310944"><ele>629.98773</ele><time>2026-04-03T19:50:42.000Z</time></trkpt>
        <trkpt lat="28.827364" lon="105.310985"><ele>630.45355</ele><time>2026-04-03T19:50:47.000Z</time></trkpt>
        <trkpt lat="28.82741" lon="105.311017"><ele>630.6838</ele><time>2026-04-03T19:50:52.000Z</time></trkpt>
        <trkpt lat="28.827442" lon="105.311072"><ele>631.77277</ele><time>2026-04-03T19:50:57.000Z</time></trkpt>
        <trkpt lat="28.827474" lon="105.311118"><ele>632.0901</ele><time>2026-04-03T19:51:01.000Z</time></trkpt>
        <trkpt lat="28.827505" lon="105.311158"><ele>633.6199</ele><time>2026-04-03T19:51:05.000Z</time></trkpt>
        <trkpt lat="28.827532" lon="105.311204"><ele>635.10095</ele><time>2026-04-03T19:51:09.000Z</time></trkpt>
        <trkpt lat="28.827565" lon="105.311242"><ele>634.9856</ele><time>2026-04-03T19:51:13.000Z</time></trkpt>
        <trkpt lat="28.827609" lon="105.311277"><ele>635.4735</ele><time>2026-04-03T19:51:17.000Z</time></trkpt>
        <trkpt lat="28.827643" lon="105.311316"><ele>635.45844</ele><time>2026-04-03T19:51:21.000Z</time></trkpt>
        <trkpt lat="28.827691" lon="105.311344"><ele>634.2333</ele><time>2026-04-03T19:51:26.000Z</time></trkpt>
        <trkpt lat="28.827736" lon="105.311381"><ele>632.5305</ele><time>2026-04-03T19:51:30.000Z</time></trkpt>
        <trkpt lat="28.827775" lon="105.311419"><ele>632.1241</ele><time>2026-04-03T19:51:35.000Z</time></trkpt>
        <trkpt lat="28.827811" lon="105.311453"><ele>632.1815</ele><time>2026-04-03T19:51:38.000Z</time></trkpt>
        <trkpt lat="28.827863" lon="105.31146"><ele>632.1662</ele><time>2026-04-03T19:51:42.000Z</time></trkpt>
        <trkpt lat="28.82791" lon="105.311458"><ele>632.1945</ele><time>2026-04-03T19:51:46.000Z</time></trkpt>
        <trkpt lat="28.827959" lon="105.311453"><ele>632.46594</ele><time>2026-04-03T19:51:50.000Z</time></trkpt>
        <trkpt lat="28.82801" lon="105.311457"><ele>632.30457</ele><time>2026-04-03T19:51:55.000Z</time></trkpt>
        <trkpt lat="28.828059" lon="105.311478"><ele>632.7047</ele><time>2026-04-03T19:52:01.000Z</time></trkpt>
        <trkpt lat="28.828115" lon="105.311478"><ele>632.5857</ele><time>2026-04-03T19:52:06.000Z</time></trkpt>
        <trkpt lat="28.828163" lon="105.311488"><ele>632.50275</ele><time>2026-04-03T19:52:10.000Z</time></trkpt>
        <trkpt lat="28.828197" lon="105.311529"><ele>633.2534</ele><time>2026-04-03T19:52:18.000Z</time></trkpt>
        <trkpt lat="28.828224" lon="105.311486"><ele>634.8276</ele><time>2026-04-03T19:52:24.000Z</time></trkpt>
        <trkpt lat="28.828249" lon="105.311537"><ele>634.1246</ele><time>2026-04-03T19:52:43.000Z</time></trkpt>
        <trkpt lat="28.828296" lon="105.311584"><ele>633.6401</ele><time>2026-04-03T19:52:46.000Z</time></trkpt>
        <trkpt lat="28.82835" lon="105.311576"><ele>633.71326</ele><time>2026-04-03T19:52:49.000Z</time></trkpt>
        <trkpt lat="28.828389" lon="105.311544"><ele>633.21643</ele><time>2026-04-03T19:52:52.000Z</time></trkpt>
        <trkpt lat="28.828401" lon="105.311485"><ele>635.0039</ele><time>2026-04-03T19:52:57.000Z</time></trkpt>
        <trkpt lat="28.828361" lon="105.311519"><ele>634.11676</ele><time>2026-04-03T19:53:04.000Z</time></trkpt>
        <trkpt lat="28.828333" lon="105.311607"><ele>633.9451</ele><time>2026-04-03T19:53:07.000Z</time></trkpt>
        <trkpt lat="28.828352" lon="105.311655"><ele>634.819</ele><time>2026-04-03T19:53:14.000Z</time></trkpt>
        <trkpt lat="28.828321" lon="105.311609"><ele>634.2111</ele><time>2026-04-03T19:53:16.000Z</time></trkpt>
        <trkpt lat="28.828306" lon="105.311548"><ele>633.65814</ele><time>2026-04-03T19:53:22.000Z</time></trkpt>
        <trkpt lat="28.828308" lon="105.31161"><ele>633.3136</ele><time>2026-04-03T19:53:38.000Z</time></trkpt>
        <trkpt lat="28.828272" lon="105.311653"><ele>634.05176</ele><time>2026-04-03T19:55:33.000Z</time></trkpt>
        <trkpt lat="28.82831" lon="105.31162"><ele>635.31055</ele><time>2026-04-03T19:56:36.000Z</time></trkpt>
        <trkpt lat="28.828298" lon="105.311682"><ele>632.9404</ele><time>2026-04-03T19:57:42.000Z</time></trkpt>
        <trkpt lat="28.828309" lon="105.311621"><ele>633.0791</ele><time>2026-04-03T19:58:44.000Z</time></trkpt>
        <trkpt lat="28.828318" lon="105.31157"><ele>633.53564</ele><time>2026-04-03T19:58:57.000Z</time></trkpt>
        <trkpt lat="28.828349" lon="105.311511"><ele>634.0409</ele><time>2026-04-03T19:59:05.000Z</time></trkpt>
        <trkpt lat="28.828386" lon="105.311479"><ele>634.22974</ele><time>2026-04-03T19:59:08.000Z</time></trkpt>
        <trkpt lat="28.828371" lon="105.311544"><ele>634.23413</ele><time>2026-04-03T19:59:14.000Z</time></trkpt>
        <trkpt lat="28.828426" lon="105.311534"><ele>633.9434</ele><time>2026-04-03T19:59:18.000Z</time></trkpt>
        <trkpt lat="28.82847" lon="105.31156"><ele>634.0911</ele><time>2026-04-03T19:59:19.000Z</time></trkpt>
        <trkpt lat="28.828421" lon="105.311573"><ele>634.8953</ele><time>2026-04-03T19:59:22.000Z</time></trkpt>
        <trkpt lat="28.82845" lon="105.311643"><ele>634.49677</ele><time>2026-04-03T19:59:30.000Z</time></trkpt>
        <trkpt lat="28.828425" lon="105.311585"><ele>634.679</ele><time>2026-04-03T19:59:33.000Z</time></trkpt>
        <trkpt lat="28.828438" lon="105.311535"><ele>634.3817</ele><time>2026-04-03T19:59:37.000Z</time></trkpt>
        <trkpt lat="28.828472" lon="105.311497"><ele>634.63727</ele><time>2026-04-03T19:59:41.000Z</time></trkpt>
        <trkpt lat="28.828524" lon="105.311505"><ele>634.3369</ele><time>2026-04-03T20:00:16.000Z</time></trkpt>
        <trkpt lat="28.828565" lon="105.311544"><ele>633.6996</ele><time>2026-04-03T20:00:20.000Z</time></trkpt>
        <trkpt lat="28.828613" lon="105.311569"><ele>634.16284</ele><time>2026-04-03T20:00:24.000Z</time></trkpt>
        <trkpt lat="28.828657" lon="105.311598"><ele>634.1015</ele><time>2026-04-03T20:00:28.000Z</time></trkpt>
        <trkpt lat="28.828703" lon="105.311629"><ele>633.86444</ele><time>2026-04-03T20:00:32.000Z</time></trkpt>
        <trkpt lat="28.828744" lon="105.311654"><ele>633.62085</ele><time>2026-04-03T20:00:35.000Z</time></trkpt>
        <trkpt lat="28.828794" lon="105.31168"><ele>633.6627</ele><time>2026-04-03T20:01:10.000Z</time></trkpt>
        <trkpt lat="28.828833" lon="105.311719"><ele>633.447</ele><time>2026-04-03T20:01:14.000Z</time></trkpt>
        <trkpt lat="28.828877" lon="105.311736"><ele>634.0021</ele><time>2026-04-03T20:01:18.000Z</time></trkpt>
        <trkpt lat="28.828923" lon="105.311778"><ele>633.4845</ele><time>2026-04-03T20:01:23.000Z</time></trkpt>
        <trkpt lat="28.828961" lon="105.311823"><ele>633.1437</ele><time>2026-04-03T20:01:27.000Z</time></trkpt>
        <trkpt lat="28.828997" lon="105.311868"><ele>633.0805</ele><time>2026-04-03T20:01:31.000Z</time></trkpt>
        <trkpt lat="28.829029" lon="105.311908"><ele>633.15784</ele><time>2026-04-03T20:01:37.000Z</time></trkpt>
        <trkpt lat="28.829072" lon="105.311927"><ele>632.76526</ele><time>2026-04-03T20:02:37.000Z</time></trkpt>
        <trkpt lat="28.829114" lon="105.31195"><ele>632.79083</ele><time>2026-04-03T20:04:00.000Z</time></trkpt>
        <trkpt lat="28.829097" lon="105.312003"><ele>631.9982</ele><time>2026-04-03T20:06:24.000Z</time></trkpt>
        <trkpt lat="28.829085" lon="105.311942"><ele>631.118</ele><time>2026-04-03T20:06:48.000Z</time></trkpt>
        <trkpt lat="28.829061" lon="105.311898"><ele>632.0654</ele><time>2026-04-03T20:06:52.000Z</time></trkpt>
        <trkpt lat="28.829063" lon="105.311956"><ele>633.6901</ele><time>2026-04-03T20:07:03.000Z</time></trkpt>
        <trkpt lat="28.829085" lon="105.312008"><ele>632.5939</ele><time>2026-04-03T20:07:07.000Z</time></trkpt>
        <trkpt lat="28.829123" lon="105.312077"><ele>633.87164</ele><time>2026-04-03T20:25:14.000Z</time></trkpt>
        <trkpt lat="28.829103" lon="105.31202"><ele>634.83453</ele><time>2026-04-03T20:29:03.000Z</time></trkpt>
        <trkpt lat="28.829104" lon="105.311958"><ele>633.37756</ele><time>2026-04-03T20:29:15.000Z</time></trkpt>
        <trkpt lat="28.829092" lon="105.311908"><ele>632.82385</ele><time>2026-04-03T20:29:27.000Z</time></trkpt>
        <trkpt lat="28.829095" lon="105.311961"><ele>632.8333</ele><time>2026-04-03T20:29:54.000Z</time></trkpt>
        <trkpt lat="28.829097" lon="105.312025"><ele>633.09045</ele><time>2026-04-03T20:30:01.000Z</time></trkpt>
        <trkpt lat="28.829076" lon="105.312074"><ele>634.4457</ele><time>2026-04-03T20:30:08.000Z</time></trkpt>
        <trkpt lat="28.829062" lon="105.312131"><ele>634.3669</ele><time>2026-04-03T20:30:14.000Z</time></trkpt>
        <trkpt lat="28.829046" lon="105.312185"><ele>635.29034</ele><time>2026-04-03T20:30:20.000Z</time></trkpt>
        <trkpt lat="28.829032" lon="105.312241"><ele>635.5951</ele><time>2026-04-03T20:30:25.000Z</time></trkpt>
        <trkpt lat="28.829" lon="105.312285"><ele>635.4468</ele><time>2026-04-03T20:30:30.000Z</time></trkpt>
        <trkpt lat="28.828965" lon="105.312322"><ele>635.1129</ele><time>2026-04-03T20:30:35.000Z</time></trkpt>
        <trkpt lat="28.828951" lon="105.312374"><ele>634.9696</ele><time>2026-04-03T20:30:46.000Z</time></trkpt>
        <trkpt lat="28.828966" lon="105.312432"><ele>633.42725</ele><time>2026-04-03T20:30:54.000Z</time></trkpt>
        <trkpt lat="28.828986" lon="105.312492"><ele>632.74005</ele><time>2026-04-03T20:30:59.000Z</time></trkpt>
        <trkpt lat="28.829023" lon="105.312553"><ele>632.0354</ele><time>2026-04-03T20:31:04.000Z</time></trkpt>
        <trkpt lat="28.829052" lon="105.312592"><ele>632.1364</ele><time>2026-04-03T20:31:08.000Z</time></trkpt>
        <trkpt lat="28.829074" lon="105.312648"><ele>631.7035</ele><time>2026-04-03T20:31:15.000Z</time></trkpt>
        <trkpt lat="28.829076" lon="105.312709"><ele>630.00903</ele><time>2026-04-03T20:31:24.000Z</time></trkpt>
        <trkpt lat="28.829101" lon="105.31276"><ele>629.89026</ele><time>2026-04-03T20:31:31.000Z</time></trkpt>
        <trkpt lat="28.829137" lon="105.312801"><ele>629.4411</ele><time>2026-04-03T20:31:37.000Z</time></trkpt>
        <trkpt lat="28.829168" lon="105.312849"><ele>630.42737</ele><time>2026-04-03T20:31:42.000Z</time></trkpt>
        <trkpt lat="28.829191" lon="105.312895"><ele>629.8527</ele><time>2026-04-03T20:31:47.000Z</time></trkpt>
        <trkpt lat="28.829227" lon="105.312931"><ele>629.13794</ele><time>2026-04-03T20:31:51.000Z</time></trkpt>
        <trkpt lat="28.829258" lon="105.312985"><ele>626.80817</ele><time>2026-04-03T20:31:56.000Z</time></trkpt>
        <trkpt lat="28.8293" lon="105.313018"><ele>626.09906</ele><time>2026-04-03T20:32:00.000Z</time></trkpt>
        <trkpt lat="28.829335" lon="105.313059"><ele>624.4901</ele><time>2026-04-03T20:32:05.000Z</time></trkpt>
        <trkpt lat="28.829356" lon="105.313108"><ele>622.80383</ele><time>2026-04-03T20:32:10.000Z</time></trkpt>
        <trkpt lat="28.829368" lon="105.313167"><ele>621.76843</ele><time>2026-04-03T20:32:16.000Z</time></trkpt>
        <trkpt lat="28.829388" lon="105.313216"><ele>620.8599</ele><time>2026-04-03T20:32:21.000Z</time></trkpt>
        <trkpt lat="28.82941" lon="105.313269"><ele>619.1084</ele><time>2026-04-03T20:32:27.000Z</time></trkpt>
        <trkpt lat="28.829446" lon="105.313307"><ele>618.326</ele><time>2026-04-03T20:32:33.000Z</time></trkpt>
        <trkpt lat="28.829489" lon="105.31334"><ele>618.9721</ele><time>2026-04-03T20:32:37.000Z</time></trkpt>
        <trkpt lat="28.829533" lon="105.313361"><ele>620.3488</ele><time>2026-04-03T20:32:46.000Z</time></trkpt>
        <trkpt lat="28.829545" lon="105.313413"><ele>620.5742</ele><time>2026-04-03T20:32:52.000Z</time></trkpt>
        <trkpt lat="28.829524" lon="105.313472"><ele>621.85266</ele><time>2026-04-03T20:32:57.000Z</time></trkpt>
        <trkpt lat="28.829496" lon="105.313523"><ele>621.82446</ele><time>2026-04-03T20:33:02.000Z</time></trkpt>
        <trkpt lat="28.829468" lon="105.313568"><ele>622.3871</ele><time>2026-04-03T20:33:06.000Z</time></trkpt>
        <trkpt lat="28.82944" lon="105.313609"><ele>622.66125</ele><time>2026-04-03T20:33:10.000Z</time></trkpt>
        <trkpt lat="28.829402" lon="105.31366"><ele>622.4324</ele><time>2026-04-03T20:33:14.000Z</time></trkpt>
        <trkpt lat="28.829368" lon="105.31371"><ele>623.6017</ele><time>2026-04-03T20:33:19.000Z</time></trkpt>
        <trkpt lat="28.829342" lon="105.313766"><ele>623.09216</ele><time>2026-04-03T20:33:23.000Z</time></trkpt>
        <trkpt lat="28.829316" lon="105.313817"><ele>621.37866</ele><time>2026-04-03T20:33:28.000Z</time></trkpt>
        <trkpt lat="28.829291" lon="105.313866"><ele>621.0585</ele><time>2026-04-03T20:33:33.000Z</time></trkpt>
        <trkpt lat="28.829271" lon="105.313919"><ele>620.2799</ele><time>2026-04-03T20:33:38.000Z</time></trkpt>
        <trkpt lat="28.829249" lon="105.313967"><ele>619.8917</ele><time>2026-04-03T20:33:42.000Z</time></trkpt>
        <trkpt lat="28.82922" lon="105.314012"><ele>618.6238</ele><time>2026-04-03T20:33:47.000Z</time></trkpt>
        <trkpt lat="28.829172" lon="105.314046"><ele>617.3618</ele><time>2026-04-03T20:33:52.000Z</time></trkpt>
        <trkpt lat="28.82913" lon="105.314075"><ele>616.0177</ele><time>2026-04-03T20:33:57.000Z</time></trkpt>
        <trkpt lat="28.82908" lon="105.3141"><ele>616.66583</ele><time>2026-04-03T20:34:02.000Z</time></trkpt>
        <trkpt lat="28.829053" lon="105.314144"><ele>616.09906</ele><time>2026-04-03T20:34:08.000Z</time></trkpt>
        <trkpt lat="28.82903" lon="105.314193"><ele>615.998</ele><time>2026-04-03T20:34:13.000Z</time></trkpt>
        <trkpt lat="28.829015" lon="105.314242"><ele>615.54956</ele><time>2026-04-03T20:34:17.000Z</time></trkpt>
        <trkpt lat="28.829031" lon="105.314295"><ele>614.69275</ele><time>2026-04-03T20:34:24.000Z</time></trkpt>
        <trkpt lat="28.829043" lon="105.314349"><ele>612.8263</ele><time>2026-04-03T20:34:30.000Z</time></trkpt>
        <trkpt lat="28.829048" lon="105.314415"><ele>612.953</ele><time>2026-04-03T20:34:35.000Z</time></trkpt>
        <trkpt lat="28.829067" lon="105.314474"><ele>611.8999</ele><time>2026-04-03T20:34:40.000Z</time></trkpt>
        <trkpt lat="28.82908" lon="105.314529"><ele>612.3968</ele><time>2026-04-03T20:34:45.000Z</time></trkpt>
        <trkpt lat="28.829108" lon="105.314582"><ele>612.07715</ele><time>2026-04-03T20:34:49.000Z</time></trkpt>
        <trkpt lat="28.829095" lon="105.314639"><ele>612.56085</ele><time>2026-04-03T20:34:55.000Z</time></trkpt>
        <trkpt lat="28.8291" lon="105.314699"><ele>612.53784</ele><time>2026-04-03T20:34:59.000Z</time></trkpt>
        <trkpt lat="28.829096" lon="105.314752"><ele>611.69183</ele><time>2026-04-03T20:35:03.000Z</time></trkpt>
        <trkpt lat="28.829097" lon="105.314805"><ele>611.3094</ele><time>2026-04-03T20:35:08.000Z</time></trkpt>
        <trkpt lat="28.829094" lon="105.31486"><ele>610.4213</ele><time>2026-04-03T20:35:12.000Z</time></trkpt>
        <trkpt lat="28.829067" lon="105.314917"><ele>610.25323</ele><time>2026-04-03T20:35:17.000Z</time></trkpt>
        <trkpt lat="28.829022" lon="105.314935"><ele>609.8085</ele><time>2026-04-03T20:35:22.000Z</time></trkpt>
        <trkpt lat="28.828996" lon="105.314989"><ele>610.5317</ele><time>2026-04-03T20:35:27.000Z</time></trkpt>
        <trkpt lat="28.828984" lon="105.315038"><ele>611.43665</ele><time>2026-04-03T20:35:31.000Z</time></trkpt>
        <trkpt lat="28.829002" lon="105.315089"><ele>612.68494</ele><time>2026-04-03T20:35:36.000Z</time></trkpt>
        <trkpt lat="28.829026" lon="105.315141"><ele>611.1691</ele><time>2026-04-03T20:35:41.000Z</time></trkpt>
        <trkpt lat="28.829039" lon="105.315205"><ele>609.928</ele><time>2026-04-03T20:35:46.000Z</time></trkpt>
        <trkpt lat="28.829054" lon="105.31526"><ele>609.3296</ele><time>2026-04-03T20:35:50.000Z</time></trkpt>
        <trkpt lat="28.82907" lon="105.315316"><ele>609.4197</ele><time>2026-04-03T20:35:54.000Z</time></trkpt>
        <trkpt lat="28.829088" lon="105.315378"><ele>610.1435</ele><time>2026-04-03T20:35:59.000Z</time></trkpt>
        <trkpt lat="28.829072" lon="105.315437"><ele>610.2582</ele><time>2026-04-03T20:36:03.000Z</time></trkpt>
        <trkpt lat="28.829049" lon="105.315483"><ele>611.51434</ele><time>2026-04-03T20:36:08.000Z</time></trkpt>
        <trkpt lat="28.829019" lon="105.315533"><ele>612.52606</ele><time>2026-04-03T20:36:13.000Z</time></trkpt>
        <trkpt lat="28.828977" lon="105.315573"><ele>612.53564</ele><time>2026-04-03T20:36:19.000Z</time></trkpt>
        <trkpt lat="28.828962" lon="105.315624"><ele>612.2832</ele><time>2026-04-03T20:36:23.000Z</time></trkpt>
        <trkpt lat="28.828935" lon="105.315667"><ele>612.73956</ele><time>2026-04-03T20:36:27.000Z</time></trkpt>
        <trkpt lat="28.828913" lon="105.315715"><ele>611.0385</ele><time>2026-04-03T20:36:32.000Z</time></trkpt>
        <trkpt lat="28.828907" lon="105.315775"><ele>610.7479</ele><time>2026-04-03T20:36:38.000Z</time></trkpt>
        <trkpt lat="28.82888" lon="105.315821"><ele>608.6684</ele><time>2026-04-03T20:36:42.000Z</time></trkpt>
        <trkpt lat="28.828846" lon="105.315859"><ele>606.5997</ele><time>2026-04-03T20:36:47.000Z</time></trkpt>
        <trkpt lat="28.828815" lon="105.315908"><ele>604.95013</ele><time>2026-04-03T20:36:51.000Z</time></trkpt>
        <trkpt lat="28.828789" lon="105.315963"><ele>603.9239</ele><time>2026-04-03T20:36:55.000Z</time></trkpt>
        <trkpt lat="28.828795" lon="105.316021"><ele>599.75415</ele><time>2026-04-03T20:37:03.000Z</time></trkpt>
        <trkpt lat="28.828805" lon="105.316073"><ele>598.9006</ele><time>2026-04-03T20:37:07.000Z</time></trkpt>
        <trkpt lat="28.828803" lon="105.31613"><ele>599.0513</ele><time>2026-04-03T20:37:13.000Z</time></trkpt>
        <trkpt lat="28.828826" lon="105.316181"><ele>598.88</ele><time>2026-04-03T20:37:18.000Z</time></trkpt>
        <trkpt lat="28.828847" lon="105.316233"><ele>598.20435</ele><time>2026-04-03T20:37:22.000Z</time></trkpt>
        <trkpt lat="28.828877" lon="105.316292"><ele>599.45654</ele><time>2026-04-03T20:37:28.000Z</time></trkpt>
        <trkpt lat="28.828878" lon="105.316356"><ele>598.81805</ele><time>2026-04-03T20:37:33.000Z</time></trkpt>
        <trkpt lat="28.828881" lon="105.316408"><ele>599.3665</ele><time>2026-04-03T20:37:37.000Z</time></trkpt>
        <trkpt lat="28.828883" lon="105.316464"><ele>600.2175</ele><time>2026-04-03T20:37:41.000Z</time></trkpt>
        <trkpt lat="28.828867" lon="105.316528"><ele>599.05084</ele><time>2026-04-03T20:37:46.000Z</time></trkpt>
        <trkpt lat="28.828859" lon="105.316578"><ele>600.096</ele><time>2026-04-03T20:37:51.000Z</time></trkpt>
        <trkpt lat="28.828848" lon="105.316633"><ele>599.1589</ele><time>2026-04-03T20:37:56.000Z</time></trkpt>
        <trkpt lat="28.828837" lon="105.316691"><ele>598.3542</ele><time>2026-04-03T20:38:02.000Z</time></trkpt>
        <trkpt lat="28.828843" lon="105.316755"><ele>598.01666</ele><time>2026-04-03T20:38:06.000Z</time></trkpt>
        <trkpt lat="28.828837" lon="105.31681"><ele>597.45746</ele><time>2026-04-03T20:38:12.000Z</time></trkpt>
        <trkpt lat="28.828833" lon="105.316862"><ele>598.8925</ele><time>2026-04-03T20:38:17.000Z</time></trkpt>
        <trkpt lat="28.828826" lon="105.316914"><ele>599.5809</ele><time>2026-04-03T20:38:21.000Z</time></trkpt>
        <trkpt lat="28.828838" lon="105.316967"><ele>600.1543</ele><time>2026-04-03T20:38:25.000Z</time></trkpt>
        <trkpt lat="28.828845" lon="105.317021"><ele>603.7963</ele><time>2026-04-03T20:38:29.000Z</time></trkpt>
        <trkpt lat="28.828864" lon="105.31707"><ele>604.61444</ele><time>2026-04-03T20:38:33.000Z</time></trkpt>
        <trkpt lat="28.828896" lon="105.317115"><ele>604.07935</ele><time>2026-04-03T20:38:38.000Z</time></trkpt>
        <trkpt lat="28.828931" lon="105.317167"><ele>603.72833</ele><time>2026-04-03T20:38:43.000Z</time></trkpt>
        <trkpt lat="28.828937" lon="105.317228"><ele>604.11066</ele><time>2026-04-03T20:38:48.000Z</time></trkpt>
        <trkpt lat="28.828932" lon="105.31728"><ele>606.6041</ele><time>2026-04-03T20:38:52.000Z</time></trkpt>
        <trkpt lat="28.828926" lon="105.317339"><ele>608.6462</ele><time>2026-04-03T20:38:56.000Z</time></trkpt>
        <trkpt lat="28.828906" lon="105.317397"><ele>611.43286</ele><time>2026-04-03T20:39:00.000Z</time></trkpt>
        <trkpt lat="28.828909" lon="105.31746"><ele>613.3357</ele><time>2026-04-03T20:39:06.000Z</time></trkpt>
        <trkpt lat="28.828934" lon="105.317515"><ele>613.00543</ele><time>2026-04-03T20:39:10.000Z</time></trkpt>
        <trkpt lat="28.828942" lon="105.317575"><ele>612.3571</ele><time>2026-04-03T20:39:15.000Z</time></trkpt>
        <trkpt lat="28.828957" lon="105.317636"><ele>611.69904</ele><time>2026-04-03T20:39:20.000Z</time></trkpt>
        <trkpt lat="28.829001" lon="105.317662"><ele>612.4447</ele><time>2026-04-03T20:39:24.000Z</time></trkpt>
        <trkpt lat="28.829038" lon="105.317699"><ele>611.7785</ele><time>2026-04-03T20:39:29.000Z</time></trkpt>
        <trkpt lat="28.829065" lon="105.317748"><ele>611.88403</ele><time>2026-04-03T20:39:33.000Z</time></trkpt>
        <trkpt lat="28.829067" lon="105.317801"><ele>612.782</ele><time>2026-04-03T20:39:37.000Z</time></trkpt>
        <trkpt lat="28.829086" lon="105.317862"><ele>612.4297</ele><time>2026-04-03T20:39:41.000Z</time></trkpt>
        <trkpt lat="28.829116" lon="105.317904"><ele>611.2215</ele><time>2026-04-03T20:39:47.000Z</time></trkpt>
        <trkpt lat="28.82914" lon="105.31795"><ele>609.78577</ele><time>2026-04-03T20:39:52.000Z</time></trkpt>
        <trkpt lat="28.829162" lon="105.31801"><ele>609.7894</ele><time>2026-04-03T20:39:58.000Z</time></trkpt>
        <trkpt lat="28.829179" lon="105.31806"><ele>608.0756</ele><time>2026-04-03T20:40:04.000Z</time></trkpt>
        <trkpt lat="28.829166" lon="105.318113"><ele>604.4662</ele><time>2026-04-03T20:40:12.000Z</time></trkpt>
        <trkpt lat="28.829176" lon="105.318165"><ele>602.22797</ele><time>2026-04-03T20:40:22.000Z</time></trkpt>
        <trkpt lat="28.829159" lon="105.318213"><ele>595.71356</ele><time>2026-04-03T20:41:21.000Z</time></trkpt>
        <trkpt lat="28.829161" lon="105.318264"><ele>588.99115</ele><time>2026-04-03T20:42:11.000Z</time></trkpt>
        <trkpt lat="28.829123" lon="105.318236"><ele>585.52374</ele><time>2026-04-03T20:43:50.000Z</time></trkpt>
        <trkpt lat="28.829114" lon="105.318289"><ele>557.7403</ele><time>2026-04-03T20:49:25.000Z</time></trkpt>
        <trkpt lat="28.829116" lon="105.318343"><ele>555.33685</ele><time>2026-04-03T20:49:37.000Z</time></trkpt>
        <trkpt lat="28.829117" lon="105.318396"><ele>553.37445</ele><time>2026-04-03T20:49:47.000Z</time></trkpt>
        <trkpt lat="28.829121" lon="105.318447"><ele>552.6317</ele><time>2026-04-03T20:49:57.000Z</time></trkpt>
        <trkpt lat="28.829123" lon="105.318506"><ele>552.3603</ele><time>2026-04-03T20:50:03.000Z</time></trkpt>
        <trkpt lat="28.829121" lon="105.31856"><ele>552.10266</ele><time>2026-04-03T20:50:08.000Z</time></trkpt>
        <trkpt lat="28.829116" lon="105.318625"><ele>551.95593</ele><time>2026-04-03T20:50:13.000Z</time></trkpt>
        <trkpt lat="28.829127" lon="105.318681"><ele>551.2208</ele><time>2026-04-03T20:50:18.000Z</time></trkpt>
        <trkpt lat="28.829132" lon="105.31874"><ele>549.8388</ele><time>2026-04-03T20:50:26.000Z</time></trkpt>
        <trkpt lat="28.829128" lon="105.318792"><ele>549.85315</ele><time>2026-04-03T20:50:31.000Z</time></trkpt>
        <trkpt lat="28.82913" lon="105.318844"><ele>550.9969</ele><time>2026-04-03T20:50:36.000Z</time></trkpt>
        <trkpt lat="28.829135" lon="105.318898"><ele>549.78186</ele><time>2026-04-03T20:50:41.000Z</time></trkpt>
        <trkpt lat="28.829152" lon="105.318959"><ele>550.8613</ele><time>2026-04-03T20:50:47.000Z</time></trkpt>
        <trkpt lat="28.829163" lon="105.319011"><ele>551.442</ele><time>2026-04-03T20:50:52.000Z</time></trkpt>
        <trkpt lat="28.829151" lon="105.319068"><ele>550.61725</ele><time>2026-04-03T20:50:59.000Z</time></trkpt>
        <trkpt lat="28.829167" lon="105.319117"><ele>550.3707</ele><time>2026-04-03T20:51:05.000Z</time></trkpt>
        <trkpt lat="28.829184" lon="105.319174"><ele>550.36084</ele><time>2026-04-03T20:51:11.000Z</time></trkpt>
        <trkpt lat="28.829188" lon="105.319229"><ele>549.68744</ele><time>2026-04-03T20:51:23.000Z</time></trkpt>
        <trkpt lat="28.829205" lon="105.319278"><ele>548.6525</ele><time>2026-04-03T20:51:31.000Z</time></trkpt>
        <trkpt lat="28.829205" lon="105.319353"><ele>549.4211</ele><time>2026-04-03T20:51:35.000Z</time></trkpt>
        <trkpt lat="28.8292" lon="105.319421"><ele>550.8591</ele><time>2026-04-03T20:51:40.000Z</time></trkpt>
        <trkpt lat="28.829198" lon="105.319483"><ele>552.4971</ele><time>2026-04-03T20:51:44.000Z</time></trkpt>
        <trkpt lat="28.829186" lon="105.319537"><ele>552.7084</ele><time>2026-04-03T20:51:48.000Z</time></trkpt>
        <trkpt lat="28.829178" lon="105.319588"><ele>553.57935</ele><time>2026-04-03T20:51:52.000Z</time></trkpt>
        <trkpt lat="28.829176" lon="105.319643"><ele>555.2643</ele><time>2026-04-03T20:51:56.000Z</time></trkpt>
        <trkpt lat="28.829181" lon="105.319699"><ele>556.11475</ele><time>2026-04-03T20:52:00.000Z</time></trkpt>
        <trkpt lat="28.829182" lon="105.319764"><ele>557.2412</ele><time>2026-04-03T20:52:04.000Z</time></trkpt>
        <trkpt lat="28.829182" lon="105.31982"><ele>557.37146</ele><time>2026-04-03T20:52:08.000Z</time></trkpt>
        <trkpt lat="28.829189" lon="105.319874"><ele>557.04584</ele><time>2026-04-03T20:52:11.000Z</time></trkpt>
        <trkpt lat="28.829195" lon="105.319928"><ele>556.683</ele><time>2026-04-03T20:52:15.000Z</time></trkpt>
        <trkpt lat="28.829216" lon="105.319975"><ele>554.75854</ele><time>2026-04-03T20:52:21.000Z</time></trkpt>
        <trkpt lat="28.829236" lon="105.320033"><ele>553.69824</ele><time>2026-04-03T20:52:31.000Z</time></trkpt>
        <trkpt lat="28.82924" lon="105.320086"><ele>553.12415</ele><time>2026-04-03T20:52:37.000Z</time></trkpt>
        <trkpt lat="28.829244" lon="105.320139"><ele>550.9367</ele><time>2026-04-03T20:52:45.000Z</time></trkpt>
        <trkpt lat="28.829241" lon="105.320192"><ele>548.25085</ele><time>2026-04-03T20:52:55.000Z</time></trkpt>
        <trkpt lat="28.829267" lon="105.320234"><ele>546.87646</ele><time>2026-04-03T20:53:02.000Z</time></trkpt>
        <trkpt lat="28.829302" lon="105.320278"><ele>545.5396</ele><time>2026-04-03T20:53:09.000Z</time></trkpt>
        <trkpt lat="28.829316" lon="105.320334"><ele>543.94385</ele><time>2026-04-03T20:53:13.000Z</time></trkpt>
        <trkpt lat="28.829314" lon="105.320393"><ele>544.1985</ele><time>2026-04-03T20:53:18.000Z</time></trkpt>
        <trkpt lat="28.829316" lon="105.320452"><ele>545.05994</ele><time>2026-04-03T20:53:23.000Z</time></trkpt>
        <trkpt lat="28.829336" lon="105.320511"><ele>545.1138</ele><time>2026-04-03T20:53:27.000Z</time></trkpt>
        <trkpt lat="28.829356" lon="105.32056"><ele>544.7164</ele><time>2026-04-03T20:53:32.000Z</time></trkpt>
        <trkpt lat="28.82935" lon="105.320625"><ele>543.92206</ele><time>2026-04-03T20:53:42.000Z</time></trkpt>
        <trkpt lat="28.829376" lon="105.320675"><ele>542.71387</ele><time>2026-04-03T20:53:47.000Z</time></trkpt>
        <trkpt lat="28.829399" lon="105.320741"><ele>545.06256</ele><time>2026-04-03T20:53:51.000Z</time></trkpt>
        <trkpt lat="28.829402" lon="105.3208"><ele>548.03613</ele><time>2026-04-03T20:53:55.000Z</time></trkpt>
        <trkpt lat="28.829355" lon="105.320791"><ele>552.4894</ele><time>2026-04-03T20:54:02.000Z</time></trkpt>
        <trkpt lat="28.829395" lon="105.320823"><ele>547.6923</ele><time>2026-04-03T20:54:10.000Z</time></trkpt>
        <trkpt lat="28.829411" lon="105.320879"><ele>547.72705</ele><time>2026-04-03T20:54:14.000Z</time></trkpt>
        <trkpt lat="28.82942" lon="105.320933"><ele>548.08685</ele><time>2026-04-03T20:54:18.000Z</time></trkpt>
        <trkpt lat="28.829425" lon="105.320984"><ele>548.85</ele><time>2026-04-03T20:54:22.000Z</time></trkpt>
        <trkpt lat="28.82945" lon="105.321028"><ele>549.969</ele><time>2026-04-03T20:54:25.000Z</time></trkpt>
        <trkpt lat="28.829469" lon="105.321082"><ele>551.70197</ele><time>2026-04-03T20:54:31.000Z</time></trkpt>
        <trkpt lat="28.82949" lon="105.321138"><ele>553.0058</ele><time>2026-04-03T20:54:35.000Z</time></trkpt>
        <trkpt lat="28.82949" lon="105.321198"><ele>554.45905</ele><time>2026-04-03T20:54:39.000Z</time></trkpt>
        <trkpt lat="28.829474" lon="105.32125"><ele>555.6426</ele><time>2026-04-03T20:54:48.000Z</time></trkpt>
        <trkpt lat="28.829463" lon="105.321302"><ele>559.21106</ele><time>2026-04-03T20:54:53.000Z</time></trkpt>
        <trkpt lat="28.829459" lon="105.321365"><ele>559.3702</ele><time>2026-04-03T20:55:00.000Z</time></trkpt>
        <trkpt lat="28.829467" lon="105.321426"><ele>558.21533</ele><time>2026-04-03T20:55:05.000Z</time></trkpt>
        <trkpt lat="28.82951" lon="105.321453"><ele>556.0299</ele><time>2026-04-03T20:55:12.000Z</time></trkpt>
        <trkpt lat="28.829475" lon="105.321418"><ele>553.28265</ele><time>2026-04-03T20:55:27.000Z</time></trkpt>
        <trkpt lat="28.829511" lon="105.321453"><ele>554.05176</ele><time>2026-04-03T20:55:54.000Z</time></trkpt>
        <trkpt lat="28.829515" lon="105.321509"><ele>551.79987</ele><time>2026-04-03T20:56:59.000Z</time></trkpt>
        <trkpt lat="28.829457" lon="105.321546"><ele>549.01733</ele><time>2026-04-03T20:57:28.000Z</time></trkpt>
        <trkpt lat="28.829476" lon="105.321494"><ele>550.0927</ele><time>2026-04-03T20:57:54.000Z</time></trkpt>
        <trkpt lat="28.829496" lon="105.32154"><ele>555.1205</ele><time>2026-04-03T20:58:46.000Z</time></trkpt>
        <trkpt lat="28.829461" lon="105.321576"><ele>552.7486</ele><time>2026-04-03T20:59:06.000Z</time></trkpt>
        <trkpt lat="28.829477" lon="105.321527"><ele>557.1007</ele><time>2026-04-03T20:59:44.000Z</time></trkpt>
        <trkpt lat="28.829499" lon="105.321482"><ele>554.87616</ele><time>2026-04-03T21:00:12.000Z</time></trkpt>
        <trkpt lat="28.829515" lon="105.321429"><ele>552.6102</ele><time>2026-04-03T21:01:19.000Z</time></trkpt>
        <trkpt lat="28.829474" lon="105.321388"><ele>554.27783</ele><time>2026-04-03T21:01:49.000Z</time></trkpt>
        <trkpt lat="28.829463" lon="105.321337"><ele>555.76935</ele><time>2026-04-03T21:01:55.000Z</time></trkpt>
        <trkpt lat="28.829455" lon="105.321279"><ele>554.59344</ele><time>2026-04-03T21:02:01.000Z</time></trkpt>
        <trkpt lat="28.829466" lon="105.321226"><ele>552.5555</ele><time>2026-04-03T21:02:11.000Z</time></trkpt>
        <trkpt lat="28.829469" lon="105.32117"><ele>550.70416</ele><time>2026-04-03T21:02:19.000Z</time></trkpt>
        <trkpt lat="28.829467" lon="105.321117"><ele>549.3072</ele><time>2026-04-03T21:02:24.000Z</time></trkpt>
        <trkpt lat="28.829439" lon="105.321069"><ele>549.3095</ele><time>2026-04-03T21:02:29.000Z</time></trkpt>
        <trkpt lat="28.829411" lon="105.321025"><ele>551.98267</ele><time>2026-04-03T21:02:35.000Z</time></trkpt>
        <trkpt lat="28.829409" lon="105.32097"><ele>553.166</ele><time>2026-04-03T21:02:41.000Z</time></trkpt>
        <trkpt lat="28.829406" lon="105.320907"><ele>551.44415</ele><time>2026-04-03T21:02:50.000Z</time></trkpt>
        <trkpt lat="28.829402" lon="105.320851"><ele>551.3337</ele><time>2026-04-03T21:02:54.000Z</time></trkpt>
        <trkpt lat="28.829392" lon="105.320798"><ele>551.51514</ele><time>2026-04-03T21:02:58.000Z</time></trkpt>
        <trkpt lat="28.82938" lon="105.320747"><ele>554.12946</ele><time>2026-04-03T21:03:02.000Z</time></trkpt>
        <trkpt lat="28.829376" lon="105.320695"><ele>554.1004</ele><time>2026-04-03T21:03:06.000Z</time></trkpt>
        <trkpt lat="28.829356" lon="105.32064"><ele>553.5283</ele><time>2026-04-03T21:03:12.000Z</time></trkpt>
        <trkpt lat="28.829355" lon="105.32058"><ele>554.1836</ele><time>2026-04-03T21:03:18.000Z</time></trkpt>
        <trkpt lat="28.82933" lon="105.320528"><ele>553.8906</ele><time>2026-04-03T21:03:23.000Z</time></trkpt>
        <trkpt lat="28.829336" lon="105.320476"><ele>552.9793</ele><time>2026-04-03T21:03:28.000Z</time></trkpt>
        <trkpt lat="28.829334" lon="105.320418"><ele>552.376</ele><time>2026-04-03T21:03:32.000Z</time></trkpt>
        <trkpt lat="28.829323" lon="105.320367"><ele>551.0054</ele><time>2026-04-03T21:03:36.000Z</time></trkpt>
        <trkpt lat="28.829302" lon="105.32031"><ele>549.6588</ele><time>2026-04-03T21:03:41.000Z</time></trkpt>
        <trkpt lat="28.82925" lon="105.320292"><ele>550.1549</ele><time>2026-04-03T21:03:48.000Z</time></trkpt>
        <trkpt lat="28.829219" lon="105.32025"><ele>549.8965</ele><time>2026-04-03T21:03:54.000Z</time></trkpt>
        <trkpt lat="28.829187" lon="105.320212"><ele>551.0964</ele><time>2026-04-03T21:04:03.000Z</time></trkpt>
        <trkpt lat="28.829186" lon="105.320159"><ele>552.30945</ele><time>2026-04-03T21:04:13.000Z</time></trkpt>
        <trkpt lat="28.829194" lon="105.320106"><ele>552.61194</ele><time>2026-04-03T21:04:20.000Z</time></trkpt>
        <trkpt lat="28.829183" lon="105.320053"><ele>553.6684</ele><time>2026-04-03T21:04:28.000Z</time></trkpt>
        <trkpt lat="28.829174" lon="105.319997"><ele>555.4787</ele><time>2026-04-03T21:04:37.000Z</time></trkpt>
        <trkpt lat="28.829174" lon="105.319943"><ele>558.1879</ele><time>2026-04-03T21:04:45.000Z</time></trkpt>
        <trkpt lat="28.829177" lon="105.319886"><ele>558.8764</ele><time>2026-04-03T21:04:52.000Z</time></trkpt>
        <trkpt lat="28.829174" lon="105.319834"><ele>559.7046</ele><time>2026-04-03T21:04:58.000Z</time></trkpt>
        <trkpt lat="28.829178" lon="105.319777"><ele>559.66644</ele><time>2026-04-03T21:05:02.000Z</time></trkpt>
        <trkpt lat="28.829178" lon="105.319717"><ele>561.03864</ele><time>2026-04-03T21:05:07.000Z</time></trkpt>
        <trkpt lat="28.82918" lon="105.319656"><ele>561.0185</ele><time>2026-04-03T21:05:14.000Z</time></trkpt>
        <trkpt lat="28.829181" lon="105.319599"><ele>561.1429</ele><time>2026-04-03T21:05:19.000Z</time></trkpt>
        <trkpt lat="28.829185" lon="105.319544"><ele>560.0399</ele><time>2026-04-03T21:05:25.000Z</time></trkpt>
        <trkpt lat="28.829185" lon="105.319492"><ele>558.9248</ele><time>2026-04-03T21:05:32.000Z</time></trkpt>
        <trkpt lat="28.829187" lon="105.319432"><ele>557.999</ele><time>2026-04-03T21:05:37.000Z</time></trkpt>
        <trkpt lat="28.829199" lon="105.319379"><ele>557.3785</ele><time>2026-04-03T21:05:43.000Z</time></trkpt>
        <trkpt lat="28.829188" lon="105.319329"><ele>558.06354</ele><time>2026-04-03T21:05:57.000Z</time></trkpt>
        <trkpt lat="28.829197" lon="105.319269"><ele>556.741</ele><time>2026-04-03T21:06:03.000Z</time></trkpt>
        <trkpt lat="28.829194" lon="105.319213"><ele>555.7616</ele><time>2026-04-03T21:06:15.000Z</time></trkpt>
        <trkpt lat="28.829187" lon="105.31916"><ele>555.01697</ele><time>2026-04-03T21:06:24.000Z</time></trkpt>
        <trkpt lat="28.829182" lon="105.319106"><ele>555.908</ele><time>2026-04-03T21:06:58.000Z</time></trkpt>
        <trkpt lat="28.829164" lon="105.31905"><ele>556.4511</ele><time>2026-04-03T21:07:04.000Z</time></trkpt>
        <trkpt lat="28.82915" lon="105.318997"><ele>554.52686</ele><time>2026-04-03T21:07:10.000Z</time></trkpt>
        <trkpt lat="28.82914" lon="105.318943"><ele>552.7942</ele><time>2026-04-03T21:07:17.000Z</time></trkpt>
        <trkpt lat="28.829118" lon="105.318897"><ele>553.19165</ele><time>2026-04-03T21:07:22.000Z</time></trkpt>
        <trkpt lat="28.829105" lon="105.318833"><ele>551.92926</ele><time>2026-04-03T21:07:27.000Z</time></trkpt>
        <trkpt lat="28.829105" lon="105.318779"><ele>551.62335</ele><time>2026-04-03T21:07:30.000Z</time></trkpt>
        <trkpt lat="28.829102" lon="105.318716"><ele>551.9098</ele><time>2026-04-03T21:07:34.000Z</time></trkpt>
        <trkpt lat="28.829094" lon="105.318654"><ele>552.8973</ele><time>2026-04-03T21:07:38.000Z</time></trkpt>
        <trkpt lat="28.829081" lon="105.318599"><ele>553.06305</ele><time>2026-04-03T21:07:42.000Z</time></trkpt>
        <trkpt lat="28.829091" lon="105.318538"><ele>553.54736</ele><time>2026-04-03T21:07:46.000Z</time></trkpt>
        <trkpt lat="28.829104" lon="105.318475"><ele>554.42084</ele><time>2026-04-03T21:07:50.000Z</time></trkpt>
        <trkpt lat="28.829111" lon="105.31842"><ele>555.6945</ele><time>2026-04-03T21:07:54.000Z</time></trkpt>
        <trkpt lat="28.829114" lon="105.318356"><ele>556.1822</ele><time>2026-04-03T21:07:59.000Z</time></trkpt>
        <trkpt lat="28.829105" lon="105.318304"><ele>558.4082</ele><time>2026-04-03T21:08:04.000Z</time></trkpt>
        <trkpt lat="28.829094" lon="105.318246"><ele>559.01</ele><time>2026-04-03T21:08:10.000Z</time></trkpt>
        <trkpt lat="28.829077" lon="105.31819"><ele>560.93494</ele><time>2026-04-03T21:08:32.000Z</time></trkpt>
        <trkpt lat="28.829121" lon="105.318209"><ele>563.9174</ele><time>2026-04-03T21:09:48.000Z</time></trkpt>
        <trkpt lat="28.829111" lon="105.318159"><ele>568.67255</ele><time>2026-04-03T21:12:14.000Z</time></trkpt>
        <trkpt lat="28.829123" lon="105.318103"><ele>574.0154</ele><time>2026-04-03T21:12:22.000Z</time></trkpt>
        <trkpt lat="28.829111" lon="105.31805"><ele>575.75085</ele><time>2026-04-03T21:12:32.000Z</time></trkpt>
        <trkpt lat="28.829118" lon="105.317999"><ele>578.2994</ele><time>2026-04-03T21:12:41.000Z</time></trkpt>
        <trkpt lat="28.829089" lon="105.317949"><ele>577.7611</ele><time>2026-04-03T21:12:48.000Z</time></trkpt>
        <trkpt lat="28.829052" lon="105.317896"><ele>578.9111</ele><time>2026-04-03T21:12:55.000Z</time></trkpt>
        <trkpt lat="28.829024" lon="105.317855"><ele>577.38965</ele><time>2026-04-03T21:13:01.000Z</time></trkpt>
        <trkpt lat="28.829017" lon="105.3178"><ele>578.1218</ele><time>2026-04-03T21:13:05.000Z</time></trkpt>
        <trkpt lat="28.82903" lon="105.317735"><ele>585.298</ele><time>2026-04-03T21:13:11.000Z</time></trkpt>
        <trkpt lat="28.829014" lon="105.317686"><ele>586.3089</ele><time>2026-04-03T21:13:21.000Z</time></trkpt>
        <trkpt lat="28.829016" lon="105.317627"><ele>587.63043</ele><time>2026-04-03T21:13:28.000Z</time></trkpt>
        <trkpt lat="28.828989" lon="105.317577"><ele>591.35767</ele><time>2026-04-03T21:13:32.000Z</time></trkpt>
        <trkpt lat="28.828954" lon="105.317535"><ele>594.0649</ele><time>2026-04-03T21:13:36.000Z</time></trkpt>
        <trkpt lat="28.828932" lon="105.317485"><ele>595.0802</ele><time>2026-04-03T21:13:41.000Z</time></trkpt>
        <trkpt lat="28.828935" lon="105.317429"><ele>595.7064</ele><time>2026-04-03T21:13:46.000Z</time></trkpt>
        <trkpt lat="28.828945" lon="105.317375"><ele>594.7335</ele><time>2026-04-03T21:13:50.000Z</time></trkpt>
        <trkpt lat="28.828952" lon="105.317321"><ele>596.33997</ele><time>2026-04-03T21:13:54.000Z</time></trkpt>
        <trkpt lat="28.828933" lon="105.317269"><ele>597.7038</ele><time>2026-04-03T21:13:58.000Z</time></trkpt>
        <trkpt lat="28.828916" lon="105.317217"><ele>600.4585</ele><time>2026-04-03T21:14:01.000Z</time></trkpt>
        <trkpt lat="28.828887" lon="105.317176"><ele>604.0371</ele><time>2026-04-03T21:14:05.000Z</time></trkpt>
        <trkpt lat="28.828854" lon="105.317122"><ele>605.7406</ele><time>2026-04-03T21:14:10.000Z</time></trkpt>
        <trkpt lat="28.82884" lon="105.317063"><ele>605.40845</ele><time>2026-04-03T21:14:15.000Z</time></trkpt>
        <trkpt lat="28.828839" lon="105.31701"><ele>604.19464</ele><time>2026-04-03T21:14:20.000Z</time></trkpt>
        <trkpt lat="28.828838" lon="105.316955"><ele>602.4008</ele><time>2026-04-03T21:14:26.000Z</time></trkpt>
        <trkpt lat="28.828838" lon="105.316902"><ele>601.39813</ele><time>2026-04-03T21:14:30.000Z</time></trkpt>
        <trkpt lat="28.828828" lon="105.316848"><ele>604.3878</ele><time>2026-04-03T21:14:58.000Z</time></trkpt>
        <trkpt lat="28.828876" lon="105.316823"><ele>601.2095</ele><time>2026-04-03T21:15:03.000Z</time></trkpt>
        <trkpt lat="28.828921" lon="105.316795"><ele>599.48804</ele><time>2026-04-03T21:15:09.000Z</time></trkpt>
        <trkpt lat="28.828971" lon="105.316795"><ele>598.68475</ele><time>2026-04-03T21:15:17.000Z</time></trkpt>
        <trkpt lat="28.829021" lon="105.316777"><ele>598.24536</ele><time>2026-04-03T21:15:24.000Z</time></trkpt>
        <trkpt lat="28.829073" lon="105.31677"><ele>598.2792</ele><time>2026-04-03T21:15:30.000Z</time></trkpt>
        <trkpt lat="28.829123" lon="105.316755"><ele>598.70355</ele><time>2026-04-03T21:15:37.000Z</time></trkpt>
        <trkpt lat="28.829166" lon="105.316719"><ele>600.7769</ele><time>2026-04-03T21:15:42.000Z</time></trkpt>
        <trkpt lat="28.829208" lon="105.316693"><ele>602.60077</ele><time>2026-04-03T21:15:48.000Z</time></trkpt>
        <trkpt lat="28.829259" lon="105.316664"><ele>599.4924</ele><time>2026-04-03T21:15:53.000Z</time></trkpt>
        <trkpt lat="28.829306" lon="105.316638"><ele>599.3806</ele><time>2026-04-03T21:15:57.000Z</time></trkpt>
        <trkpt lat="28.829354" lon="105.316618"><ele>597.32983</ele><time>2026-04-03T21:16:01.000Z</time></trkpt>
        <trkpt lat="28.829406" lon="105.316617"><ele>595.12036</ele><time>2026-04-03T21:16:04.000Z</time></trkpt>
        <trkpt lat="28.829456" lon="105.316593"><ele>592.5771</ele><time>2026-04-03T21:16:08.000Z</time></trkpt>
        <trkpt lat="28.829507" lon="105.31657"><ele>593.5135</ele><time>2026-04-03T21:16:12.000Z</time></trkpt>
        <trkpt lat="28.829531" lon="105.316523"><ele>592.7883</ele><time>2026-04-03T21:16:16.000Z</time></trkpt>
        <trkpt lat="28.829516" lon="105.316472"><ele>591.00745</ele><time>2026-04-03T21:16:21.000Z</time></trkpt>
        <trkpt lat="28.829519" lon="105.31642"><ele>592.75073</ele><time>2026-04-03T21:16:26.000Z</time></trkpt>
        <trkpt lat="28.829567" lon="105.316416"><ele>593.31824</ele><time>2026-04-03T21:16:34.000Z</time></trkpt>
        <trkpt lat="28.829617" lon="105.31641"><ele>592.0527</ele><time>2026-04-03T21:16:40.000Z</time></trkpt>
        <trkpt lat="28.82966" lon="105.316387"><ele>592.0155</ele><time>2026-04-03T21:16:48.000Z</time></trkpt>
        <trkpt lat="28.829708" lon="105.316381"><ele>590.1582</ele><time>2026-04-03T21:16:56.000Z</time></trkpt>
        <trkpt lat="28.82975" lon="105.316414"><ele>587.5958</ele><time>2026-04-03T21:17:04.000Z</time></trkpt>
        <trkpt lat="28.829794" lon="105.316441"><ele>586.8717</ele><time>2026-04-03T21:17:13.000Z</time></trkpt>
        <trkpt lat="28.829828" lon="105.316476"><ele>582.88544</ele><time>2026-04-03T21:17:23.000Z</time></trkpt>
        <trkpt lat="28.829847" lon="105.316531"><ele>582.7052</ele><time>2026-04-03T21:17:31.000Z</time></trkpt>
        <trkpt lat="28.829837" lon="105.316581"><ele>579.59015</ele><time>2026-04-03T21:17:37.000Z</time></trkpt>
        <trkpt lat="28.829858" lon="105.31664"><ele>576.34436</ele><time>2026-04-03T21:17:47.000Z</time></trkpt>
        <trkpt lat="28.829905" lon="105.316662"><ele>574.7296</ele><time>2026-04-03T21:17:53.000Z</time></trkpt>
        <trkpt lat="28.829952" lon="105.316675"><ele>573.3113</ele><time>2026-04-03T21:17:59.000Z</time></trkpt>
        <trkpt lat="28.830003" lon="105.316689"><ele>574.16565</ele><time>2026-04-03T21:18:04.000Z</time></trkpt>
        <trkpt lat="28.830049" lon="105.31666"><ele>570.6217</ele><time>2026-04-03T21:18:11.000Z</time></trkpt>
        <trkpt lat="28.830089" lon="105.31663"><ele>570.0837</ele><time>2026-04-03T21:18:18.000Z</time></trkpt>
        <trkpt lat="28.830138" lon="105.316601"><ele>570.7063</ele><time>2026-04-03T21:18:25.000Z</time></trkpt>
        <trkpt lat="28.830179" lon="105.316558"><ele>569.27454</ele><time>2026-04-03T21:18:32.000Z</time></trkpt>
        <trkpt lat="28.830218" lon="105.316521"><ele>566.94446</ele><time>2026-04-03T21:18:39.000Z</time></trkpt>
        <trkpt lat="28.83026" lon="105.31649"><ele>566.0301</ele><time>2026-04-03T21:18:44.000Z</time></trkpt>
        <trkpt lat="28.830301" lon="105.316465"><ele>567.46594</ele><time>2026-04-03T21:18:50.000Z</time></trkpt>
        <trkpt lat="28.830334" lon="105.316428"><ele>567.9535</ele><time>2026-04-03T21:18:55.000Z</time></trkpt>
        <trkpt lat="28.830377" lon="105.316401"><ele>568.9513</ele><time>2026-04-03T21:18:59.000Z</time></trkpt>
        <trkpt lat="28.830417" lon="105.316376"><ele>568.6384</ele><time>2026-04-03T21:19:02.000Z</time></trkpt>
        <trkpt lat="28.830461" lon="105.316368"><ele>569.12177</ele><time>2026-04-03T21:19:06.000Z</time></trkpt>
        <trkpt lat="28.830499" lon="105.316331"><ele>568.5959</ele><time>2026-04-03T21:19:11.000Z</time></trkpt>
        <trkpt lat="28.830543" lon="105.316302"><ele>568.94586</ele><time>2026-04-03T21:19:18.000Z</time></trkpt>
        <trkpt lat="28.830563" lon="105.316256"><ele>568.2403</ele><time>2026-04-03T21:19:24.000Z</time></trkpt>
        <trkpt lat="28.830587" lon="105.316205"><ele>568.5782</ele><time>2026-04-03T21:19:30.000Z</time></trkpt>
        <trkpt lat="28.830615" lon="105.316152"><ele>568.7025</ele><time>2026-04-03T21:19:35.000Z</time></trkpt>
        <trkpt lat="28.830639" lon="105.3161"><ele>569.8988</ele><time>2026-04-03T21:19:40.000Z</time></trkpt>
        <trkpt lat="28.83067" lon="105.316044"><ele>570.8454</ele><time>2026-04-03T21:19:45.000Z</time></trkpt>
        <trkpt lat="28.830688" lon="105.315989"><ele>572.9091</ele><time>2026-04-03T21:19:55.000Z</time></trkpt>
        <trkpt lat="28.830711" lon="105.315936"><ele>573.33905</ele><time>2026-04-03T21:20:00.000Z</time></trkpt>
        <trkpt lat="28.830754" lon="105.315915"><ele>573.12933</ele><time>2026-04-03T21:20:04.000Z</time></trkpt>
        <trkpt lat="28.830806" lon="105.315904"><ele>572.05554</ele><time>2026-04-03T21:20:08.000Z</time></trkpt>
        <trkpt lat="28.830849" lon="105.315935"><ele>571.4318</ele><time>2026-04-03T21:20:12.000Z</time></trkpt>
        <trkpt lat="28.830883" lon="105.315981"><ele>570.3881</ele><time>2026-04-03T21:20:16.000Z</time></trkpt>
        <trkpt lat="28.830908" lon="105.316031"><ele>570.5028</ele><time>2026-04-03T21:20:20.000Z</time></trkpt>
        <trkpt lat="28.830917" lon="105.316093"><ele>569.79315</ele><time>2026-04-03T21:20:24.000Z</time></trkpt>
        <trkpt lat="28.830929" lon="105.316153"><ele>570.30414</ele><time>2026-04-03T21:20:28.000Z</time></trkpt>
        <trkpt lat="28.830906" lon="105.31621"><ele>569.9282</ele><time>2026-04-03T21:20:31.000Z</time></trkpt>
        <trkpt lat="28.830905" lon="105.316269"><ele>569.77405</ele><time>2026-04-03T21:20:35.000Z</time></trkpt>
        <trkpt lat="28.830931" lon="105.316311"><ele>569.46875</ele><time>2026-04-03T21:21:44.000Z</time></trkpt>
        <trkpt lat="28.830975" lon="105.316299"><ele>569.2028</ele><time>2026-04-03T21:22:15.000Z</time></trkpt>
        <trkpt lat="28.830998" lon="105.316255"><ele>569.4874</ele><time>2026-04-03T21:22:25.000Z</time></trkpt>
        <trkpt lat="28.831046" lon="105.316257"><ele>570.4156</ele><time>2026-04-03T21:22:36.000Z</time></trkpt>
        <trkpt lat="28.831072" lon="105.316301"><ele>570.5766</ele><time>2026-04-03T21:22:47.000Z</time></trkpt>
        <trkpt lat="28.831121" lon="105.316324"><ele>574.868</ele><time>2026-04-03T21:22:59.000Z</time></trkpt>
        <trkpt lat="28.831163" lon="105.316298"><ele>576.0329</ele><time>2026-04-03T21:23:10.000Z</time></trkpt>
        <trkpt lat="28.831197" lon="105.316261"><ele>584.27344</ele><time>2026-04-03T21:23:21.000Z</time></trkpt>
        <trkpt lat="28.831242" lon="105.316254"><ele>581.8794</ele><time>2026-04-03T21:23:28.000Z</time></trkpt>
        <trkpt lat="28.831287" lon="105.316248"><ele>579.3505</ele><time>2026-04-03T21:23:37.000Z</time></trkpt>
        <trkpt lat="28.83133" lon="105.316219"><ele>580.2327</ele><time>2026-04-03T21:23:46.000Z</time></trkpt>
        <trkpt lat="28.83137" lon="105.316191"><ele>590.5462</ele><time>2026-04-03T21:23:55.000Z</time></trkpt>
        <trkpt lat="28.831408" lon="105.31616"><ele>593.43176</ele><time>2026-04-03T21:24:02.000Z</time></trkpt>
        <trkpt lat="28.831446" lon="105.31613"><ele>593.9137</ele><time>2026-04-03T21:24:07.000Z</time></trkpt>
        <trkpt lat="28.831492" lon="105.316106"><ele>593.70325</ele><time>2026-04-03T21:24:13.000Z</time></trkpt>
        <trkpt lat="28.831537" lon="105.316079"><ele>590.30865</ele><time>2026-04-03T21:24:18.000Z</time></trkpt>
        <trkpt lat="28.831575" lon="105.316051"><ele>587.678</ele><time>2026-04-03T21:24:23.000Z</time></trkpt>
        <trkpt lat="28.831616" lon="105.316017"><ele>587.75336</ele><time>2026-04-03T21:24:31.000Z</time></trkpt>
        <trkpt lat="28.831657" lon="105.315985"><ele>588.57104</ele><time>2026-04-03T21:24:38.000Z</time></trkpt>
        <trkpt lat="28.831699" lon="105.315948"><ele>589.51855</ele><time>2026-04-03T21:24:45.000Z</time></trkpt>
        <trkpt lat="28.83173" lon="105.315895"><ele>588.4513</ele><time>2026-04-03T21:24:53.000Z</time></trkpt>
        <trkpt lat="28.831762" lon="105.315857"><ele>590.15753</ele><time>2026-04-03T21:25:00.000Z</time></trkpt>
        <trkpt lat="28.831808" lon="105.315828"><ele>593.0952</ele><time>2026-04-03T21:25:07.000Z</time></trkpt>
        <trkpt lat="28.831856" lon="105.315802"><ele>593.2892</ele><time>2026-04-03T21:25:14.000Z</time></trkpt>
        <trkpt lat="28.831898" lon="105.315763"><ele>593.699</ele><time>2026-04-03T21:25:21.000Z</time></trkpt>
        <trkpt lat="28.831917" lon="105.315714"><ele>595.19135</ele><time>2026-04-03T21:25:26.000Z</time></trkpt>
        <trkpt lat="28.831927" lon="105.315655"><ele>597.36334</ele><time>2026-04-03T21:25:33.000Z</time></trkpt>
        <trkpt lat="28.831911" lon="105.315604"><ele>599.4216</ele><time>2026-04-03T21:25:38.000Z</time></trkpt>
        <trkpt lat="28.831917" lon="105.315551"><ele>598.54614</ele><time>2026-04-03T21:25:43.000Z</time></trkpt>
        <trkpt lat="28.831913" lon="105.315496"><ele>598.7136</ele><time>2026-04-03T21:25:47.000Z</time></trkpt>
        <trkpt lat="28.831907" lon="105.315441"><ele>598.32367</ele><time>2026-04-03T21:25:51.000Z</time></trkpt>
        <trkpt lat="28.831911" lon="105.315375"><ele>598.0293</ele><time>2026-04-03T21:25:56.000Z</time></trkpt>
        <trkpt lat="28.831922" lon="105.315322"><ele>600.2435</ele><time>2026-04-03T21:26:02.000Z</time></trkpt>
        <trkpt lat="28.831957" lon="105.315275"><ele>600.4028</ele><time>2026-04-03T21:26:08.000Z</time></trkpt>
        <trkpt lat="28.831985" lon="105.315232"><ele>601.10406</ele><time>2026-04-03T21:26:12.000Z</time></trkpt>
        <trkpt lat="28.832015" lon="105.315193"><ele>602.1024</ele><time>2026-04-03T21:26:17.000Z</time></trkpt>
        <trkpt lat="28.832055" lon="105.315164"><ele>602.60736</ele><time>2026-04-03T21:26:23.000Z</time></trkpt>
        <trkpt lat="28.8321" lon="105.315137"><ele>603.9459</ele><time>2026-04-03T21:26:27.000Z</time></trkpt>
        <trkpt lat="28.832148" lon="105.315145"><ele>602.7283</ele><time>2026-04-03T21:26:32.000Z</time></trkpt>
        <trkpt lat="28.832194" lon="105.315147"><ele>601.6361</ele><time>2026-04-03T21:26:41.000Z</time></trkpt>
        <trkpt lat="28.832236" lon="105.315173"><ele>600.18896</ele><time>2026-04-03T21:26:46.000Z</time></trkpt>
        <trkpt lat="28.832275" lon="105.315206"><ele>598.8676</ele><time>2026-04-03T21:26:50.000Z</time></trkpt>
        <trkpt lat="28.832321" lon="105.315229"><ele>597.58905</ele><time>2026-04-03T21:26:54.000Z</time></trkpt>
        <trkpt lat="28.832373" lon="105.315257"><ele>595.70654</ele><time>2026-04-03T21:26:59.000Z</time></trkpt>
        <trkpt lat="28.832418" lon="105.315276"><ele>594.63495</ele><time>2026-04-03T21:27:05.000Z</time></trkpt>
        <trkpt lat="28.832466" lon="105.3153"><ele>593.4347</ele><time>2026-04-03T21:27:12.000Z</time></trkpt>
        <trkpt lat="28.832507" lon="105.315324"><ele>590.8836</ele><time>2026-04-03T21:27:21.000Z</time></trkpt>
        <trkpt lat="28.832552" lon="105.315341"><ele>589.17664</ele><time>2026-04-03T21:27:27.000Z</time></trkpt>
        <trkpt lat="28.832603" lon="105.315347"><ele>588.1707</ele><time>2026-04-03T21:27:33.000Z</time></trkpt>
        <trkpt lat="28.832648" lon="105.315342"><ele>588.43134</ele><time>2026-04-03T21:27:35.000Z</time></trkpt>
        <trkpt lat="28.832695" lon="105.315343"><ele>586.3069</ele><time>2026-04-03T21:27:44.000Z</time></trkpt>
        <trkpt lat="28.832744" lon="105.315349"><ele>584.9671</ele><time>2026-04-03T21:27:52.000Z</time></trkpt>
        <trkpt lat="28.832793" lon="105.315365"><ele>580.6067</ele><time>2026-04-03T21:27:58.000Z</time></trkpt>
        <trkpt lat="28.832824" lon="105.315407"><ele>581.2753</ele><time>2026-04-03T21:28:05.000Z</time></trkpt>
        <trkpt lat="28.832858" lon="105.315442"><ele>579.8304</ele><time>2026-04-03T21:28:12.000Z</time></trkpt>
        <trkpt lat="28.832881" lon="105.315489"><ele>579.7202</ele><time>2026-04-03T21:28:23.000Z</time></trkpt>
        <trkpt lat="28.832934" lon="105.315505"><ele>575.53894</ele><time>2026-04-03T21:28:31.000Z</time></trkpt>
        <trkpt lat="28.832977" lon="105.315523"><ele>574.46906</ele><time>2026-04-03T21:28:35.000Z</time></trkpt>
        <trkpt lat="28.833029" lon="105.315533"><ele>577.0568</ele><time>2026-04-03T21:28:47.000Z</time></trkpt>
        <trkpt lat="28.833063" lon="105.3155"><ele>575.8604</ele><time>2026-04-03T21:28:55.000Z</time></trkpt>
        <trkpt lat="28.833037" lon="105.315545"><ele>576.87866</ele><time>2026-04-03T21:29:36.000Z</time></trkpt>
        <trkpt lat="28.833033" lon="105.315599"><ele>578.95245</ele><time>2026-04-03T21:29:41.000Z</time></trkpt>
        <trkpt lat="28.833039" lon="105.315547"><ele>579.1487</ele><time>2026-04-03T21:32:12.000Z</time></trkpt>
        <trkpt lat="28.833083" lon="105.315518"><ele>580.1813</ele><time>2026-04-03T21:32:21.000Z</time></trkpt>
        <trkpt lat="28.833128" lon="105.315496"><ele>580.0157</ele><time>2026-04-03T21:32:29.000Z</time></trkpt>
        <trkpt lat="28.833157" lon="105.315451"><ele>579.6303</ele><time>2026-04-03T21:32:35.000Z</time></trkpt>
        <trkpt lat="28.833194" lon="105.315413"><ele>580.3921</ele><time>2026-04-03T21:32:40.000Z</time></trkpt>
        <trkpt lat="28.833235" lon="105.315386"><ele>580.53156</ele><time>2026-04-03T21:32:45.000Z</time></trkpt>
        <trkpt lat="28.833285" lon="105.315365"><ele>581.35333</ele><time>2026-04-03T21:32:49.000Z</time></trkpt>
        <trkpt lat="28.833329" lon="105.315337"><ele>582.9499</ele><time>2026-04-03T21:32:54.000Z</time></trkpt>
        <trkpt lat="28.833373" lon="105.315306"><ele>583.7975</ele><time>2026-04-03T21:32:58.000Z</time></trkpt>
        <trkpt lat="28.833421" lon="105.31529"><ele>585.5327</ele><time>2026-04-03T21:33:02.000Z</time></trkpt>
        <trkpt lat="28.833468" lon="105.315273"><ele>586.3011</ele><time>2026-04-03T21:33:07.000Z</time></trkpt>
        <trkpt lat="28.833514" lon="105.315261"><ele>586.42236</ele><time>2026-04-03T21:33:11.000Z</time></trkpt>
        <trkpt lat="28.833558" lon="105.315241"><ele>587.6383</ele><time>2026-04-03T21:33:18.000Z</time></trkpt>
        <trkpt lat="28.833604" lon="105.315239"><ele>587.5901</ele><time>2026-04-03T21:33:24.000Z</time></trkpt>
        <trkpt lat="28.83365" lon="105.315229"><ele>587.5609</ele><time>2026-04-03T21:33:30.000Z</time></trkpt>
        <trkpt lat="28.833701" lon="105.315217"><ele>589.182</ele><time>2026-04-03T21:33:37.000Z</time></trkpt>
        <trkpt lat="28.83375" lon="105.315204"><ele>589.4324</ele><time>2026-04-03T21:33:44.000Z</time></trkpt>
        <trkpt lat="28.833801" lon="105.315192"><ele>589.3729</ele><time>2026-04-03T21:33:51.000Z</time></trkpt>
        <trkpt lat="28.833845" lon="105.315164"><ele>589.6092</ele><time>2026-04-03T21:33:57.000Z</time></trkpt>
        <trkpt lat="28.833898" lon="105.31516"><ele>590.10803</ele><time>2026-04-03T21:34:04.000Z</time></trkpt>
        <trkpt lat="28.833949" lon="105.315141"><ele>588.80194</ele><time>2026-04-03T21:34:10.000Z</time></trkpt>
        <trkpt lat="28.833985" lon="105.315094"><ele>588.82184</ele><time>2026-04-03T21:34:16.000Z</time></trkpt>
        <trkpt lat="28.834019" lon="105.315058"><ele>588.99976</ele><time>2026-04-03T21:34:21.000Z</time></trkpt>
        <trkpt lat="28.834063" lon="105.315035"><ele>588.61017</ele><time>2026-04-03T21:34:26.000Z</time></trkpt>
        <trkpt lat="28.834102" lon="105.315"><ele>588.49866</ele><time>2026-04-03T21:34:33.000Z</time></trkpt>
        <trkpt lat="28.834124" lon="105.314953"><ele>587.6287</ele><time>2026-04-03T21:34:40.000Z</time></trkpt>
        <trkpt lat="28.834122" lon="105.314899"><ele>586.35486</ele><time>2026-04-03T21:34:48.000Z</time></trkpt>
        <trkpt lat="28.834128" lon="105.314848"><ele>586.45575</ele><time>2026-04-03T21:34:58.000Z</time></trkpt>
        <trkpt lat="28.834174" lon="105.314864"><ele>586.97437</ele><time>2026-04-03T21:35:16.000Z</time></trkpt>
        <trkpt lat="28.834222" lon="105.314876"><ele>586.0651</ele><time>2026-04-03T21:35:20.000Z</time></trkpt>
        <trkpt lat="28.83427" lon="105.31488"><ele>590.1521</ele><time>2026-04-03T21:35:26.000Z</time></trkpt>
        <trkpt lat="28.834318" lon="105.314898"><ele>589.2325</ele><time>2026-04-03T21:35:32.000Z</time></trkpt>
        <trkpt lat="28.834368" lon="105.314902"><ele>596.846</ele><time>2026-04-03T21:35:50.000Z</time></trkpt>
        <trkpt lat="28.834419" lon="105.314902"><ele>600.2701</ele><time>2026-04-03T21:36:23.000Z</time></trkpt>
        <trkpt lat="28.834461" lon="105.314929"><ele>597.0917</ele><time>2026-04-03T21:36:33.000Z</time></trkpt>
        <trkpt lat="28.834503" lon="105.314948"><ele>598.2315</ele><time>2026-04-03T21:36:44.000Z</time></trkpt>
        <trkpt lat="28.834542" lon="105.314985"><ele>597.7693</ele><time>2026-04-03T21:36:57.000Z</time></trkpt>
        <trkpt lat="28.834588" lon="105.314977"><ele>610.9724</ele><time>2026-04-03T21:41:49.000Z</time></trkpt>
        <trkpt lat="28.83455" lon="105.315006"><ele>600.0287</ele><time>2026-04-03T21:45:29.000Z</time></trkpt>
        <trkpt lat="28.834509" lon="105.314956"><ele>593.7717</ele><time>2026-04-03T21:45:44.000Z</time></trkpt>
        <trkpt lat="28.834473" lon="105.314924"><ele>593.8807</ele><time>2026-04-03T21:45:48.000Z</time></trkpt>
        <trkpt lat="28.834436" lon="105.314889"><ele>595.87164</ele><time>2026-04-03T21:45:53.000Z</time></trkpt>
        <trkpt lat="28.83439" lon="105.31487"><ele>594.00665</ele><time>2026-04-03T21:45:57.000Z</time></trkpt>
        <trkpt lat="28.83434" lon="105.314865"><ele>585.24005</ele><time>2026-04-03T21:46:03.000Z</time></trkpt>
        <trkpt lat="28.834293" lon="105.314853"><ele>581.9268</ele><time>2026-04-03T21:46:10.000Z</time></trkpt>
        <trkpt lat="28.834244" lon="105.314858"><ele>576.9958</ele><time>2026-04-03T21:46:21.000Z</time></trkpt>
        <trkpt lat="28.834196" lon="105.314863"><ele>575.8449</ele><time>2026-04-03T21:46:27.000Z</time></trkpt>
        <trkpt lat="28.834152" lon="105.314848"><ele>575.9066</ele><time>2026-04-03T21:46:33.000Z</time></trkpt>
        <trkpt lat="28.834114" lon="105.314808"><ele>577.3873</ele><time>2026-04-03T21:46:37.000Z</time></trkpt>
        <trkpt lat="28.834072" lon="105.314766"><ele>579.03143</ele><time>2026-04-03T21:46:42.000Z</time></trkpt>
        <trkpt lat="28.834034" lon="105.314731"><ele>580.09735</ele><time>2026-04-03T21:46:47.000Z</time></trkpt>
        <trkpt lat="28.833992" lon="105.314692"><ele>582.40173</ele><time>2026-04-03T21:46:51.000Z</time></trkpt>
        <trkpt lat="28.833945" lon="105.314657"><ele>585.5087</ele><time>2026-04-03T21:46:55.000Z</time></trkpt>
        <trkpt lat="28.833899" lon="105.314625"><ele>588.15295</ele><time>2026-04-03T21:47:00.000Z</time></trkpt>
        <trkpt lat="28.833853" lon="105.3146"><ele>590.2891</ele><time>2026-04-03T21:47:05.000Z</time></trkpt>
        <trkpt lat="28.833802" lon="105.314587"><ele>590.43005</ele><time>2026-04-03T21:47:10.000Z</time></trkpt>
        <trkpt lat="28.833758" lon="105.314574"><ele>590.59485</ele><time>2026-04-03T21:47:19.000Z</time></trkpt>
        <trkpt lat="28.833713" lon="105.314562"><ele>591.2639</ele><time>2026-04-03T21:47:25.000Z</time></trkpt>
        <trkpt lat="28.833664" lon="105.314538"><ele>592.7238</ele><time>2026-04-03T21:47:30.000Z</time></trkpt>
        <trkpt lat="28.833607" lon="105.314534"><ele>594.85913</ele><time>2026-04-03T21:47:36.000Z</time></trkpt>
        <trkpt lat="28.833561" lon="105.314527"><ele>595.67114</ele><time>2026-04-03T21:47:49.000Z</time></trkpt>
        <trkpt lat="28.833517" lon="105.314506"><ele>598.1959</ele><time>2026-04-03T21:48:14.000Z</time></trkpt>
        <trkpt lat="28.833467" lon="105.314511"><ele>597.6008</ele><time>2026-04-03T21:48:38.000Z</time></trkpt>
        <trkpt lat="28.833416" lon="105.314516"><ele>599.9415</ele><time>2026-04-03T21:48:45.000Z</time></trkpt>
        <trkpt lat="28.833362" lon="105.314506"><ele>602.35315</ele><time>2026-04-03T21:48:51.000Z</time></trkpt>
        <trkpt lat="28.833314" lon="105.314508"><ele>603.8739</ele><time>2026-04-03T21:48:56.000Z</time></trkpt>
        <trkpt lat="28.833266" lon="105.314521"><ele>604.11536</ele><time>2026-04-03T21:49:01.000Z</time></trkpt>
        <trkpt lat="28.833221" lon="105.31452"><ele>604.6352</ele><time>2026-04-03T21:49:06.000Z</time></trkpt>
        <trkpt lat="28.833163" lon="105.314517"><ele>605.98236</ele><time>2026-04-03T21:49:10.000Z</time></trkpt>
        <trkpt lat="28.833111" lon="105.314518"><ele>606.5639</ele><time>2026-04-03T21:49:14.000Z</time></trkpt>
        <trkpt lat="28.833064" lon="105.314531"><ele>605.9058</ele><time>2026-04-03T21:49:18.000Z</time></trkpt>
        <trkpt lat="28.833017" lon="105.314548"><ele>604.8665</ele><time>2026-04-03T21:49:22.000Z</time></trkpt>
        <trkpt lat="28.832972" lon="105.314535"><ele>604.98553</ele><time>2026-04-03T21:49:26.000Z</time></trkpt>
        <trkpt lat="28.832936" lon="105.3145"><ele>604.99915</ele><time>2026-04-03T21:49:29.000Z</time></trkpt>
        <trkpt lat="28.832905" lon="105.314457"><ele>604.7284</ele><time>2026-04-03T21:49:34.000Z</time></trkpt>
        <trkpt lat="28.832857" lon="105.314437"><ele>604.4981</ele><time>2026-04-03T21:49:38.000Z</time></trkpt>
        <trkpt lat="28.832808" lon="105.314405"><ele>604.12616</ele><time>2026-04-03T21:49:42.000Z</time></trkpt>
        <trkpt lat="28.832773" lon="105.314363"><ele>603.67993</ele><time>2026-04-03T21:49:46.000Z</time></trkpt>
        <trkpt lat="28.832734" lon="105.314327"><ele>603.4073</ele><time>2026-04-03T21:49:51.000Z</time></trkpt>
        <trkpt lat="28.832704" lon="105.314284"><ele>603.03827</ele><time>2026-04-03T21:49:55.000Z</time></trkpt>
        <trkpt lat="28.832653" lon="105.314265"><ele>601.3528</ele><time>2026-04-03T21:50:01.000Z</time></trkpt>
        <trkpt lat="28.832599" lon="105.314254"><ele>600.62335</ele><time>2026-04-03T21:50:06.000Z</time></trkpt>
        <trkpt lat="28.832547" lon="105.31425"><ele>600.21344</ele><time>2026-04-03T21:50:11.000Z</time></trkpt>
        <trkpt lat="28.832493" lon="105.314232"><ele>599.4524</ele><time>2026-04-03T21:50:16.000Z</time></trkpt>
        <trkpt lat="28.832446" lon="105.314232"><ele>599.877</ele><time>2026-04-03T21:50:23.000Z</time></trkpt>
        <trkpt lat="28.832404" lon="105.314205"><ele>600.57556</ele><time>2026-04-03T21:50:28.000Z</time></trkpt>
        <trkpt lat="28.832361" lon="105.314174"><ele>601.4132</ele><time>2026-04-03T21:50:32.000Z</time></trkpt>
        <trkpt lat="28.83231" lon="105.314159"><ele>602.68</ele><time>2026-04-03T21:50:39.000Z</time></trkpt>
        <trkpt lat="28.83226" lon="105.314146"><ele>603.19855</ele><time>2026-04-03T21:50:44.000Z</time></trkpt>
        <trkpt lat="28.832211" lon="105.314152"><ele>603.4188</ele><time>2026-04-03T21:50:49.000Z</time></trkpt>
        <trkpt lat="28.832162" lon="105.314143"><ele>604.2573</ele><time>2026-04-03T21:50:55.000Z</time></trkpt>
        <trkpt lat="28.832115" lon="105.314135"><ele>605.50946</ele><time>2026-04-03T21:50:59.000Z</time></trkpt>
        <trkpt lat="28.832068" lon="105.314134"><ele>605.5431</ele><time>2026-04-03T21:51:04.000Z</time></trkpt>
        <trkpt lat="28.83202" lon="105.314127"><ele>605.432</ele><time>2026-04-03T21:51:09.000Z</time></trkpt>
        <trkpt lat="28.831967" lon="105.314119"><ele>605.4168</ele><time>2026-04-03T21:51:14.000Z</time></trkpt>
        <trkpt lat="28.831922" lon="105.314097"><ele>606.53796</ele><time>2026-04-03T21:51:18.000Z</time></trkpt>
        <trkpt lat="28.83188" lon="105.314068"><ele>605.9488</ele><time>2026-04-03T21:51:23.000Z</time></trkpt>
        <trkpt lat="28.831843" lon="105.314037"><ele>606.2253</ele><time>2026-04-03T21:51:28.000Z</time></trkpt>
        <trkpt lat="28.831808" lon="105.314001"><ele>606.90967</ele><time>2026-04-03T21:51:32.000Z</time></trkpt>
        <trkpt lat="28.831774" lon="105.313966"><ele>606.0414</ele><time>2026-04-03T21:51:37.000Z</time></trkpt>
        <trkpt lat="28.83174" lon="105.313928"><ele>606.3109</ele><time>2026-04-03T21:51:42.000Z</time></trkpt>
        <trkpt lat="28.831699" lon="105.313898"><ele>606.5663</ele><time>2026-04-03T21:51:46.000Z</time></trkpt>
        <trkpt lat="28.831663" lon="105.313862"><ele>606.8031</ele><time>2026-04-03T21:51:50.000Z</time></trkpt>
        <trkpt lat="28.831621" lon="105.313834"><ele>606.14453</ele><time>2026-04-03T21:51:55.000Z</time></trkpt>
        <trkpt lat="28.831573" lon="105.313821"><ele>606.17084</ele><time>2026-04-03T21:52:00.000Z</time></trkpt>
        <trkpt lat="28.831532" lon="105.313788"><ele>607.8485</ele><time>2026-04-03T21:52:07.000Z</time></trkpt>
        <trkpt lat="28.831477" lon="105.313783"><ele>610.6176</ele><time>2026-04-03T21:52:13.000Z</time></trkpt>
        <trkpt lat="28.831429" lon="105.313763"><ele>613.05066</ele><time>2026-04-03T21:52:19.000Z</time></trkpt>
        <trkpt lat="28.831379" lon="105.313768"><ele>612.9407</ele><time>2026-04-03T21:52:25.000Z</time></trkpt>
        <trkpt lat="28.831322" lon="105.313755"><ele>614.5442</ele><time>2026-04-03T21:52:33.000Z</time></trkpt>
        <trkpt lat="28.831274" lon="105.313738"><ele>615.2334</ele><time>2026-04-03T21:52:39.000Z</time></trkpt>
        <trkpt lat="28.831228" lon="105.313722"><ele>616.16064</ele><time>2026-04-03T21:52:46.000Z</time></trkpt>
        <trkpt lat="28.831186" lon="105.3137"><ele>616.81616</ele><time>2026-04-03T21:52:51.000Z</time></trkpt>
        <trkpt lat="28.831139" lon="105.313681"><ele>616.2207</ele><time>2026-04-03T21:52:58.000Z</time></trkpt>
        <trkpt lat="28.831095" lon="105.313664"><ele>616.6676</ele><time>2026-04-03T21:53:03.000Z</time></trkpt>
        <trkpt lat="28.831055" lon="105.313637"><ele>615.2772</ele><time>2026-04-03T21:53:07.000Z</time></trkpt>
        <trkpt lat="28.831005" lon="105.313635"><ele>617.6038</ele><time>2026-04-03T21:53:12.000Z</time></trkpt>
        <trkpt lat="28.830958" lon="105.31363"><ele>619.2565</ele><time>2026-04-03T21:53:18.000Z</time></trkpt>
        <trkpt lat="28.8309" lon="105.313623"><ele>619.3942</ele><time>2026-04-03T21:53:23.000Z</time></trkpt>
        <trkpt lat="28.830852" lon="105.31361"><ele>621.2896</ele><time>2026-04-03T21:53:29.000Z</time></trkpt>
        <trkpt lat="28.830801" lon="105.313596"><ele>621.8152</ele><time>2026-04-03T21:53:33.000Z</time></trkpt>
        <trkpt lat="28.830754" lon="105.313585"><ele>622.68915</ele><time>2026-04-03T21:53:38.000Z</time></trkpt>
        <trkpt lat="28.830699" lon="105.31359"><ele>622.8049</ele><time>2026-04-03T21:53:43.000Z</time></trkpt>
        <trkpt lat="28.830647" lon="105.31359"><ele>622.458</ele><time>2026-04-03T21:53:47.000Z</time></trkpt>
        <trkpt lat="28.830603" lon="105.313579"><ele>622.9442</ele><time>2026-04-03T21:53:51.000Z</time></trkpt>
        <trkpt lat="28.830551" lon="105.31356"><ele>622.9135</ele><time>2026-04-03T21:53:56.000Z</time></trkpt>
        <trkpt lat="28.830503" lon="105.313564"><ele>623.18823</ele><time>2026-04-03T21:54:00.000Z</time></trkpt>
        <trkpt lat="28.830454" lon="105.313572"><ele>624.3263</ele><time>2026-04-03T21:54:05.000Z</time></trkpt>
        <trkpt lat="28.830415" lon="105.313543"><ele>623.7555</ele><time>2026-04-03T21:54:25.000Z</time></trkpt>
        <trkpt lat="28.830365" lon="105.313551"><ele>622.3033</ele><time>2026-04-03T21:54:33.000Z</time></trkpt>
        <trkpt lat="28.830329" lon="105.313584"><ele>621.1801</ele><time>2026-04-03T21:55:14.000Z</time></trkpt>
        <trkpt lat="28.830325" lon="105.313646"><ele>619.9759</ele><time>2026-04-03T21:55:41.000Z</time></trkpt>
        <trkpt lat="28.830336" lon="105.313758"><ele>620.69855</ele><time>2026-04-03T21:56:00.000Z</time></trkpt>
        <trkpt lat="28.830312" lon="105.313704"><ele>618.2116</ele><time>2026-04-03T21:56:16.000Z</time></trkpt>
        <trkpt lat="28.830294" lon="105.313656"><ele>620.6268</ele><time>2026-04-03T21:56:33.000Z</time></trkpt>
        <trkpt lat="28.830304" lon="105.313599"><ele>620.4087</ele><time>2026-04-03T21:56:43.000Z</time></trkpt>
        <trkpt lat="28.830343" lon="105.313573"><ele>620.91077</ele><time>2026-04-03T21:57:37.000Z</time></trkpt>
        <trkpt lat="28.830313" lon="105.313614"><ele>622.00415</ele><time>2026-04-03T21:59:01.000Z</time></trkpt>
        <trkpt lat="28.830318" lon="105.31361"><ele>624.24835</ele><time>2026-04-03T21:59:22.000Z</time></trkpt>
        <trkpt lat="28.830355" lon="105.313573"><ele>624.3674</ele><time>2026-04-03T21:59:27.000Z</time></trkpt>
        <trkpt lat="28.830375" lon="105.313525"><ele>622.0403</ele><time>2026-04-03T21:59:39.000Z</time></trkpt>
        <trkpt lat="28.830338" lon="105.313491"><ele>622.67377</ele><time>2026-04-03T21:59:48.000Z</time></trkpt>
        <trkpt lat="28.830282" lon="105.313487"><ele>621.62634</ele><time>2026-04-03T21:59:54.000Z</time></trkpt>
        <trkpt lat="28.830226" lon="105.313496"><ele>621.6133</ele><time>2026-04-03T22:00:00.000Z</time></trkpt>
        <trkpt lat="28.83018" lon="105.313485"><ele>621.674</ele><time>2026-04-03T22:00:05.000Z</time></trkpt>
        <trkpt lat="28.830132" lon="105.313487"><ele>621.2167</ele><time>2026-04-03T22:00:10.000Z</time></trkpt>
        <trkpt lat="28.830082" lon="105.313478"><ele>620.8556</ele><time>2026-04-03T22:00:14.000Z</time></trkpt>
        <trkpt lat="28.830041" lon="105.313451"><ele>620.81384</ele><time>2026-04-03T22:00:19.000Z</time></trkpt>
        <trkpt lat="28.829998" lon="105.313437"><ele>621.1032</ele><time>2026-04-03T22:00:23.000Z</time></trkpt>
        <trkpt lat="28.829943" lon="105.313436"><ele>620.01056</ele><time>2026-04-03T22:00:29.000Z</time></trkpt>
        <trkpt lat="28.829892" lon="105.313446"><ele>620.6423</ele><time>2026-04-03T22:00:34.000Z</time></trkpt>
        <trkpt lat="28.82984" lon="105.313433"><ele>620.87177</ele><time>2026-04-03T22:00:38.000Z</time></trkpt>
        <trkpt lat="28.82979" lon="105.313432"><ele>621.99176</ele><time>2026-04-03T22:00:43.000Z</time></trkpt>
        <trkpt lat="28.829729" lon="105.313421"><ele>622.30725</ele><time>2026-04-03T22:00:48.000Z</time></trkpt>
        <trkpt lat="28.829679" lon="105.313418"><ele>623.75275</ele><time>2026-04-03T22:00:51.000Z</time></trkpt>
        <trkpt lat="28.829631" lon="105.313426"><ele>622.22473</ele><time>2026-04-03T22:00:55.000Z</time></trkpt>
        <trkpt lat="28.829587" lon="105.313392"><ele>621.6068</ele><time>2026-04-03T22:00:59.000Z</time></trkpt>
        <trkpt lat="28.829547" lon="105.313365"><ele>621.3834</ele><time>2026-04-03T22:01:03.000Z</time></trkpt>
        <trkpt lat="28.829499" lon="105.313332"><ele>620.86975</ele><time>2026-04-03T22:01:07.000Z</time></trkpt>
        <trkpt lat="28.829467" lon="105.313288"><ele>621.3083</ele><time>2026-04-03T22:01:11.000Z</time></trkpt>
        <trkpt lat="28.829437" lon="105.313244"><ele>621.59955</ele><time>2026-04-03T22:01:16.000Z</time></trkpt>
        <trkpt lat="28.829428" lon="105.31319"><ele>620.84216</ele><time>2026-04-03T22:01:23.000Z</time></trkpt>
        <trkpt lat="28.82943" lon="105.313138"><ele>622.6408</ele><time>2026-04-03T22:01:30.000Z</time></trkpt>
        <trkpt lat="28.829385" lon="105.313107"><ele>623.4242</ele><time>2026-04-03T22:01:35.000Z</time></trkpt>
        <trkpt lat="28.829349" lon="105.31307"><ele>624.3963</ele><time>2026-04-03T22:01:40.000Z</time></trkpt>
        <trkpt lat="28.829316" lon="105.313022"><ele>624.0336</ele><time>2026-04-03T22:01:45.000Z</time></trkpt>
        <trkpt lat="28.829294" lon="105.31297"><ele>623.77234</ele><time>2026-04-03T22:01:51.000Z</time></trkpt>
        <trkpt lat="28.829265" lon="105.312931"><ele>624.5472</ele><time>2026-04-03T22:01:55.000Z</time></trkpt>
        <trkpt lat="28.829241" lon="105.31288"><ele>625.6189</ele><time>2026-04-03T22:02:00.000Z</time></trkpt>
        <trkpt lat="28.829207" lon="105.312837"><ele>626.3738</ele><time>2026-04-03T22:02:03.000Z</time></trkpt>
        <trkpt lat="28.829172" lon="105.312796"><ele>625.726</ele><time>2026-04-03T22:02:08.000Z</time></trkpt>
        <trkpt lat="28.829159" lon="105.312735"><ele>627.2977</ele><time>2026-04-03T22:02:13.000Z</time></trkpt>
        <trkpt lat="28.829131" lon="105.312685"><ele>627.93054</ele><time>2026-04-03T22:02:17.000Z</time></trkpt>
        <trkpt lat="28.829107" lon="105.312637"><ele>628.4103</ele><time>2026-04-03T22:02:21.000Z</time></trkpt>
        <trkpt lat="28.829087" lon="105.312591"><ele>628.6201</ele><time>2026-04-03T22:02:25.000Z</time></trkpt>
        <trkpt lat="28.829042" lon="105.31257"><ele>629.26483</ele><time>2026-04-03T22:02:30.000Z</time></trkpt>
        <trkpt lat="28.829046" lon="105.312518"><ele>628.9901</ele><time>2026-04-03T22:02:37.000Z</time></trkpt>
        <trkpt lat="28.829041" lon="105.312466"><ele>628.71594</ele><time>2026-04-03T22:02:43.000Z</time></trkpt>
        <trkpt lat="28.82902" lon="105.31241"><ele>629.6498</ele><time>2026-04-03T22:02:53.000Z</time></trkpt>
        <trkpt lat="28.829013" lon="105.312355"><ele>630.84973</ele><time>2026-04-03T22:02:58.000Z</time></trkpt>
        <trkpt lat="28.829017" lon="105.312302"><ele>632.3797</ele><time>2026-04-03T22:03:03.000Z</time></trkpt>
        <trkpt lat="28.829008" lon="105.312249"><ele>633.2653</ele><time>2026-04-03T22:03:07.000Z</time></trkpt>
        <trkpt lat="28.829013" lon="105.31219"><ele>634.0387</ele><time>2026-04-03T22:03:13.000Z</time></trkpt>
        <trkpt lat="28.829006" lon="105.312135"><ele>633.70087</ele><time>2026-04-03T22:03:18.000Z</time></trkpt>
        <trkpt lat="28.829012" lon="105.312074"><ele>633.45404</ele><time>2026-04-03T22:03:23.000Z</time></trkpt>
        <trkpt lat="28.829004" lon="105.312022"><ele>633.82446</ele><time>2026-04-03T22:03:27.000Z</time></trkpt>
        <trkpt lat="28.828995" lon="105.311968"><ele>633.652</ele><time>2026-04-03T22:03:31.000Z</time></trkpt>
        <trkpt lat="28.828977" lon="105.31191"><ele>634.05884</ele><time>2026-04-03T22:03:35.000Z</time></trkpt>
        <trkpt lat="28.82895" lon="105.311868"><ele>634.0426</ele><time>2026-04-03T22:03:39.000Z</time></trkpt>
        <trkpt lat="28.828921" lon="105.311813"><ele>633.55707</ele><time>2026-04-03T22:03:45.000Z</time></trkpt>
        <trkpt lat="28.828881" lon="105.311781"><ele>634.13086</ele><time>2026-04-03T22:03:49.000Z</time></trkpt>
        <trkpt lat="28.828844" lon="105.31175"><ele>634.42487</ele><time>2026-04-03T22:03:52.000Z</time></trkpt>
        <trkpt lat="28.828794" lon="105.311725"><ele>634.84045</ele><time>2026-04-03T22:03:57.000Z</time></trkpt>
        <trkpt lat="28.828753" lon="105.311701"><ele>635.2764</ele><time>2026-04-03T22:04:02.000Z</time></trkpt>
        <trkpt lat="28.828702" lon="105.31168"><ele>634.68726</ele><time>2026-04-03T22:04:06.000Z</time></trkpt>
        <trkpt lat="28.828654" lon="105.311642"><ele>635.0029</ele><time>2026-04-03T22:04:11.000Z</time></trkpt>
        <trkpt lat="28.828606" lon="105.311601"><ele>634.9813</ele><time>2026-04-03T22:04:16.000Z</time></trkpt>
        <trkpt lat="28.828558" lon="105.311597"><ele>633.7049</ele><time>2026-04-03T22:04:22.000Z</time></trkpt>
        <trkpt lat="28.828503" lon="105.311623"><ele>634.0047</ele><time>2026-04-03T22:04:28.000Z</time></trkpt>
        <trkpt lat="28.828469" lon="105.311611"><ele>634.58563</ele><time>2026-04-03T22:05:50.000Z</time></trkpt>
        <trkpt lat="28.828542" lon="105.311542"><ele>635.61584</ele><time>2026-04-03T22:06:23.000Z</time></trkpt>
        <trkpt lat="28.828565" lon="105.311604"><ele>634.4232</ele><time>2026-04-03T22:06:35.000Z</time></trkpt>
        <trkpt lat="28.828553" lon="105.31166"><ele>636.08105</ele><time>2026-04-03T22:06:40.000Z</time></trkpt>
        <trkpt lat="28.828558" lon="105.311539"><ele>635.9405</ele><time>2026-04-03T22:07:39.000Z</time></trkpt>
        <trkpt lat="28.828558" lon="105.311484"><ele>634.46326</ele><time>2026-04-03T22:08:26.000Z</time></trkpt>
        <trkpt lat="28.828491" lon="105.311404"><ele>635.4436</ele><time>2026-04-03T22:08:51.000Z</time></trkpt>
        <trkpt lat="28.828439" lon="105.311412"><ele>635.00165</ele><time>2026-04-03T22:09:01.000Z</time></trkpt>
        <trkpt lat="28.828394" lon="105.31143"><ele>633.3096</ele><time>2026-04-03T22:10:02.000Z</time></trkpt>
        <trkpt lat="28.82839" lon="105.311485"><ele>633.76105</ele><time>2026-04-03T22:10:50.000Z</time></trkpt>
        <trkpt lat="28.828419" lon="105.311446"><ele>634.906</ele><time>2026-04-03T22:12:00.000Z</time></trkpt>
        <trkpt lat="28.828368" lon="105.31147"><ele>633.1482</ele><time>2026-04-03T22:12:36.000Z</time></trkpt>
        <trkpt lat="28.828319" lon="105.311482"><ele>632.1872</ele><time>2026-04-03T22:12:43.000Z</time></trkpt>
        <trkpt lat="28.828272" lon="105.311522"><ele>632.5113</ele><time>2026-04-03T22:12:48.000Z</time></trkpt>
        <trkpt lat="28.828225" lon="105.31151"><ele>633.0245</ele><time>2026-04-03T22:12:55.000Z</time></trkpt>
        <trkpt lat="28.828178" lon="105.311508"><ele>632.5929</ele><time>2026-04-03T22:12:59.000Z</time></trkpt>
        <trkpt lat="28.828129" lon="105.311503"><ele>632.94904</ele><time>2026-04-03T22:13:05.000Z</time></trkpt>
        <trkpt lat="28.828079" lon="105.311482"><ele>633.20166</ele><time>2026-04-03T22:13:10.000Z</time></trkpt>
        <trkpt lat="28.828023" lon="105.311497"><ele>632.3334</ele><time>2026-04-03T22:13:15.000Z</time></trkpt>
        <trkpt lat="28.827977" lon="105.311492"><ele>632.3769</ele><time>2026-04-03T22:13:21.000Z</time></trkpt>
        <trkpt lat="28.827932" lon="105.311485"><ele>632.0418</ele><time>2026-04-03T22:13:26.000Z</time></trkpt>
        <trkpt lat="28.827883" lon="105.311463"><ele>632.1514</ele><time>2026-04-03T22:13:31.000Z</time></trkpt>
        <trkpt lat="28.827849" lon="105.311427"><ele>631.72797</ele><time>2026-04-03T22:13:36.000Z</time></trkpt>
        <trkpt lat="28.827802" lon="105.311384"><ele>632.3655</ele><time>2026-04-03T22:13:42.000Z</time></trkpt>
        <trkpt lat="28.827764" lon="105.311352"><ele>632.60614</ele><time>2026-04-03T22:13:45.000Z</time></trkpt>
        <trkpt lat="28.827724" lon="105.311326"><ele>632.5205</ele><time>2026-04-03T22:13:49.000Z</time></trkpt>
        <trkpt lat="28.827685" lon="105.311288"><ele>634.1836</ele><time>2026-04-03T22:13:53.000Z</time></trkpt>
        <trkpt lat="28.827655" lon="105.311247"><ele>634.21576</ele><time>2026-04-03T22:13:59.000Z</time></trkpt>
        <trkpt lat="28.827627" lon="105.311195"><ele>633.5804</ele><time>2026-04-03T22:14:05.000Z</time></trkpt>
        <trkpt lat="28.827597" lon="105.311155"><ele>634.24176</ele><time>2026-04-03T22:14:09.000Z</time></trkpt>
        <trkpt lat="28.827558" lon="105.311126"><ele>632.0041</ele><time>2026-04-03T22:14:14.000Z</time></trkpt>
        <trkpt lat="28.827529" lon="105.311079"><ele>631.85913</ele><time>2026-04-03T22:14:20.000Z</time></trkpt>
        <trkpt lat="28.827493" lon="105.311043"><ele>632.2853</ele><time>2026-04-03T22:14:24.000Z</time></trkpt>
        <trkpt lat="28.827453" lon="105.310996"><ele>630.58246</ele><time>2026-04-03T22:14:29.000Z</time></trkpt>
        <trkpt lat="28.82743" lon="105.31095"><ele>630.0717</ele><time>2026-04-03T22:14:32.000Z</time></trkpt>
        <trkpt lat="28.827418" lon="105.310899"><ele>628.5686</ele><time>2026-04-03T22:14:37.000Z</time></trkpt>
        <trkpt lat="28.82741" lon="105.310839"><ele>628.6019</ele><time>2026-04-03T22:14:42.000Z</time></trkpt>
        <trkpt lat="28.827419" lon="105.31078"><ele>628.3628</ele><time>2026-04-03T22:14:46.000Z</time></trkpt>
        <trkpt lat="28.827444" lon="105.310722"><ele>628.4162</ele><time>2026-04-03T22:14:51.000Z</time></trkpt>
        <trkpt lat="28.827477" lon="105.310674"><ele>628.13696</ele><time>2026-04-03T22:14:57.000Z</time></trkpt>
        <trkpt lat="28.82749" lon="105.310613"><ele>628.54114</ele><time>2026-04-03T22:15:01.000Z</time></trkpt>
        <trkpt lat="28.827502" lon="105.310557"><ele>628.7317</ele><time>2026-04-03T22:15:06.000Z</time></trkpt>
        <trkpt lat="28.827531" lon="105.31051"><ele>629.2948</ele><time>2026-04-03T22:15:10.000Z</time></trkpt>
        <trkpt lat="28.827553" lon="105.310462"><ele>626.9747</ele><time>2026-04-03T22:15:16.000Z</time></trkpt>
        <trkpt lat="28.827586" lon="105.310419"><ele>625.8788</ele><time>2026-04-03T22:15:22.000Z</time></trkpt>
        <trkpt lat="28.827599" lon="105.310368"><ele>624.55145</ele><time>2026-04-03T22:15:28.000Z</time></trkpt>
        <trkpt lat="28.827623" lon="105.310313"><ele>624.2157</ele><time>2026-04-03T22:15:33.000Z</time></trkpt>
        <trkpt lat="28.827646" lon="105.310258"><ele>623.5623</ele><time>2026-04-03T22:15:38.000Z</time></trkpt>
        <trkpt lat="28.827654" lon="105.310205"><ele>623.2086</ele><time>2026-04-03T22:15:44.000Z</time></trkpt>
        <trkpt lat="28.827641" lon="105.310153"><ele>623.3392</ele><time>2026-04-03T22:15:49.000Z</time></trkpt>
        <trkpt lat="28.827643" lon="105.310101"><ele>623.666</ele><time>2026-04-03T22:15:57.000Z</time></trkpt>
        <trkpt lat="28.827615" lon="105.310056"><ele>623.29004</ele><time>2026-04-03T22:16:02.000Z</time></trkpt>
        <trkpt lat="28.827572" lon="105.310033"><ele>623.8655</ele><time>2026-04-03T22:16:05.000Z</time></trkpt>
        <trkpt lat="28.827555" lon="105.309983"><ele>623.817</ele><time>2026-04-03T22:16:12.000Z</time></trkpt>
        <trkpt lat="28.827528" lon="105.309936"><ele>623.14716</ele><time>2026-04-03T22:16:17.000Z</time></trkpt>
        <trkpt lat="28.827506" lon="105.309888"><ele>623.29504</ele><time>2026-04-03T22:16:22.000Z</time></trkpt>
        <trkpt lat="28.827488" lon="105.309833"><ele>623.9106</ele><time>2026-04-03T22:16:27.000Z</time></trkpt>
        <trkpt lat="28.82748" lon="105.309781"><ele>623.8859</ele><time>2026-04-03T22:16:30.000Z</time></trkpt>
        <trkpt lat="28.827476" lon="105.309719"><ele>623.74335</ele><time>2026-04-03T22:16:34.000Z</time></trkpt>
        <trkpt lat="28.827469" lon="105.309668"><ele>623.30634</ele><time>2026-04-03T22:16:39.000Z</time></trkpt>
        <trkpt lat="28.82743" lon="105.309632"><ele>622.4635</ele><time>2026-04-03T22:16:44.000Z</time></trkpt>
        <trkpt lat="28.827409" lon="105.309568"><ele>622.1074</ele><time>2026-04-03T22:16:50.000Z</time></trkpt>
        <trkpt lat="28.827404" lon="105.309504"><ele>621.4517</ele><time>2026-04-03T22:16:57.000Z</time></trkpt>
        <trkpt lat="28.827396" lon="105.309449"><ele>622.21326</ele><time>2026-04-03T22:17:01.000Z</time></trkpt>
        <trkpt lat="28.827399" lon="105.309394"><ele>622.42035</ele><time>2026-04-03T22:17:05.000Z</time></trkpt>
        <trkpt lat="28.827386" lon="105.309333"><ele>622.5923</ele><time>2026-04-03T22:17:10.000Z</time></trkpt>
        <trkpt lat="28.827363" lon="105.309279"><ele>622.25287</ele><time>2026-04-03T22:17:14.000Z</time></trkpt>
        <trkpt lat="28.827358" lon="105.309223"><ele>620.9466</ele><time>2026-04-03T22:17:21.000Z</time></trkpt>
        <trkpt lat="28.827373" lon="105.309172"><ele>620.4459</ele><time>2026-04-03T22:17:26.000Z</time></trkpt>
        <trkpt lat="28.827419" lon="105.309138"><ele>619.1723</ele><time>2026-04-03T22:17:34.000Z</time></trkpt>
        <trkpt lat="28.82747" lon="105.309142"><ele>619.969</ele><time>2026-04-03T22:17:41.000Z</time></trkpt>
        <trkpt lat="28.82752" lon="105.309128"><ele>619.39124</ele><time>2026-04-03T22:17:48.000Z</time></trkpt>
        <trkpt lat="28.827566" lon="105.309107"><ele>619.715</ele><time>2026-04-03T22:17:54.000Z</time></trkpt>
        <trkpt lat="28.827616" lon="105.309092"><ele>620.04565</ele><time>2026-04-03T22:17:58.000Z</time></trkpt>
        <trkpt lat="28.827637" lon="105.309038"><ele>620.4907</ele><time>2026-04-03T22:18:04.000Z</time></trkpt>
        <trkpt lat="28.827626" lon="105.308985"><ele>622.2436</ele><time>2026-04-03T22:18:10.000Z</time></trkpt>
        <trkpt lat="28.827617" lon="105.308928"><ele>622.0578</ele><time>2026-04-03T22:18:16.000Z</time></trkpt>
        <trkpt lat="28.827619" lon="105.30887"><ele>620.6564</ele><time>2026-04-03T22:18:22.000Z</time></trkpt>
        <trkpt lat="28.827607" lon="105.30882"><ele>618.7082</ele><time>2026-04-03T22:18:26.000Z</time></trkpt>
        <trkpt lat="28.827615" lon="105.308768"><ele>619.29224</ele><time>2026-04-03T22:18:30.000Z</time></trkpt>
        <trkpt lat="28.827625" lon="105.308712"><ele>619.25226</ele><time>2026-04-03T22:18:35.000Z</time></trkpt>
        <trkpt lat="28.827646" lon="105.308662"><ele>619.4124</ele><time>2026-04-03T22:18:40.000Z</time></trkpt>
        <trkpt lat="28.827661" lon="105.308611"><ele>619.3756</ele><time>2026-04-03T22:18:45.000Z</time></trkpt>
        <trkpt lat="28.82768" lon="105.308565"><ele>619.2249</ele><time>2026-04-03T22:18:50.000Z</time></trkpt>
        <trkpt lat="28.827706" lon="105.308517"><ele>618.9848</ele><time>2026-04-03T22:18:55.000Z</time></trkpt>
        <trkpt lat="28.827709" lon="105.308463"><ele>618.7719</ele><time>2026-04-03T22:19:00.000Z</time></trkpt>
        <trkpt lat="28.827678" lon="105.308416"><ele>616.29846</ele><time>2026-04-03T22:19:07.000Z</time></trkpt>
        <trkpt lat="28.82763" lon="105.30839"><ele>615.5066</ele><time>2026-04-03T22:19:14.000Z</time></trkpt>
        <trkpt lat="28.827578" lon="105.308396"><ele>615.0102</ele><time>2026-04-03T22:19:21.000Z</time></trkpt>
        <trkpt lat="28.827532" lon="105.308401"><ele>615.3056</ele><time>2026-04-03T22:19:27.000Z</time></trkpt>
        <trkpt lat="28.827482" lon="105.308397"><ele>613.02313</ele><time>2026-04-03T22:19:35.000Z</time></trkpt>
        <trkpt lat="28.827437" lon="105.308394"><ele>613.1736</ele><time>2026-04-03T22:19:40.000Z</time></trkpt>
        <trkpt lat="28.827391" lon="105.308388"><ele>614.2331</ele><time>2026-04-03T22:19:46.000Z</time></trkpt>
        <trkpt lat="28.827345" lon="105.308364"><ele>614.78406</ele><time>2026-04-03T22:19:52.000Z</time></trkpt>
        <trkpt lat="28.827298" lon="105.308343"><ele>614.9704</ele><time>2026-04-03T22:19:59.000Z</time></trkpt>
        <trkpt lat="28.827255" lon="105.30831"><ele>614.3129</ele><time>2026-04-03T22:20:05.000Z</time></trkpt>
        <trkpt lat="28.827228" lon="105.308263"><ele>612.6664</ele><time>2026-04-03T22:20:12.000Z</time></trkpt>
        <trkpt lat="28.827187" lon="105.308227"><ele>613.20526</ele><time>2026-04-03T22:20:18.000Z</time></trkpt>
        <trkpt lat="28.827163" lon="105.308179"><ele>613.54663</ele><time>2026-04-03T22:20:23.000Z</time></trkpt>
        <trkpt lat="28.827146" lon="105.308131"><ele>612.8861</ele><time>2026-04-03T22:20:28.000Z</time></trkpt>
        <trkpt lat="28.827117" lon="105.30808"><ele>613.2231</ele><time>2026-04-03T22:20:34.000Z</time></trkpt>
        <trkpt lat="28.827078" lon="105.308037"><ele>613.1724</ele><time>2026-04-03T22:20:40.000Z</time></trkpt>
        <trkpt lat="28.82705" lon="105.307997"><ele>613.69037</ele><time>2026-04-03T22:20:44.000Z</time></trkpt>
        <trkpt lat="28.827032" lon="105.307941"><ele>613.65906</ele><time>2026-04-03T22:20:50.000Z</time></trkpt>
        <trkpt lat="28.827012" lon="105.307895"><ele>612.7861</ele><time>2026-04-03T22:20:55.000Z</time></trkpt>
        <trkpt lat="28.826997" lon="105.307835"><ele>613.4902</ele><time>2026-04-03T22:21:02.000Z</time></trkpt>
        <trkpt lat="28.82699" lon="105.307779"><ele>612.97864</ele><time>2026-04-03T22:21:07.000Z</time></trkpt>
        <trkpt lat="28.82699" lon="105.307723"><ele>613.0393</ele><time>2026-04-03T22:21:12.000Z</time></trkpt>
        <trkpt lat="28.826995" lon="105.307669"><ele>613.2548</ele><time>2026-04-03T22:21:17.000Z</time></trkpt>
        <trkpt lat="28.827006" lon="105.307616"><ele>613.48566</ele><time>2026-04-03T22:21:22.000Z</time></trkpt>
        <trkpt lat="28.827026" lon="105.307569"><ele>613.3002</ele><time>2026-04-03T22:21:28.000Z</time></trkpt>
        <trkpt lat="28.827035" lon="105.307513"><ele>614.4749</ele><time>2026-04-03T22:21:33.000Z</time></trkpt>
        <trkpt lat="28.827062" lon="105.307466"><ele>615.36346</ele><time>2026-04-03T22:21:38.000Z</time></trkpt>
        <trkpt lat="28.827109" lon="105.307435"><ele>617.85754</ele><time>2026-04-03T22:21:44.000Z</time></trkpt>
        <trkpt lat="28.827152" lon="105.307414"><ele>619.1983</ele><time>2026-04-03T22:21:49.000Z</time></trkpt>
        <trkpt lat="28.82719" lon="105.307382"><ele>620.0381</ele><time>2026-04-03T22:21:55.000Z</time></trkpt>
        <trkpt lat="28.827225" lon="105.307346"><ele>621.3092</ele><time>2026-04-03T22:22:02.000Z</time></trkpt>
        <trkpt lat="28.82726" lon="105.307309"><ele>622.1541</ele><time>2026-04-03T22:22:08.000Z</time></trkpt>
        <trkpt lat="28.827292" lon="105.307269"><ele>623.50586</ele><time>2026-04-03T22:22:13.000Z</time></trkpt>
        <trkpt lat="28.827316" lon="105.307223"><ele>624.61053</ele><time>2026-04-03T22:22:18.000Z</time></trkpt>
        <trkpt lat="28.827312" lon="105.307167"><ele>625.0073</ele><time>2026-04-03T22:22:26.000Z</time></trkpt>
        <trkpt lat="28.827274" lon="105.307135"><ele>626.3279</ele><time>2026-04-03T22:22:33.000Z</time></trkpt>
        <trkpt lat="28.827226" lon="105.307115"><ele>625.8406</ele><time>2026-04-03T22:22:40.000Z</time></trkpt>
        <trkpt lat="28.827183" lon="105.307096"><ele>624.7459</ele><time>2026-04-03T22:22:46.000Z</time></trkpt>
        <trkpt lat="28.827131" lon="105.307091"><ele>622.54</ele><time>2026-04-03T22:22:52.000Z</time></trkpt>
        <trkpt lat="28.827079" lon="105.307078"><ele>621.308</ele><time>2026-04-03T22:22:58.000Z</time></trkpt>
        <trkpt lat="28.827034" lon="105.307048"><ele>620.0012</ele><time>2026-04-03T22:23:04.000Z</time></trkpt>
        <trkpt lat="28.826995" lon="105.307015"><ele>618.6844</ele><time>2026-04-03T22:23:09.000Z</time></trkpt>
        <trkpt lat="28.82696" lon="105.306969"><ele>618.01355</ele><time>2026-04-03T22:23:14.000Z</time></trkpt>
        <trkpt lat="28.826933" lon="105.306917"><ele>617.8092</ele><time>2026-04-03T22:23:19.000Z</time></trkpt>
        <trkpt lat="28.826921" lon="105.306858"><ele>616.9676</ele><time>2026-04-03T22:23:24.000Z</time></trkpt>
        <trkpt lat="28.826911" lon="105.306804"><ele>617.5111</ele><time>2026-04-03T22:23:29.000Z</time></trkpt>
        <trkpt lat="28.826908" lon="105.30675"><ele>617.1791</ele><time>2026-04-03T22:23:33.000Z</time></trkpt>
        <trkpt lat="28.826904" lon="105.306699"><ele>617.6471</ele><time>2026-04-03T22:23:38.000Z</time></trkpt>
        <trkpt lat="28.826907" lon="105.306642"><ele>616.5241</ele><time>2026-04-03T22:23:43.000Z</time></trkpt>
        <trkpt lat="28.826905" lon="105.306588"><ele>617.784</ele><time>2026-04-03T22:23:48.000Z</time></trkpt>
        <trkpt lat="28.826894" lon="105.306538"><ele>618.2091</ele><time>2026-04-03T22:23:53.000Z</time></trkpt>
        <trkpt lat="28.826876" lon="105.306487"><ele>618.11316</ele><time>2026-04-03T22:23:57.000Z</time></trkpt>
        <trkpt lat="28.826898" lon="105.306431"><ele>618.2971</ele><time>2026-04-03T22:24:02.000Z</time></trkpt>
        <trkpt lat="28.826908" lon="105.306376"><ele>618.8278</ele><time>2026-04-03T22:24:06.000Z</time></trkpt>
        <trkpt lat="28.82693" lon="105.306325"><ele>619.60205</ele><time>2026-04-03T22:24:11.000Z</time></trkpt>
        <trkpt lat="28.82696" lon="105.306275"><ele>618.91895</ele><time>2026-04-03T22:24:16.000Z</time></trkpt>
        <trkpt lat="28.826982" lon="105.306225"><ele>619.41064</ele><time>2026-04-03T22:24:20.000Z</time></trkpt>
        <trkpt lat="28.826999" lon="105.306177"><ele>620.3272</ele><time>2026-04-03T22:24:24.000Z</time></trkpt>
        <trkpt lat="28.827013" lon="105.306116"><ele>621.20435</ele><time>2026-04-03T22:24:29.000Z</time></trkpt>
        <trkpt lat="28.82701" lon="105.30606"><ele>621.2756</ele><time>2026-04-03T22:24:34.000Z</time></trkpt>
        <trkpt lat="28.826997" lon="105.30601"><ele>622.7659</ele><time>2026-04-03T22:24:40.000Z</time></trkpt>
        <trkpt lat="28.826943" lon="105.305987"><ele>622.68243</ele><time>2026-04-03T22:24:47.000Z</time></trkpt>
        <trkpt lat="28.826895" lon="105.305977"><ele>620.99493</ele><time>2026-04-03T22:24:53.000Z</time></trkpt>
        <trkpt lat="28.826846" lon="105.30597"><ele>620.8466</ele><time>2026-04-03T22:24:58.000Z</time></trkpt>
        <trkpt lat="28.82679" lon="105.305952"><ele>619.3182</ele><time>2026-04-03T22:25:04.000Z</time></trkpt>
        <trkpt lat="28.826746" lon="105.305924"><ele>619.76917</ele><time>2026-04-03T22:25:09.000Z</time></trkpt>
        <trkpt lat="28.826706" lon="105.30589"><ele>620.1129</ele><time>2026-04-03T22:25:13.000Z</time></trkpt>
        <trkpt lat="28.826671" lon="105.305857"><ele>619.9032</ele><time>2026-04-03T22:25:17.000Z</time></trkpt>
        <trkpt lat="28.826638" lon="105.305805"><ele>620.60834</ele><time>2026-04-03T22:25:23.000Z</time></trkpt>
        <trkpt lat="28.826623" lon="105.305752"><ele>620.5508</ele><time>2026-04-03T22:25:28.000Z</time></trkpt>
        <trkpt lat="28.826617" lon="105.305693"><ele>620.88336</ele><time>2026-04-03T22:25:33.000Z</time></trkpt>
        <trkpt lat="28.826603" lon="105.305641"><ele>623.41656</ele><time>2026-04-03T22:25:39.000Z</time></trkpt>
        <trkpt lat="28.826626" lon="105.305592"><ele>623.5654</ele><time>2026-04-03T22:25:45.000Z</time></trkpt>
        <trkpt lat="28.826637" lon="105.305538"><ele>624.7368</ele><time>2026-04-03T22:25:51.000Z</time></trkpt>
        <trkpt lat="28.826611" lon="105.305485"><ele>624.1442</ele><time>2026-04-03T22:25:56.000Z</time></trkpt>
        <trkpt lat="28.826596" lon="105.305435"><ele>624.8118</ele><time>2026-04-03T22:26:01.000Z</time></trkpt>
        <trkpt lat="28.826584" lon="105.305375"><ele>624.3878</ele><time>2026-04-03T22:26:06.000Z</time></trkpt>
        <trkpt lat="28.82656" lon="105.305314"><ele>626.08624</ele><time>2026-04-03T22:26:11.000Z</time></trkpt>
        <trkpt lat="28.826535" lon="105.305266"><ele>625.5314</ele><time>2026-04-03T22:26:16.000Z</time></trkpt>
        <trkpt lat="28.826504" lon="105.305222"><ele>624.47235</ele><time>2026-04-03T22:26:21.000Z</time></trkpt>
        <trkpt lat="28.826491" lon="105.305169"><ele>623.3371</ele><time>2026-04-03T22:26:38.000Z</time></trkpt>
        <trkpt lat="28.826469" lon="105.305113"><ele>623.01544</ele><time>2026-04-03T22:26:45.000Z</time></trkpt>
        <trkpt lat="28.826445" lon="105.305062"><ele>622.07623</ele><time>2026-04-03T22:26:52.000Z</time></trkpt>
        <trkpt lat="28.826406" lon="105.305031"><ele>622.6584</ele><time>2026-04-03T22:26:59.000Z</time></trkpt>
        <trkpt lat="28.826369" lon="105.305"><ele>622.68353</ele><time>2026-04-03T22:27:04.000Z</time></trkpt>
        <trkpt lat="28.826326" lon="105.304964"><ele>621.89374</ele><time>2026-04-03T22:27:10.000Z</time></trkpt>
        <trkpt lat="28.826295" lon="105.304915"><ele>624.26373</ele><time>2026-04-03T22:27:16.000Z</time></trkpt>
        <trkpt lat="28.826257" lon="105.304868"><ele>625.71423</ele><time>2026-04-03T22:27:22.000Z</time></trkpt>
        <trkpt lat="28.826222" lon="105.304824"><ele>628.44775</ele><time>2026-04-03T22:27:28.000Z</time></trkpt>
        <trkpt lat="28.826196" lon="105.304766"><ele>630.5416</ele><time>2026-04-03T22:27:33.000Z</time></trkpt>
        <trkpt lat="28.82618" lon="105.30471"><ele>630.5288</ele><time>2026-04-03T22:27:39.000Z</time></trkpt>
        <trkpt lat="28.826148" lon="105.304672"><ele>632.2534</ele><time>2026-04-03T22:27:43.000Z</time></trkpt>
        <trkpt lat="28.826111" lon="105.304637"><ele>632.8116</ele><time>2026-04-03T22:27:47.000Z</time></trkpt>
        <trkpt lat="28.826074" lon="105.304602"><ele>633.0346</ele><time>2026-04-03T22:27:52.000Z</time></trkpt>
        <trkpt lat="28.826052" lon="105.304548"><ele>632.90546</ele><time>2026-04-03T22:27:57.000Z</time></trkpt>
        <trkpt lat="28.826022" lon="105.304506"><ele>632.9235</ele><time>2026-04-03T22:28:03.000Z</time></trkpt>
        <trkpt lat="28.825979" lon="105.304486"><ele>633.7466</ele><time>2026-04-03T22:28:07.000Z</time></trkpt>
        <trkpt lat="28.825927" lon="105.304488"><ele>634.2616</ele><time>2026-04-03T22:28:13.000Z</time></trkpt>
        <trkpt lat="28.825882" lon="105.304483"><ele>635.0172</ele><time>2026-04-03T22:28:16.000Z</time></trkpt>
        <trkpt lat="28.825829" lon="105.304473"><ele>636.04535</ele><time>2026-04-03T22:28:21.000Z</time></trkpt>
        <trkpt lat="28.825777" lon="105.30447"><ele>635.8572</ele><time>2026-04-03T22:28:28.000Z</time></trkpt>
        <trkpt lat="28.82573" lon="105.30448"><ele>635.6323</ele><time>2026-04-03T22:28:34.000Z</time></trkpt>
        <trkpt lat="28.825695" lon="105.304521"><ele>637.00903</ele><time>2026-04-03T22:28:44.000Z</time></trkpt>
        <trkpt lat="28.82565" lon="105.304557"><ele>637.951</ele><time>2026-04-03T22:28:50.000Z</time></trkpt>
        <trkpt lat="28.82562" lon="105.304603"><ele>639.19165</ele><time>2026-04-03T22:28:56.000Z</time></trkpt>
        <trkpt lat="28.825594" lon="105.304645"><ele>639.754</ele><time>2026-04-03T22:29:00.000Z</time></trkpt>
        <trkpt lat="28.825557" lon="105.304677"><ele>639.8533</ele><time>2026-04-03T22:29:05.000Z</time></trkpt>
        <trkpt lat="28.825525" lon="105.304723"><ele>640.9295</ele><time>2026-04-03T22:29:09.000Z</time></trkpt>
        <trkpt lat="28.825499" lon="105.304783"><ele>641.4178</ele><time>2026-04-03T22:29:16.000Z</time></trkpt>
        <trkpt lat="28.825473" lon="105.304833"><ele>642.2705</ele><time>2026-04-03T22:29:21.000Z</time></trkpt>
        <trkpt lat="28.82544" lon="105.304873"><ele>642.56757</ele><time>2026-04-03T22:29:25.000Z</time></trkpt>
        <trkpt lat="28.825389" lon="105.304904"><ele>642.0611</ele><time>2026-04-03T22:29:30.000Z</time></trkpt>
        <trkpt lat="28.825332" lon="105.304911"><ele>641.18805</ele><time>2026-04-03T22:29:34.000Z</time></trkpt>
        <trkpt lat="28.825282" lon="105.304896"><ele>640.2245</ele><time>2026-04-03T22:29:39.000Z</time></trkpt>
        <trkpt lat="28.825245" lon="105.304851"><ele>639.72485</ele><time>2026-04-03T22:29:43.000Z</time></trkpt>
        <trkpt lat="28.82521" lon="105.304803"><ele>638.06055</ele><time>2026-04-03T22:29:48.000Z</time></trkpt>
        <trkpt lat="28.825184" lon="105.304745"><ele>636.54425</ele><time>2026-04-03T22:29:53.000Z</time></trkpt>
        <trkpt lat="28.825151" lon="105.30471"><ele>635.4377</ele><time>2026-04-03T22:29:57.000Z</time></trkpt>
        <trkpt lat="28.825094" lon="105.304689"><ele>634.0187</ele><time>2026-04-03T22:30:04.000Z</time></trkpt>
        <trkpt lat="28.825055" lon="105.304651"><ele>632.74286</ele><time>2026-04-03T22:30:10.000Z</time></trkpt>
        <trkpt lat="28.825006" lon="105.304633"><ele>631.5223</ele><time>2026-04-03T22:30:14.000Z</time></trkpt>
        <trkpt lat="28.824959" lon="105.304618"><ele>630.4179</ele><time>2026-04-03T22:30:18.000Z</time></trkpt>
        <trkpt lat="28.824912" lon="105.304621"><ele>629.5882</ele><time>2026-04-03T22:30:23.000Z</time></trkpt>
        <trkpt lat="28.824867" lon="105.304608"><ele>630.3445</ele><time>2026-04-03T22:30:28.000Z</time></trkpt>
        <trkpt lat="28.824819" lon="105.304598"><ele>629.77527</ele><time>2026-04-03T22:30:32.000Z</time></trkpt>
        <trkpt lat="28.824774" lon="105.304603"><ele>630.7297</ele><time>2026-04-03T22:30:37.000Z</time></trkpt>
        <trkpt lat="28.824723" lon="105.30461"><ele>630.15234</ele><time>2026-04-03T22:30:43.000Z</time></trkpt>
        <trkpt lat="28.824671" lon="105.304617"><ele>631.06555</ele><time>2026-04-03T22:30:48.000Z</time></trkpt>
        <trkpt lat="28.824617" lon="105.304617"><ele>631.02795</ele><time>2026-04-03T22:30:54.000Z</time></trkpt>
        <trkpt lat="28.824571" lon="105.30462"><ele>629.95917</ele><time>2026-04-03T22:30:58.000Z</time></trkpt>
        <trkpt lat="28.824516" lon="105.304633"><ele>628.6552</ele><time>2026-04-03T22:31:04.000Z</time></trkpt>
        <trkpt lat="28.824457" lon="105.304653"><ele>628.4763</ele><time>2026-04-03T22:31:10.000Z</time></trkpt>
        <trkpt lat="28.824407" lon="105.304674"><ele>628.57996</ele><time>2026-04-03T22:31:15.000Z</time></trkpt>
        <trkpt lat="28.82437" lon="105.304717"><ele>627.6493</ele><time>2026-04-03T22:31:20.000Z</time></trkpt>
        <trkpt lat="28.824344" lon="105.304765"><ele>627.5115</ele><time>2026-04-03T22:31:24.000Z</time></trkpt>
        <trkpt lat="28.82431" lon="105.304801"><ele>627.6114</ele><time>2026-04-03T22:31:28.000Z</time></trkpt>
        <trkpt lat="28.824276" lon="105.304857"><ele>627.32166</ele><time>2026-04-03T22:31:33.000Z</time></trkpt>
        <trkpt lat="28.824235" lon="105.304887"><ele>627.59094</ele><time>2026-04-03T22:31:37.000Z</time></trkpt>
        <trkpt lat="28.824207" lon="105.304938"><ele>626.1083</ele><time>2026-04-03T22:31:41.000Z</time></trkpt>
        <trkpt lat="28.82418" lon="105.304985"><ele>624.8188</ele><time>2026-04-03T22:31:47.000Z</time></trkpt>
        <trkpt lat="28.824146" lon="105.30503"><ele>622.7345</ele><time>2026-04-03T22:31:53.000Z</time></trkpt>
        <trkpt lat="28.824116" lon="105.305083"><ele>622.1631</ele><time>2026-04-03T22:31:59.000Z</time></trkpt>
        <trkpt lat="28.824084" lon="105.30512"><ele>620.4284</ele><time>2026-04-03T22:32:03.000Z</time></trkpt>
        <trkpt lat="28.824051" lon="105.305158"><ele>619.8791</ele><time>2026-04-03T22:32:07.000Z</time></trkpt>
        <trkpt lat="28.82402" lon="105.305196"><ele>619.569</ele><time>2026-04-03T22:32:12.000Z</time></trkpt>
        <trkpt lat="28.823976" lon="105.305224"><ele>618.771</ele><time>2026-04-03T22:32:16.000Z</time></trkpt>
        <trkpt lat="28.823943" lon="105.305266"><ele>617.4243</ele><time>2026-04-03T22:32:21.000Z</time></trkpt>
        <trkpt lat="28.823907" lon="105.305297"><ele>616.13806</ele><time>2026-04-03T22:32:26.000Z</time></trkpt>
        <trkpt lat="28.823876" lon="105.305345"><ele>614.0095</ele><time>2026-04-03T22:32:31.000Z</time></trkpt>
        <trkpt lat="28.823842" lon="105.305383"><ele>613.65125</ele><time>2026-04-03T22:32:34.000Z</time></trkpt>
        <trkpt lat="28.8238" lon="105.305406"><ele>613.9678</ele><time>2026-04-03T22:32:37.000Z</time></trkpt>
        <trkpt lat="28.823755" lon="105.305418"><ele>614.21765</ele><time>2026-04-03T22:32:41.000Z</time></trkpt>
        <trkpt lat="28.823711" lon="105.305432"><ele>615.12177</ele><time>2026-04-03T22:32:45.000Z</time></trkpt>
        <trkpt lat="28.823662" lon="105.30543"><ele>615.0501</ele><time>2026-04-03T22:32:49.000Z</time></trkpt>
        <trkpt lat="28.823605" lon="105.305432"><ele>615.434</ele><time>2026-04-03T22:32:56.000Z</time></trkpt>
        <trkpt lat="28.823564" lon="105.305402"><ele>616.7738</ele><time>2026-04-03T22:33:00.000Z</time></trkpt>
        <trkpt lat="28.823519" lon="105.305361"><ele>616.5877</ele><time>2026-04-03T22:33:05.000Z</time></trkpt>
        <trkpt lat="28.823474" lon="105.305336"><ele>615.2016</ele><time>2026-04-03T22:33:09.000Z</time></trkpt>
        <trkpt lat="28.823419" lon="105.305338"><ele>615.56915</ele><time>2026-04-03T22:33:13.000Z</time></trkpt>
        <trkpt lat="28.823363" lon="105.305321"><ele>616.6102</ele><time>2026-04-03T22:33:17.000Z</time></trkpt>
        <trkpt lat="28.823323" lon="105.305349"><ele>617.52014</ele><time>2026-04-03T22:33:23.000Z</time></trkpt>
        <trkpt lat="28.823279" lon="105.305381"><ele>618.4201</ele><time>2026-04-03T22:33:29.000Z</time></trkpt>
        <trkpt lat="28.823229" lon="105.30539"><ele>619.11273</ele><time>2026-04-03T22:33:34.000Z</time></trkpt>
        <trkpt lat="28.823184" lon="105.305407"><ele>618.82886</ele><time>2026-04-03T22:33:38.000Z</time></trkpt>
        <trkpt lat="28.823137" lon="105.30539"><ele>618.9208</ele><time>2026-04-03T22:33:42.000Z</time></trkpt>
        <trkpt lat="28.823095" lon="105.305368"><ele>617.6867</ele><time>2026-04-03T22:33:47.000Z</time></trkpt>
        <trkpt lat="28.823044" lon="105.305352"><ele>616.72253</ele><time>2026-04-03T22:33:51.000Z</time></trkpt>
        <trkpt lat="28.822989" lon="105.305349"><ele>615.3785</ele><time>2026-04-03T22:33:56.000Z</time></trkpt>
        <trkpt lat="28.82294" lon="105.305359"><ele>615.10913</ele><time>2026-04-03T22:34:01.000Z</time></trkpt>
        <trkpt lat="28.822889" lon="105.305381"><ele>614.8483</ele><time>2026-04-03T22:34:07.000Z</time></trkpt>
        <trkpt lat="28.822867" lon="105.30543"><ele>615.50323</ele><time>2026-04-03T22:34:13.000Z</time></trkpt>
        <trkpt lat="28.822831" lon="105.305465"><ele>616.39166</ele><time>2026-04-03T22:34:21.000Z</time></trkpt>
        <trkpt lat="28.822807" lon="105.30551"><ele>616.5791</ele><time>2026-04-03T22:34:26.000Z</time></trkpt>
        <trkpt lat="28.822777" lon="105.305558"><ele>616.4239</ele><time>2026-04-03T22:34:31.000Z</time></trkpt>
        <trkpt lat="28.822755" lon="105.305606"><ele>616.9744</ele><time>2026-04-03T22:34:35.000Z</time></trkpt>
        <trkpt lat="28.822734" lon="105.305661"><ele>615.85864</ele><time>2026-04-03T22:34:40.000Z</time></trkpt>
        <trkpt lat="28.822708" lon="105.305724"><ele>615.7544</ele><time>2026-04-03T22:34:45.000Z</time></trkpt>
        <trkpt lat="28.822698" lon="105.305784"><ele>615.87524</ele><time>2026-04-03T22:34:49.000Z</time></trkpt>
        <trkpt lat="28.822663" lon="105.305826"><ele>615.14276</ele><time>2026-04-03T22:34:53.000Z</time></trkpt>
        <trkpt lat="28.822622" lon="105.305868"><ele>614.4717</ele><time>2026-04-03T22:34:57.000Z</time></trkpt>
        <trkpt lat="28.822571" lon="105.305886"><ele>612.8645</ele><time>2026-04-03T22:35:01.000Z</time></trkpt>
        <trkpt lat="28.822515" lon="105.305873"><ele>612.61694</ele><time>2026-04-03T22:35:05.000Z</time></trkpt>
        <trkpt lat="28.822464" lon="105.305858"><ele>613.11414</ele><time>2026-04-03T22:35:09.000Z</time></trkpt>
        <trkpt lat="28.822449" lon="105.305795"><ele>612.0462</ele><time>2026-04-03T22:35:17.000Z</time></trkpt>
        <trkpt lat="28.822424" lon="105.305745"><ele>612.4914</ele><time>2026-04-03T22:35:20.000Z</time></trkpt>
        <trkpt lat="28.822414" lon="105.305694"><ele>611.64484</ele><time>2026-04-03T22:35:25.000Z</time></trkpt>
        <trkpt lat="28.822399" lon="105.305634"><ele>612.0282</ele><time>2026-04-03T22:35:30.000Z</time></trkpt>
        <trkpt lat="28.822381" lon="105.305579"><ele>611.8148</ele><time>2026-04-03T22:35:34.000Z</time></trkpt>
        <trkpt lat="28.822364" lon="105.305526"><ele>612.71277</ele><time>2026-04-03T22:35:38.000Z</time></trkpt>
        <trkpt lat="28.822339" lon="105.305476"><ele>610.79</ele><time>2026-04-03T22:35:44.000Z</time></trkpt>
        <trkpt lat="28.822299" lon="105.305448"><ele>610.52576</ele><time>2026-04-03T22:35:49.000Z</time></trkpt>
        <trkpt lat="28.822241" lon="105.305433"><ele>610.5927</ele><time>2026-04-03T22:35:53.000Z</time></trkpt>
        <trkpt lat="28.82219" lon="105.305417"><ele>611.93243</ele><time>2026-04-03T22:35:58.000Z</time></trkpt>
        <trkpt lat="28.822143" lon="105.305403"><ele>611.94</ele><time>2026-04-03T22:36:02.000Z</time></trkpt>
        <trkpt lat="28.822096" lon="105.30538"><ele>612.1227</ele><time>2026-04-03T22:36:05.000Z</time></trkpt>
        <trkpt lat="28.822062" lon="105.305327"><ele>610.39276</ele><time>2026-04-03T22:36:09.000Z</time></trkpt>
        <trkpt lat="28.822038" lon="105.305268"><ele>611.31464</ele><time>2026-04-03T22:36:13.000Z</time></trkpt>
        <trkpt lat="28.821992" lon="105.305234"><ele>609.5419</ele><time>2026-04-03T22:36:17.000Z</time></trkpt>
        <trkpt lat="28.821957" lon="105.305188"><ele>610.449</ele><time>2026-04-03T22:36:21.000Z</time></trkpt>
        <trkpt lat="28.82194" lon="105.305129"><ele>610.1287</ele><time>2026-04-03T22:36:26.000Z</time></trkpt>
        <trkpt lat="28.821911" lon="105.305083"><ele>610.46716</ele><time>2026-04-03T22:36:32.000Z</time></trkpt>
        <trkpt lat="28.821907" lon="105.305022"><ele>609.89984</ele><time>2026-04-03T22:36:40.000Z</time></trkpt>
        <trkpt lat="28.821879" lon="105.304972"><ele>609.83105</ele><time>2026-04-03T22:36:48.000Z</time></trkpt>
        <trkpt lat="28.821844" lon="105.304923"><ele>608.36285</ele><time>2026-04-03T22:36:54.000Z</time></trkpt>
        <trkpt lat="28.821805" lon="105.304875"><ele>607.61957</ele><time>2026-04-03T22:37:00.000Z</time></trkpt>
        <trkpt lat="28.821758" lon="105.304863"><ele>606.22095</ele><time>2026-04-03T22:37:05.000Z</time></trkpt>
        <trkpt lat="28.821717" lon="105.304838"><ele>606.2258</ele><time>2026-04-03T22:37:12.000Z</time></trkpt>
        <trkpt lat="28.821681" lon="105.304783"><ele>607.18353</ele><time>2026-04-03T22:37:17.000Z</time></trkpt>
        <trkpt lat="28.821647" lon="105.304746"><ele>607.57935</ele><time>2026-04-03T22:37:21.000Z</time></trkpt>
        <trkpt lat="28.821616" lon="105.304706"><ele>606.91547</ele><time>2026-04-03T22:37:25.000Z</time></trkpt>
        <trkpt lat="28.821577" lon="105.304667"><ele>604.50415</ele><time>2026-04-03T22:37:31.000Z</time></trkpt>
        <trkpt lat="28.821544" lon="105.304621"><ele>602.67676</ele><time>2026-04-03T22:37:36.000Z</time></trkpt>
        <trkpt lat="28.82151" lon="105.30458"><ele>601.95966</ele><time>2026-04-03T22:37:41.000Z</time></trkpt>
        <trkpt lat="28.821479" lon="105.304538"><ele>600.4998</ele><time>2026-04-03T22:37:46.000Z</time></trkpt>
        <trkpt lat="28.821456" lon="105.304476"><ele>599.3819</ele><time>2026-04-03T22:37:51.000Z</time></trkpt>
        <trkpt lat="28.82143" lon="105.304428"><ele>597.56635</ele><time>2026-04-03T22:37:56.000Z</time></trkpt>
        <trkpt lat="28.82141" lon="105.30438"><ele>594.9604</ele><time>2026-04-03T22:38:00.000Z</time></trkpt>
        <trkpt lat="28.82138" lon="105.30433"><ele>596.68243</ele><time>2026-04-03T22:38:05.000Z</time></trkpt>
        <trkpt lat="28.821345" lon="105.304287"><ele>594.4763</ele><time>2026-04-03T22:38:11.000Z</time></trkpt>
        <trkpt lat="28.821311" lon="105.304234"><ele>594.06177</ele><time>2026-04-03T22:38:17.000Z</time></trkpt>
        <trkpt lat="28.821269" lon="105.304205"><ele>590.3075</ele><time>2026-04-03T22:38:22.000Z</time></trkpt>
        <trkpt lat="28.821234" lon="105.304165"><ele>589.5225</ele><time>2026-04-03T22:38:26.000Z</time></trkpt>
        <trkpt lat="28.82121" lon="105.304119"><ele>589.40735</ele><time>2026-04-03T22:38:31.000Z</time></trkpt>
        <trkpt lat="28.821208" lon="105.304065"><ele>587.3083</ele><time>2026-04-03T22:38:36.000Z</time></trkpt>
        <trkpt lat="28.821187" lon="105.304015"><ele>585.6416</ele><time>2026-04-03T22:38:41.000Z</time></trkpt>
        <trkpt lat="28.82117" lon="105.303957"><ele>586.8802</ele><time>2026-04-03T22:38:47.000Z</time></trkpt>
        <trkpt lat="28.821154" lon="105.303903"><ele>586.4178</ele><time>2026-04-03T22:38:51.000Z</time></trkpt>
        <trkpt lat="28.82113" lon="105.303847"><ele>587.0427</ele><time>2026-04-03T22:38:55.000Z</time></trkpt>
        <trkpt lat="28.821109" lon="105.303792"><ele>587.7209</ele><time>2026-04-03T22:38:59.000Z</time></trkpt>
        <trkpt lat="28.821117" lon="105.303739"><ele>586.3729</ele><time>2026-04-03T22:39:03.000Z</time></trkpt>
        <trkpt lat="28.82111" lon="105.303673"><ele>584.0327</ele><time>2026-04-03T22:39:08.000Z</time></trkpt>
        <trkpt lat="28.821098" lon="105.303618"><ele>585.3941</ele><time>2026-04-03T22:39:12.000Z</time></trkpt>
        <trkpt lat="28.821049" lon="105.303624"><ele>584.19305</ele><time>2026-04-03T22:39:33.000Z</time></trkpt>
        <trkpt lat="28.82102" lon="105.303674"><ele>585.21674</ele><time>2026-04-03T22:39:40.000Z</time></trkpt>
        <trkpt lat="28.820986" lon="105.303715"><ele>585.5476</ele><time>2026-04-03T22:39:45.000Z</time></trkpt>
        <trkpt lat="28.820965" lon="105.303763"><ele>585.4341</ele><time>2026-04-03T22:39:50.000Z</time></trkpt>
        <trkpt lat="28.82096" lon="105.303814"><ele>587.16724</ele><time>2026-04-03T22:39:57.000Z</time></trkpt>
        <trkpt lat="28.820915" lon="105.303791"><ele>585.03107</ele><time>2026-04-03T22:40:18.000Z</time></trkpt>
        <trkpt lat="28.820976" lon="105.303798"><ele>586.43805</ele><time>2026-04-03T22:40:42.000Z</time></trkpt>
        <trkpt lat="28.821002" lon="105.303748"><ele>586.7144</ele><time>2026-04-03T22:41:00.000Z</time></trkpt>
        <trkpt lat="28.821028" lon="105.303703"><ele>586.5081</ele><time>2026-04-03T22:41:10.000Z</time></trkpt>
        <trkpt lat="28.821062" lon="105.303664"><ele>585.3937</ele><time>2026-04-03T22:41:19.000Z</time></trkpt>
        <trkpt lat="28.821039" lon="105.303619"><ele>586.0559</ele><time>2026-04-03T22:41:49.000Z</time></trkpt>
        <trkpt lat="28.821083" lon="105.303586"><ele>585.87213</ele><time>2026-04-03T22:42:10.000Z</time></trkpt>
        <trkpt lat="28.821109" lon="105.303541"><ele>584.9036</ele><time>2026-04-03T22:42:16.000Z</time></trkpt>
        <trkpt lat="28.821149" lon="105.303514"><ele>583.76685</ele><time>2026-04-03T22:42:22.000Z</time></trkpt>
        <trkpt lat="28.821183" lon="105.303472"><ele>582.24304</ele><time>2026-04-03T22:42:28.000Z</time></trkpt>
        <trkpt lat="28.821213" lon="105.30343"><ele>580.6694</ele><time>2026-04-03T22:42:34.000Z</time></trkpt>
        <trkpt lat="28.821237" lon="105.303384"><ele>579.3703</ele><time>2026-04-03T22:42:40.000Z</time></trkpt>
        <trkpt lat="28.821255" lon="105.303336"><ele>578.0185</ele><time>2026-04-03T22:42:45.000Z</time></trkpt>
        <trkpt lat="28.821274" lon="105.303284"><ele>576.2108</ele><time>2026-04-03T22:42:51.000Z</time></trkpt>
        <trkpt lat="28.821297" lon="105.303234"><ele>576.60345</ele><time>2026-04-03T22:42:57.000Z</time></trkpt>
        <trkpt lat="28.821325" lon="105.303187"><ele>574.40625</ele><time>2026-04-03T22:43:02.000Z</time></trkpt>
        <trkpt lat="28.82135" lon="105.303136"><ele>572.0079</ele><time>2026-04-03T22:43:08.000Z</time></trkpt>
        <trkpt lat="28.821397" lon="105.303106"><ele>570.45734</ele><time>2026-04-03T22:43:14.000Z</time></trkpt>
        <trkpt lat="28.821446" lon="105.303085"><ele>569.20715</ele><time>2026-04-03T22:43:19.000Z</time></trkpt>
        <trkpt lat="28.821496" lon="105.303085"><ele>569.13055</ele><time>2026-04-03T22:43:25.000Z</time></trkpt>
        <trkpt lat="28.82155" lon="105.303083"><ele>568.982</ele><time>2026-04-03T22:43:30.000Z</time></trkpt>
        <trkpt lat="28.821601" lon="105.303094"><ele>568.7107</ele><time>2026-04-03T22:43:35.000Z</time></trkpt>
        <trkpt lat="28.821652" lon="105.303081"><ele>567.39984</ele><time>2026-04-03T22:43:40.000Z</time></trkpt>
        <trkpt lat="28.821695" lon="105.30305"><ele>566.03217</ele><time>2026-04-03T22:43:45.000Z</time></trkpt>
        <trkpt lat="28.82174" lon="105.303038"><ele>567.1607</ele><time>2026-04-03T22:43:51.000Z</time></trkpt>
        <trkpt lat="28.821775" lon="105.302999"><ele>566.33374</ele><time>2026-04-03T22:43:56.000Z</time></trkpt>
        <trkpt lat="28.821797" lon="105.302945"><ele>564.81116</ele><time>2026-04-03T22:44:02.000Z</time></trkpt>
        <trkpt lat="28.821821" lon="105.302897"><ele>564.4495</ele><time>2026-04-03T22:44:07.000Z</time></trkpt>
        <trkpt lat="28.821838" lon="105.302846"><ele>563.1211</ele><time>2026-04-03T22:44:13.000Z</time></trkpt>
        <trkpt lat="28.821846" lon="105.302793"><ele>562.05</ele><time>2026-04-03T22:44:18.000Z</time></trkpt>
        <trkpt lat="28.82188" lon="105.302748"><ele>560.96826</ele><time>2026-04-03T22:44:25.000Z</time></trkpt>
        <trkpt lat="28.821923" lon="105.302719"><ele>559.507</ele><time>2026-04-03T22:44:31.000Z</time></trkpt>
        <trkpt lat="28.821959" lon="105.302673"><ele>557.40027</ele><time>2026-04-03T22:44:37.000Z</time></trkpt>
        <trkpt lat="28.821994" lon="105.302641"><ele>556.52814</ele><time>2026-04-03T22:44:42.000Z</time></trkpt>
        <trkpt lat="28.822026" lon="105.302603"><ele>555.666</ele><time>2026-04-03T22:44:48.000Z</time></trkpt>
        <trkpt lat="28.822062" lon="105.302571"><ele>554.8127</ele><time>2026-04-03T22:44:53.000Z</time></trkpt>
        <trkpt lat="28.822106" lon="105.302545"><ele>553.8628</ele><time>2026-04-03T22:45:03.000Z</time></trkpt>
        <trkpt lat="28.822156" lon="105.302522"><ele>552.7376</ele><time>2026-04-03T22:45:10.000Z</time></trkpt>
        <trkpt lat="28.822208" lon="105.302506"><ele>551.30133</ele><time>2026-04-03T22:45:15.000Z</time></trkpt>
        <trkpt lat="28.822256" lon="105.302507"><ele>550.7843</ele><time>2026-04-03T22:45:19.000Z</time></trkpt>
        <trkpt lat="28.822303" lon="105.302518"><ele>551.1576</ele><time>2026-04-03T22:45:23.000Z</time></trkpt>
        <trkpt lat="28.822344" lon="105.302548"><ele>550.0612</ele><time>2026-04-03T22:45:28.000Z</time></trkpt>
        <trkpt lat="28.822388" lon="105.302586"><ele>549.5677</ele><time>2026-04-03T22:45:49.000Z</time></trkpt>
        <trkpt lat="28.822427" lon="105.302617"><ele>549.6334</ele><time>2026-04-03T22:45:53.000Z</time></trkpt>
        <trkpt lat="28.822472" lon="105.30266"><ele>549.2222</ele><time>2026-04-03T22:45:58.000Z</time></trkpt>
        <trkpt lat="28.822517" lon="105.302693"><ele>548.2775</ele><time>2026-04-03T22:46:02.000Z</time></trkpt>
        <trkpt lat="28.822573" lon="105.302714"><ele>548.17755</ele><time>2026-04-03T22:46:06.000Z</time></trkpt>
        <trkpt lat="28.822621" lon="105.302718"><ele>548.124</ele><time>2026-04-03T22:46:09.000Z</time></trkpt>
        <trkpt lat="28.822676" lon="105.302709"><ele>547.0551</ele><time>2026-04-03T22:46:38.000Z</time></trkpt>
        <trkpt lat="28.822721" lon="105.302721"><ele>546.7705</ele><time>2026-04-03T22:46:43.000Z</time></trkpt>
        <trkpt lat="28.822776" lon="105.302713"><ele>545.75824</ele><time>2026-04-03T22:46:58.000Z</time></trkpt>
        <trkpt lat="28.822826" lon="105.302726"><ele>545.5954</ele><time>2026-04-03T22:47:04.000Z</time></trkpt>
        <trkpt lat="28.822873" lon="105.302745"><ele>546.1329</ele><time>2026-04-03T22:47:16.000Z</time></trkpt>
        <trkpt lat="28.822923" lon="105.302751"><ele>546.86884</ele><time>2026-04-03T22:47:20.000Z</time></trkpt>
        <trkpt lat="28.822979" lon="105.302744"><ele>548.2954</ele><time>2026-04-03T22:47:25.000Z</time></trkpt>
        <trkpt lat="28.823027" lon="105.302718"><ele>550.89557</ele><time>2026-04-03T22:47:31.000Z</time></trkpt>
        <trkpt lat="28.823066" lon="105.302668"><ele>550.8865</ele><time>2026-04-03T22:47:39.000Z</time></trkpt>
        <trkpt lat="28.823076" lon="105.302607"><ele>551.60834</ele><time>2026-04-03T22:47:44.000Z</time></trkpt>
        <trkpt lat="28.82308" lon="105.302553"><ele>551.9982</ele><time>2026-04-03T22:47:47.000Z</time></trkpt>
        <trkpt lat="28.823103" lon="105.302508"><ele>552.161</ele><time>2026-04-03T22:47:50.000Z</time></trkpt>
        <trkpt lat="28.823108" lon="105.302445"><ele>552.57214</ele><time>2026-04-03T22:47:54.000Z</time></trkpt>
        <trkpt lat="28.82313" lon="105.302389"><ele>553.7484</ele><time>2026-04-03T22:47:58.000Z</time></trkpt>
        <trkpt lat="28.823145" lon="105.302338"><ele>553.6678</ele><time>2026-04-03T22:48:02.000Z</time></trkpt>
        <trkpt lat="28.823156" lon="105.302283"><ele>554.7772</ele><time>2026-04-03T22:48:06.000Z</time></trkpt>
        <trkpt lat="28.823169" lon="105.302224"><ele>554.616</ele><time>2026-04-03T22:48:10.000Z</time></trkpt>
        <trkpt lat="28.823178" lon="105.302171"><ele>555.07153</ele><time>2026-04-03T22:48:19.000Z</time></trkpt>
        <trkpt lat="28.823178" lon="105.302118"><ele>553.76605</ele><time>2026-04-03T22:48:23.000Z</time></trkpt>
        <trkpt lat="28.823182" lon="105.302056"><ele>553.4856</ele><time>2026-04-03T22:48:27.000Z</time></trkpt>
        <trkpt lat="28.823211" lon="105.302002"><ele>552.5751</ele><time>2026-04-03T22:48:32.000Z</time></trkpt>
        <trkpt lat="28.823242" lon="105.301964"><ele>552.03577</ele><time>2026-04-03T22:48:36.000Z</time></trkpt>
        <trkpt lat="28.823273" lon="105.301926"><ele>552.02545</ele><time>2026-04-03T22:48:40.000Z</time></trkpt>
        <trkpt lat="28.823285" lon="105.301865"><ele>552.0568</ele><time>2026-04-03T22:48:55.000Z</time></trkpt>
        <trkpt lat="28.823306" lon="105.301804"><ele>550.1926</ele><time>2026-04-03T22:49:01.000Z</time></trkpt>
        <trkpt lat="28.823312" lon="105.301746"><ele>551.5766</ele><time>2026-04-03T22:49:04.000Z</time></trkpt>
        <trkpt lat="28.823327" lon="105.301693"><ele>550.7445</ele><time>2026-04-03T22:49:08.000Z</time></trkpt>
        <trkpt lat="28.823362" lon="105.301642"><ele>550.8527</ele><time>2026-04-03T22:49:12.000Z</time></trkpt>
        <trkpt lat="28.823396" lon="105.301606"><ele>550.33</ele><time>2026-04-03T22:49:37.000Z</time></trkpt>
        <trkpt lat="28.823437" lon="105.301575"><ele>550.30286</ele><time>2026-04-03T22:49:42.000Z</time></trkpt>
        <trkpt lat="28.82348" lon="105.301547"><ele>549.8745</ele><time>2026-04-03T22:49:46.000Z</time></trkpt>
        <trkpt lat="28.823526" lon="105.301529"><ele>549.7081</ele><time>2026-04-03T22:49:51.000Z</time></trkpt>
        <trkpt lat="28.823574" lon="105.301514"><ele>548.81964</ele><time>2026-04-03T22:49:55.000Z</time></trkpt>
        <trkpt lat="28.823627" lon="105.301514"><ele>549.2644</ele><time>2026-04-03T22:49:59.000Z</time></trkpt>
        <trkpt lat="28.823675" lon="105.301529"><ele>549.8248</ele><time>2026-04-03T22:50:02.000Z</time></trkpt>
        <trkpt lat="28.82372" lon="105.30156"><ele>549.40625</ele><time>2026-04-03T22:50:06.000Z</time></trkpt>
        <trkpt lat="28.823761" lon="105.301609"><ele>549.3035</ele><time>2026-04-03T22:50:13.000Z</time></trkpt>
        <trkpt lat="28.823803" lon="105.30163"><ele>550.6829</ele><time>2026-04-03T22:50:18.000Z</time></trkpt>
        <trkpt lat="28.823849" lon="105.301653"><ele>552.2997</ele><time>2026-04-03T22:50:23.000Z</time></trkpt>
        <trkpt lat="28.823891" lon="105.301684"><ele>552.3108</ele><time>2026-04-03T22:50:30.000Z</time></trkpt>
        <trkpt lat="28.823936" lon="105.301723"><ele>553.72626</ele><time>2026-04-03T22:50:35.000Z</time></trkpt>
        <trkpt lat="28.823979" lon="105.301745"><ele>554.75287</ele><time>2026-04-03T22:50:39.000Z</time></trkpt>
        <trkpt lat="28.824035" lon="105.301754"><ele>554.0932</ele><time>2026-04-03T22:50:45.000Z</time></trkpt>
        <trkpt lat="28.824083" lon="105.301768"><ele>554.9772</ele><time>2026-04-03T22:50:50.000Z</time></trkpt>
        <trkpt lat="28.824128" lon="105.301754"><ele>555.5994</ele><time>2026-04-03T22:50:54.000Z</time></trkpt>
        <trkpt lat="28.824179" lon="105.301772"><ele>557.6687</ele><time>2026-04-03T22:50:58.000Z</time></trkpt>
        <trkpt lat="28.824223" lon="105.301791"><ele>558.16516</ele><time>2026-04-03T22:51:02.000Z</time></trkpt>
        <trkpt lat="28.824269" lon="105.301818"><ele>559.48956</ele><time>2026-04-03T22:51:06.000Z</time></trkpt>
        <trkpt lat="28.824312" lon="105.301845"><ele>562.46063</ele><time>2026-04-03T22:51:11.000Z</time></trkpt>
        <trkpt lat="28.824355" lon="105.301869"><ele>562.9641</ele><time>2026-04-03T22:51:18.000Z</time></trkpt>
        <trkpt lat="28.824409" lon="105.301874"><ele>563.45087</ele><time>2026-04-03T22:51:27.000Z</time></trkpt>
        <trkpt lat="28.824456" lon="105.301894"><ele>563.97546</ele><time>2026-04-03T22:51:31.000Z</time></trkpt>
        <trkpt lat="28.824511" lon="105.301895"><ele>565.8529</ele><time>2026-04-03T22:51:36.000Z</time></trkpt>
        <trkpt lat="28.824562" lon="105.301882"><ele>566.56915</ele><time>2026-04-03T22:51:41.000Z</time></trkpt>
        <trkpt lat="28.824607" lon="105.301856"><ele>568.0614</ele><time>2026-04-03T22:51:46.000Z</time></trkpt>
        <trkpt lat="28.824632" lon="105.301809"><ele>568.33563</ele><time>2026-04-03T22:51:53.000Z</time></trkpt>
        <trkpt lat="28.82464" lon="105.301751"><ele>567.3644</ele><time>2026-04-03T22:51:57.000Z</time></trkpt>
        <trkpt lat="28.824662" lon="105.301699"><ele>567.19836</ele><time>2026-04-03T22:52:01.000Z</time></trkpt>
        <trkpt lat="28.82469" lon="105.301646"><ele>565.708</ele><time>2026-04-03T22:52:10.000Z</time></trkpt>
        <trkpt lat="28.824708" lon="105.301589"><ele>566.2596</ele><time>2026-04-03T22:52:15.000Z</time></trkpt>
        <trkpt lat="28.824709" lon="105.301533"><ele>567.74133</ele><time>2026-04-03T22:52:19.000Z</time></trkpt>
        <trkpt lat="28.824696" lon="105.301472"><ele>566.4952</ele><time>2026-04-03T22:52:23.000Z</time></trkpt>
        <trkpt lat="28.824679" lon="105.301423"><ele>566.7497</ele><time>2026-04-03T22:52:27.000Z</time></trkpt>
        <trkpt lat="28.824666" lon="105.301372"><ele>566.5457</ele><time>2026-04-03T22:52:32.000Z</time></trkpt>
        <trkpt lat="28.82465" lon="105.30132"><ele>564.9414</ele><time>2026-04-03T22:52:44.000Z</time></trkpt>
        <trkpt lat="28.824617" lon="105.301269"><ele>563.6329</ele><time>2026-04-03T22:52:52.000Z</time></trkpt>
        <trkpt lat="28.824568" lon="105.301258"><ele>555.3246</ele><time>2026-04-03T22:52:55.000Z</time></trkpt>
        <trkpt lat="28.824553" lon="105.301203"><ele>553.5258</ele><time>2026-04-03T22:53:00.000Z</time></trkpt>
        <trkpt lat="28.824521" lon="105.301155"><ele>552.13196</ele><time>2026-04-03T22:53:04.000Z</time></trkpt>
        <trkpt lat="28.824492" lon="105.301104"><ele>551.0073</ele><time>2026-04-03T22:53:08.000Z</time></trkpt>
        <trkpt lat="28.824474" lon="105.301042"><ele>549.2361</ele><time>2026-04-03T22:53:13.000Z</time></trkpt>
        <trkpt lat="28.824512" lon="105.300984"><ele>554.06964</ele><time>2026-04-03T22:53:15.000Z</time></trkpt>
        <trkpt lat="28.824497" lon="105.300926"><ele>551.9264</ele><time>2026-04-03T22:53:21.000Z</time></trkpt>
        <trkpt lat="28.824484" lon="105.30087"><ele>551.1657</ele><time>2026-04-03T22:53:26.000Z</time></trkpt>
        <trkpt lat="28.824468" lon="105.300822"><ele>551.6587</ele><time>2026-04-03T22:53:30.000Z</time></trkpt>
        <trkpt lat="28.824466" lon="105.300764"><ele>551.2856</ele><time>2026-04-03T22:53:35.000Z</time></trkpt>
        <trkpt lat="28.824503" lon="105.300733"><ele>551.4913</ele><time>2026-04-03T22:53:39.000Z</time></trkpt>
        <trkpt lat="28.824541" lon="105.300693"><ele>551.55566</ele><time>2026-04-03T22:53:44.000Z</time></trkpt>
        <trkpt lat="28.824596" lon="105.300685"><ele>549.11835</ele><time>2026-04-03T22:53:53.000Z</time></trkpt>
        <trkpt lat="28.824628" lon="105.30063"><ele>548.78046</ele><time>2026-04-03T22:54:01.000Z</time></trkpt>
        <trkpt lat="28.824656" lon="105.300695"><ele>547.95575</ele><time>2026-04-03T22:54:05.000Z</time></trkpt>
        <trkpt lat="28.824702" lon="105.300662"><ele>548.67346</ele><time>2026-04-03T22:54:12.000Z</time></trkpt>
        <trkpt lat="28.824728" lon="105.300615"><ele>548.20685</ele><time>2026-04-03T22:54:15.000Z</time></trkpt>
        <trkpt lat="28.824744" lon="105.300561"><ele>549.58777</ele><time>2026-04-03T22:54:21.000Z</time></trkpt>
        <trkpt lat="28.824775" lon="105.300515"><ele>549.9344</ele><time>2026-04-03T22:54:26.000Z</time></trkpt>
        <trkpt lat="28.824802" lon="105.300462"><ele>549.50104</ele><time>2026-04-03T22:54:32.000Z</time></trkpt>
        <trkpt lat="28.824817" lon="105.300413"><ele>550.65607</ele><time>2026-04-03T22:55:30.000Z</time></trkpt>
        <trkpt lat="28.824786" lon="105.300453"><ele>552.1991</ele><time>2026-04-03T22:56:45.000Z</time></trkpt>
        <trkpt lat="28.824832" lon="105.30046"><ele>558.40466</ele><time>2026-04-03T22:58:50.000Z</time></trkpt>
        <trkpt lat="28.824813" lon="105.300432"><ele>547.6853</ele><time>2026-04-03T22:59:08.000Z</time></trkpt>
        <trkpt lat="28.824888" lon="105.300368"><ele>547.55927</ele><time>2026-04-03T22:59:17.000Z</time></trkpt>
        <trkpt lat="28.824938" lon="105.300393"><ele>548.5825</ele><time>2026-04-03T22:59:26.000Z</time></trkpt>
        <trkpt lat="28.824974" lon="105.300279"><ele>554.4271</ele><time>2026-04-03T22:59:28.000Z</time></trkpt>
        <trkpt lat="28.824937" lon="105.300371"><ele>549.1949</ele><time>2026-04-03T22:59:31.000Z</time></trkpt>
        <trkpt lat="28.824962" lon="105.300311"><ele>548.3289</ele><time>2026-04-03T22:59:39.000Z</time></trkpt>
        <trkpt lat="28.824942" lon="105.300359"><ele>548.1419</ele><time>2026-04-03T22:59:47.000Z</time></trkpt>
        <trkpt lat="28.824911" lon="105.300398"><ele>548.5</ele><time>2026-04-03T22:59:50.000Z</time></trkpt>
        <trkpt lat="28.824913" lon="105.300491"><ele>550.3152</ele><time>2026-04-03T22:59:51.000Z</time></trkpt>
        <trkpt lat="28.824919" lon="105.300404"><ele>554.70496</ele><time>2026-04-03T23:00:00.000Z</time></trkpt>
        <trkpt lat="28.825067" lon="105.300122"><ele>552.9473</ele><time>2026-04-03T23:00:25.000Z</time></trkpt>
        <trkpt lat="28.825203" lon="105.300054"><ele>540.464</ele><time>2026-04-03T23:00:59.000Z</time></trkpt>
        <trkpt lat="28.825193" lon="105.299973"><ele>541.9458</ele><time>2026-04-03T23:01:01.000Z</time></trkpt>
        <trkpt lat="28.825175" lon="105.299841"><ele>542.1666</ele><time>2026-04-03T23:01:08.000Z</time></trkpt>
        <trkpt lat="28.825177" lon="105.299776"><ele>541.12866</ele><time>2026-04-03T23:01:12.000Z</time></trkpt>
        <trkpt lat="28.825071" lon="105.299684"><ele>536.574</ele><time>2026-04-03T23:01:13.000Z</time></trkpt>
        <trkpt lat="28.825101" lon="105.299642"><ele>536.58203</ele><time>2026-04-03T23:01:16.000Z</time></trkpt>
        <trkpt lat="28.825147" lon="105.299615"><ele>535.34076</ele><time>2026-04-03T23:01:19.000Z</time></trkpt>
        <trkpt lat="28.825202" lon="105.299567"><ele>534.803</ele><time>2026-04-03T23:01:22.000Z</time></trkpt>
        <trkpt lat="28.825247" lon="105.299589"><ele>534.81854</ele><time>2026-04-03T23:01:25.000Z</time></trkpt>
        <trkpt lat="28.825286" lon="105.299559"><ele>534.9585</ele><time>2026-04-03T23:01:28.000Z</time></trkpt>
        <trkpt lat="28.825362" lon="105.299567"><ele>537.77386</ele><time>2026-04-03T23:01:34.000Z</time></trkpt>
        <trkpt lat="28.825396" lon="105.299533"><ele>538.01276</ele><time>2026-04-03T23:01:45.000Z</time></trkpt>
        <trkpt lat="28.825423" lon="105.299575"><ele>537.50885</ele><time>2026-04-03T23:02:31.000Z</time></trkpt>
        <trkpt lat="28.825428" lon="105.299496"><ele>535.4588</ele><time>2026-04-03T23:03:39.000Z</time></trkpt>
        <trkpt lat="28.825384" lon="105.299482"><ele>536.8669</ele><time>2026-04-03T23:03:50.000Z</time></trkpt>
        <trkpt lat="28.825375" lon="105.299428"><ele>537.3705</ele><time>2026-04-03T23:04:06.000Z</time></trkpt>
        <trkpt lat="28.825398" lon="105.299378"><ele>536.155</ele><time>2026-04-03T23:04:22.000Z</time></trkpt>
        <trkpt lat="28.825384" lon="105.299326"><ele>536.10645</ele><time>2026-04-03T23:04:33.000Z</time></trkpt>
        <trkpt lat="28.825409" lon="105.299277"><ele>531.0545</ele><time>2026-04-03T23:04:49.000Z</time></trkpt>
        <trkpt lat="28.82538" lon="105.299236"><ele>526.65216</ele><time>2026-04-03T23:05:20.000Z</time></trkpt>
        <trkpt lat="28.825344" lon="105.299204"><ele>526.448</ele><time>2026-04-03T23:05:31.000Z</time></trkpt>
        <trkpt lat="28.825305" lon="105.299171"><ele>526.9361</ele><time>2026-04-03T23:05:49.000Z</time></trkpt>
        <trkpt lat="28.82526" lon="105.299161"><ele>524.49225</ele><time>2026-04-03T23:05:56.000Z</time></trkpt>
        <trkpt lat="28.825215" lon="105.299144"><ele>520.0196</ele><time>2026-04-03T23:06:12.000Z</time></trkpt>
        <trkpt lat="28.825173" lon="105.299168"><ele>518.68677</ele><time>2026-04-03T23:06:23.000Z</time></trkpt>
        <trkpt lat="28.825129" lon="105.299189"><ele>518.23004</ele><time>2026-04-03T23:06:28.000Z</time></trkpt>
        <trkpt lat="28.8251" lon="105.299149"><ele>515.75775</ele><time>2026-04-03T23:06:44.000Z</time></trkpt>
        <trkpt lat="28.825057" lon="105.299078"><ele>515.0546</ele><time>2026-04-03T23:06:52.000Z</time></trkpt>
        <trkpt lat="28.825083" lon="105.299121"><ele>520.2998</ele><time>2026-04-03T23:07:04.000Z</time></trkpt>
        <trkpt lat="28.825081" lon="105.299067"><ele>518.3589</ele><time>2026-04-03T23:08:09.000Z</time></trkpt>
        <trkpt lat="28.825046" lon="105.299018"><ele>516.5758</ele><time>2026-04-03T23:08:17.000Z</time></trkpt>
        <trkpt lat="28.825079" lon="105.298983"><ele>516.0036</ele><time>2026-04-03T23:08:21.000Z</time></trkpt>
        <trkpt lat="28.825143" lon="105.298946"><ele>509.44092</ele><time>2026-04-03T23:11:56.000Z</time></trkpt>
        <trkpt lat="28.825183" lon="105.29892"><ele>508.92865</ele><time>2026-04-03T23:12:02.000Z</time></trkpt>
        <trkpt lat="28.82523" lon="105.298903"><ele>507.50317</ele><time>2026-04-03T23:12:07.000Z</time></trkpt>
        <trkpt lat="28.82528" lon="105.298892"><ele>506.35477</ele><time>2026-04-03T23:12:13.000Z</time></trkpt>
        <trkpt lat="28.825327" lon="105.298898"><ele>506.01712</ele><time>2026-04-03T23:12:23.000Z</time></trkpt>
        <trkpt lat="28.825384" lon="105.298899"><ele>504.32092</ele><time>2026-04-03T23:12:28.000Z</time></trkpt>
        <trkpt lat="28.825428" lon="105.298892"><ele>501.65323</ele><time>2026-04-03T23:12:37.000Z</time></trkpt>
        <trkpt lat="28.825473" lon="105.298878"><ele>501.9176</ele><time>2026-04-03T23:12:44.000Z</time></trkpt>
        <trkpt lat="28.825527" lon="105.298862"><ele>500.59338</ele><time>2026-04-03T23:12:52.000Z</time></trkpt>
        <trkpt lat="28.825572" lon="105.298872"><ele>500.77115</ele><time>2026-04-03T23:12:58.000Z</time></trkpt>
        <trkpt lat="28.825619" lon="105.298898"><ele>500.65472</ele><time>2026-04-03T23:13:04.000Z</time></trkpt>
        <trkpt lat="28.825673" lon="105.298901"><ele>501.40247</ele><time>2026-04-03T23:13:09.000Z</time></trkpt>
        <trkpt lat="28.825715" lon="105.298873"><ele>499.65262</ele><time>2026-04-03T23:13:15.000Z</time></trkpt>
        <trkpt lat="28.825746" lon="105.298829"><ele>499.97565</ele><time>2026-04-03T23:13:23.000Z</time></trkpt>
        <trkpt lat="28.825801" lon="105.298819"><ele>497.53427</ele><time>2026-04-03T23:13:29.000Z</time></trkpt>
        <trkpt lat="28.825853" lon="105.298811"><ele>497.23547</ele><time>2026-04-03T23:13:34.000Z</time></trkpt>
        <trkpt lat="28.825906" lon="105.298812"><ele>496.78763</ele><time>2026-04-03T23:13:40.000Z</time></trkpt>
        <trkpt lat="28.825949" lon="105.298844"><ele>495.57776</ele><time>2026-04-03T23:13:46.000Z</time></trkpt>
        <trkpt lat="28.825986" lon="105.298886"><ele>498.51862</ele><time>2026-04-03T23:14:01.000Z</time></trkpt>
        <trkpt lat="28.826017" lon="105.298936"><ele>498.36377</ele><time>2026-04-03T23:14:07.000Z</time></trkpt>
        <trkpt lat="28.826047" lon="105.298997"><ele>498.73068</ele><time>2026-04-03T23:14:12.000Z</time></trkpt>
        <trkpt lat="28.826085" lon="105.299025"><ele>499.8149</ele><time>2026-04-03T23:14:16.000Z</time></trkpt>
        <trkpt lat="28.826131" lon="105.299046"><ele>502.3979</ele><time>2026-04-03T23:14:21.000Z</time></trkpt>
        <trkpt lat="28.826176" lon="105.299066"><ele>504.4177</ele><time>2026-04-03T23:14:26.000Z</time></trkpt>
        <trkpt lat="28.826216" lon="105.299042"><ele>505.49457</ele><time>2026-04-03T23:14:34.000Z</time></trkpt>
        <trkpt lat="28.826252" lon="105.299007"><ele>507.06104</ele><time>2026-04-03T23:14:40.000Z</time></trkpt>
        <trkpt lat="28.826298" lon="105.298975"><ele>506.34863</ele><time>2026-04-03T23:14:47.000Z</time></trkpt>
        <trkpt lat="28.82635" lon="105.29896"><ele>505.3872</ele><time>2026-04-03T23:15:00.000Z</time></trkpt>
        <trkpt lat="28.826401" lon="105.298961"><ele>506.83652</ele><time>2026-04-03T23:15:05.000Z</time></trkpt>
        <trkpt lat="28.82645" lon="105.298971"><ele>507.42758</ele><time>2026-04-03T23:15:11.000Z</time></trkpt>
        <trkpt lat="28.826497" lon="105.29895"><ele>506.0114</ele><time>2026-04-03T23:15:16.000Z</time></trkpt>
        <trkpt lat="28.826544" lon="105.29894"><ele>507.42056</ele><time>2026-04-03T23:15:23.000Z</time></trkpt>
        <trkpt lat="28.826592" lon="105.298922"><ele>510.072</ele><time>2026-04-03T23:15:30.000Z</time></trkpt>
        <trkpt lat="28.826638" lon="105.298906"><ele>509.28177</ele><time>2026-04-03T23:15:36.000Z</time></trkpt>
        <trkpt lat="28.826687" lon="105.298918"><ele>509.69403</ele><time>2026-04-03T23:15:41.000Z</time></trkpt>
        <trkpt lat="28.82674" lon="105.298917"><ele>512.26746</ele><time>2026-04-03T23:15:48.000Z</time></trkpt>
        <trkpt lat="28.826715" lon="105.298971"><ele>511.55487</ele><time>2026-04-03T23:21:35.000Z</time></trkpt>
        <trkpt lat="28.826742" lon="105.298929"><ele>511.91968</ele><time>2026-04-03T23:22:11.000Z</time></trkpt>
        <trkpt lat="28.826787" lon="105.29892"><ele>511.76227</ele><time>2026-04-03T23:22:51.000Z</time></trkpt>
        <trkpt lat="28.826888" lon="105.298898"><ele>513.83264</ele><time>2026-04-03T23:23:00.000Z</time></trkpt>
        <trkpt lat="28.826921" lon="105.298853"><ele>513.2522</ele><time>2026-04-03T23:23:06.000Z</time></trkpt>
        <trkpt lat="28.826962" lon="105.29883"><ele>512.415</ele><time>2026-04-03T23:23:10.000Z</time></trkpt>
        <trkpt lat="28.827" lon="105.298794"><ele>511.45895</ele><time>2026-04-03T23:23:15.000Z</time></trkpt>
        <trkpt lat="28.827054" lon="105.298808"><ele>510.45795</ele><time>2026-04-03T23:23:21.000Z</time></trkpt>
        <trkpt lat="28.827091" lon="105.298765"><ele>508.92026</ele><time>2026-04-03T23:23:27.000Z</time></trkpt>
        <trkpt lat="28.827148" lon="105.298771"><ele>509.3022</ele><time>2026-04-03T23:23:33.000Z</time></trkpt>
        <trkpt lat="28.82719" lon="105.298792"><ele>506.84598</ele><time>2026-04-03T23:23:42.000Z</time></trkpt>
        <trkpt lat="28.827241" lon="105.298791"><ele>505.85495</ele><time>2026-04-03T23:23:48.000Z</time></trkpt>
        <trkpt lat="28.827282" lon="105.298758"><ele>505.15543</ele><time>2026-04-03T23:23:54.000Z</time></trkpt>
        <trkpt lat="28.827331" lon="105.298772"><ele>502.73007</ele><time>2026-04-03T23:24:00.000Z</time></trkpt>
        <trkpt lat="28.827382" lon="105.298762"><ele>501.7182</ele><time>2026-04-03T23:24:04.000Z</time></trkpt>
        <trkpt lat="28.827424" lon="105.298781"><ele>502.2436</ele><time>2026-04-03T23:24:14.000Z</time></trkpt>
        <trkpt lat="28.82742" lon="105.298846"><ele>502.24487</ele><time>2026-04-03T23:24:19.000Z</time></trkpt>
        <trkpt lat="28.827457" lon="105.298804"><ele>504.30283</ele><time>2026-04-03T23:24:28.000Z</time></trkpt>
        <trkpt lat="28.827508" lon="105.298785"><ele>504.21567</ele><time>2026-04-03T23:24:35.000Z</time></trkpt>
        <trkpt lat="28.82757" lon="105.298769"><ele>504.1031</ele><time>2026-04-03T23:24:41.000Z</time></trkpt>
        <trkpt lat="28.827626" lon="105.298793"><ele>500.5112</ele><time>2026-04-03T23:24:49.000Z</time></trkpt>
        <trkpt lat="28.82759" lon="105.298756"><ele>500.62268</ele><time>2026-04-03T23:24:51.000Z</time></trkpt>
        <trkpt lat="28.827589" lon="105.29881"><ele>498.3233</ele><time>2026-04-03T23:24:53.000Z</time></trkpt>
        <trkpt lat="28.827606" lon="105.298718"><ele>497.66354</ele><time>2026-04-03T23:24:56.000Z</time></trkpt>
        <trkpt lat="28.827639" lon="105.298783"><ele>496.73773</ele><time>2026-04-03T23:24:58.000Z</time></trkpt>
        <trkpt lat="28.82768" lon="105.298684"><ele>494.90018</ele><time>2026-04-03T23:25:01.000Z</time></trkpt>
        <trkpt lat="28.827648" lon="105.298783"><ele>493.99902</ele><time>2026-04-03T23:25:03.000Z</time></trkpt>
        <trkpt lat="28.827611" lon="105.298753"><ele>493.23782</ele><time>2026-04-03T23:25:06.000Z</time></trkpt>
        <trkpt lat="28.827675" lon="105.298748"><ele>492.84042</ele><time>2026-04-03T23:25:07.000Z</time></trkpt>
        <trkpt lat="28.827728" lon="105.298733"><ele>492.2713</ele><time>2026-04-03T23:25:08.000Z</time></trkpt>
        <trkpt lat="28.827634" lon="105.298662"><ele>489.8906</ele><time>2026-04-03T23:25:10.000Z</time></trkpt>
        <trkpt lat="28.827719" lon="105.298761"><ele>491.05783</ele><time>2026-04-03T23:25:13.000Z</time></trkpt>
        <trkpt lat="28.82776" lon="105.29879"><ele>490.601</ele><time>2026-04-03T23:25:15.000Z</time></trkpt>
        <trkpt lat="28.827758" lon="105.298887"><ele>494.9687</ele><time>2026-04-03T23:25:19.000Z</time></trkpt>
        <trkpt lat="28.827802" lon="105.298906"><ele>494.78928</ele><time>2026-04-03T23:25:21.000Z</time></trkpt>
        <trkpt lat="28.827846" lon="105.298925"><ele>494.41724</ele><time>2026-04-03T23:25:23.000Z</time></trkpt>
        <trkpt lat="28.827856" lon="105.299021"><ele>494.6565</ele><time>2026-04-03T23:25:28.000Z</time></trkpt>
        <trkpt lat="28.827705" lon="105.298911"><ele>492.8033</ele><time>2026-04-03T23:25:30.000Z</time></trkpt>
        <trkpt lat="28.827779" lon="105.298945"><ele>493.36407</ele><time>2026-04-03T23:25:32.000Z</time></trkpt>
        <trkpt lat="28.827832" lon="105.298961"><ele>494.6584</ele><time>2026-04-03T23:25:35.000Z</time></trkpt>
        <trkpt lat="28.827877" lon="105.298979"><ele>495.53296</ele><time>2026-04-03T23:25:39.000Z</time></trkpt>
        <trkpt lat="28.827895" lon="105.29903"><ele>496.85965</ele><time>2026-04-03T23:25:42.000Z</time></trkpt>
        <trkpt lat="28.827927" lon="105.299073"><ele>497.10956</ele><time>2026-04-03T23:25:48.000Z</time></trkpt>
        <trkpt lat="28.827945" lon="105.299123"><ele>496.12073</ele><time>2026-04-03T23:25:53.000Z</time></trkpt>
        <trkpt lat="28.827985" lon="105.299159"><ele>495.6454</ele><time>2026-04-03T23:25:59.000Z</time></trkpt>
        <trkpt lat="28.827996" lon="105.299214"><ele>495.78442</ele><time>2026-04-03T23:26:04.000Z</time></trkpt>
        <trkpt lat="28.828025" lon="105.299254"><ele>496.61624</ele><time>2026-04-03T23:26:12.000Z</time></trkpt>
        <trkpt lat="28.828069" lon="105.299274"><ele>496.7568</ele><time>2026-04-03T23:26:15.000Z</time></trkpt>
        <trkpt lat="28.828084" lon="105.299328"><ele>495.81458</ele><time>2026-04-03T23:26:22.000Z</time></trkpt>
        <trkpt lat="28.828127" lon="105.299361"><ele>496.4534</ele><time>2026-04-03T23:26:26.000Z</time></trkpt>
        <trkpt lat="28.828173" lon="105.299384"><ele>498.66724</ele><time>2026-04-03T23:26:33.000Z</time></trkpt>
        <trkpt lat="28.82824" lon="105.299401"><ele>499.36124</ele><time>2026-04-03T23:26:38.000Z</time></trkpt>
        <trkpt lat="28.828287" lon="105.299401"><ele>499.9379</ele><time>2026-04-03T23:26:43.000Z</time></trkpt>
        <trkpt lat="28.828326" lon="105.299375"><ele>500.45566</ele><time>2026-04-03T23:26:49.000Z</time></trkpt>
        <trkpt lat="28.828353" lon="105.299322"><ele>499.49387</ele><time>2026-04-03T23:26:54.000Z</time></trkpt>
        <trkpt lat="28.828387" lon="105.299272"><ele>499.23712</ele><time>2026-04-03T23:26:59.000Z</time></trkpt>
        <trkpt lat="28.828426" lon="105.299242"><ele>499.60327</ele><time>2026-04-03T23:27:04.000Z</time></trkpt>
        <trkpt lat="28.828458" lon="105.299202"><ele>499.21915</ele><time>2026-04-03T23:27:09.000Z</time></trkpt>
        <trkpt lat="28.828501" lon="105.299179"><ele>499.70837</ele><time>2026-04-03T23:27:14.000Z</time></trkpt>
        <trkpt lat="28.828544" lon="105.299157"><ele>500.0052</ele><time>2026-04-03T23:27:18.000Z</time></trkpt>
        <trkpt lat="28.828589" lon="105.299134"><ele>500.92996</ele><time>2026-04-03T23:27:23.000Z</time></trkpt>
        <trkpt lat="28.828623" lon="105.299082"><ele>501.51517</ele><time>2026-04-03T23:27:29.000Z</time></trkpt>
        <trkpt lat="28.828655" lon="105.299034"><ele>501.9023</ele><time>2026-04-03T23:27:36.000Z</time></trkpt>
        <trkpt lat="28.828684" lon="105.298991"><ele>502.22964</ele><time>2026-04-03T23:27:42.000Z</time></trkpt>
        <trkpt lat="28.828728" lon="105.298964"><ele>501.46307</ele><time>2026-04-03T23:27:48.000Z</time></trkpt>
        <trkpt lat="28.828769" lon="105.298919"><ele>499.89133</ele><time>2026-04-03T23:28:19.000Z</time></trkpt>
        <trkpt lat="28.828805" lon="105.298859"><ele>499.89423</ele><time>2026-04-03T23:28:24.000Z</time></trkpt>
        <trkpt lat="28.828836" lon="105.298815"><ele>499.34692</ele><time>2026-04-03T23:28:28.000Z</time></trkpt>
        <trkpt lat="28.828847" lon="105.298765"><ele>498.31384</ele><time>2026-04-03T23:28:32.000Z</time></trkpt>
        <trkpt lat="28.828872" lon="105.298715"><ele>497.59668</ele><time>2026-04-03T23:28:37.000Z</time></trkpt>
        <trkpt lat="28.828915" lon="105.298681"><ele>498.1302</ele><time>2026-04-03T23:28:42.000Z</time></trkpt>
        <trkpt lat="28.828961" lon="105.298649"><ele>497.42572</ele><time>2026-04-03T23:28:47.000Z</time></trkpt>
        <trkpt lat="28.829007" lon="105.298633"><ele>496.896</ele><time>2026-04-03T23:28:52.000Z</time></trkpt>
        <trkpt lat="28.829057" lon="105.298664"><ele>496.05685</ele><time>2026-04-03T23:28:58.000Z</time></trkpt>
        <trkpt lat="28.829102" lon="105.29868"><ele>495.4641</ele><time>2026-04-03T23:29:02.000Z</time></trkpt>
        <trkpt lat="28.829152" lon="105.298693"><ele>496.22916</ele><time>2026-04-03T23:29:06.000Z</time></trkpt>
        <trkpt lat="28.829202" lon="105.298664"><ele>497.04306</ele><time>2026-04-03T23:29:11.000Z</time></trkpt>
        <trkpt lat="28.829226" lon="105.298617"><ele>498.65524</ele><time>2026-04-03T23:29:16.000Z</time></trkpt>
        <trkpt lat="28.829256" lon="105.298567"><ele>500.30222</ele><time>2026-04-03T23:29:21.000Z</time></trkpt>
        <trkpt lat="28.829279" lon="105.298516"><ele>499.7309</ele><time>2026-04-03T23:29:26.000Z</time></trkpt>
        <trkpt lat="28.829282" lon="105.298462"><ele>497.60507</ele><time>2026-04-03T23:29:31.000Z</time></trkpt>
        <trkpt lat="28.829312" lon="105.29842"><ele>496.97726</ele><time>2026-04-03T23:29:36.000Z</time></trkpt>
        <trkpt lat="28.829333" lon="105.298371"><ele>496.95477</ele><time>2026-04-03T23:29:42.000Z</time></trkpt>
        <trkpt lat="28.829374" lon="105.298331"><ele>499.4644</ele><time>2026-04-03T23:29:56.000Z</time></trkpt>
        <trkpt lat="28.829419" lon="105.298297"><ele>499.16077</ele><time>2026-04-03T23:30:01.000Z</time></trkpt>
        <trkpt lat="28.829452" lon="105.298261"><ele>500.58606</ele><time>2026-04-03T23:30:07.000Z</time></trkpt>
        <trkpt lat="28.829486" lon="105.298224"><ele>500.705</ele><time>2026-04-03T23:30:16.000Z</time></trkpt>
        <trkpt lat="28.8295" lon="105.298175"><ele>498.76566</ele><time>2026-04-03T23:30:21.000Z</time></trkpt>
        <trkpt lat="28.829506" lon="105.298115"><ele>498.20822</ele><time>2026-04-03T23:30:26.000Z</time></trkpt>
        <trkpt lat="28.829515" lon="105.298008"><ele>494.8205</ele><time>2026-04-03T23:30:59.000Z</time></trkpt>
        <trkpt lat="28.829514" lon="105.297947"><ele>491.1043</ele><time>2026-04-03T23:31:43.000Z</time></trkpt>
        <trkpt lat="28.829546" lon="105.297909"><ele>492.1599</ele><time>2026-04-03T23:31:50.000Z</time></trkpt>
        <trkpt lat="28.829563" lon="105.297855"><ele>489.89044</ele><time>2026-04-03T23:32:01.000Z</time></trkpt>
        <trkpt lat="28.829564" lon="105.2978"><ele>488.64777</ele><time>2026-04-03T23:32:15.000Z</time></trkpt>
        <trkpt lat="28.829513" lon="105.297862"><ele>486.55975</ele><time>2026-04-03T23:32:30.000Z</time></trkpt>
        <trkpt lat="28.829549" lon="105.297905"><ele>486.17407</ele><time>2026-04-03T23:32:45.000Z</time></trkpt>
        <trkpt lat="28.829567" lon="105.297855"><ele>485.66315</ele><time>2026-04-03T23:32:51.000Z</time></trkpt>
        <trkpt lat="28.829596" lon="105.297815"><ele>483.3941</ele><time>2026-04-03T23:32:55.000Z</time></trkpt>
        <trkpt lat="28.829649" lon="105.29769"><ele>486.20337</ele><time>2026-04-03T23:33:29.000Z</time></trkpt>
        <trkpt lat="28.829688" lon="105.297652"><ele>482.91473</ele><time>2026-04-03T23:33:43.000Z</time></trkpt>
        <trkpt lat="28.829707" lon="105.297597"><ele>482.73862</ele><time>2026-04-03T23:33:49.000Z</time></trkpt>
        <trkpt lat="28.829737" lon="105.297552"><ele>482.0063</ele><time>2026-04-03T23:33:54.000Z</time></trkpt>
        <trkpt lat="28.829758" lon="105.2975"><ele>481.34174</ele><time>2026-04-03T23:34:00.000Z</time></trkpt>
        <trkpt lat="28.829767" lon="105.297439"><ele>481.3905</ele><time>2026-04-03T23:34:04.000Z</time></trkpt>
        <trkpt lat="28.82978" lon="105.297381"><ele>481.12766</ele><time>2026-04-03T23:34:11.000Z</time></trkpt>
        <trkpt lat="28.829785" lon="105.297322"><ele>481.59152</ele><time>2026-04-03T23:34:17.000Z</time></trkpt>
        <trkpt lat="28.82981" lon="105.297267"><ele>481.6348</ele><time>2026-04-03T23:34:23.000Z</time></trkpt>
        <trkpt lat="28.829829" lon="105.297213"><ele>480.00928</ele><time>2026-04-03T23:34:30.000Z</time></trkpt>
        <trkpt lat="28.82987" lon="105.29717"><ele>479.20688</ele><time>2026-04-03T23:34:36.000Z</time></trkpt>
        <trkpt lat="28.829901" lon="105.29713"><ele>478.96268</ele><time>2026-04-03T23:34:40.000Z</time></trkpt>
        <trkpt lat="28.829934" lon="105.297092"><ele>477.58316</ele><time>2026-04-03T23:34:44.000Z</time></trkpt>
        <trkpt lat="28.829951" lon="105.297039"><ele>476.09067</ele><time>2026-04-03T23:34:49.000Z</time></trkpt>
        <trkpt lat="28.829983" lon="105.296986"><ele>474.94263</ele><time>2026-04-03T23:34:54.000Z</time></trkpt>
        <trkpt lat="28.830021" lon="105.296953"><ele>473.83707</ele><time>2026-04-03T23:34:58.000Z</time></trkpt>
        <trkpt lat="28.830059" lon="105.296913"><ele>473.1043</ele><time>2026-04-03T23:35:02.000Z</time></trkpt>
        <trkpt lat="28.830101" lon="105.296894"><ele>473.07468</ele><time>2026-04-03T23:35:11.000Z</time></trkpt>
        <trkpt lat="28.830136" lon="105.296857"><ele>470.70694</ele><time>2026-04-03T23:35:21.000Z</time></trkpt>
        <trkpt lat="28.830166" lon="105.296809"><ele>470.8241</ele><time>2026-04-03T23:35:26.000Z</time></trkpt>
        <trkpt lat="28.830207" lon="105.296777"><ele>470.82547</ele><time>2026-04-03T23:35:34.000Z</time></trkpt>
        <trkpt lat="28.830248" lon="105.296751"><ele>471.64133</ele><time>2026-04-03T23:35:41.000Z</time></trkpt>
        <trkpt lat="28.830275" lon="105.296702"><ele>471.03406</ele><time>2026-04-03T23:36:06.000Z</time></trkpt>
        <trkpt lat="28.830281" lon="105.296645"><ele>468.24286</ele><time>2026-04-03T23:37:10.000Z</time></trkpt>
        <trkpt lat="28.830315" lon="105.29661"><ele>466.91687</ele><time>2026-04-03T23:37:23.000Z</time></trkpt>
        <trkpt lat="28.830316" lon="105.296556"><ele>466.58044</ele><time>2026-04-03T23:37:30.000Z</time></trkpt>
        <trkpt lat="28.830288" lon="105.296515"><ele>466.54117</ele><time>2026-04-03T23:37:35.000Z</time></trkpt>
        <trkpt lat="28.830284" lon="105.296464"><ele>463.3783</ele><time>2026-04-03T23:37:42.000Z</time></trkpt>
        <trkpt lat="28.830309" lon="105.296416"><ele>461.88428</ele><time>2026-04-03T23:37:48.000Z</time></trkpt>
        <trkpt lat="28.830319" lon="105.296359"><ele>461.18805</ele><time>2026-04-03T23:37:56.000Z</time></trkpt>
        <trkpt lat="28.830343" lon="105.296315"><ele>460.51874</ele><time>2026-04-03T23:38:02.000Z</time></trkpt>
        <trkpt lat="28.830376" lon="105.296273"><ele>459.2913</ele><time>2026-04-03T23:38:08.000Z</time></trkpt>
        <trkpt lat="28.830392" lon="105.296224"><ele>458.2651</ele><time>2026-04-03T23:38:15.000Z</time></trkpt>
        <trkpt lat="28.830392" lon="105.296173"><ele>456.70737</ele><time>2026-04-03T23:38:23.000Z</time></trkpt>
        <trkpt lat="28.830391" lon="105.296119"><ele>455.58334</ele><time>2026-04-03T23:38:30.000Z</time></trkpt>
        <trkpt lat="28.830381" lon="105.296066"><ele>451.26788</ele><time>2026-04-03T23:38:39.000Z</time></trkpt>
        <trkpt lat="28.830381" lon="105.296004"><ele>448.36014</ele><time>2026-04-03T23:38:48.000Z</time></trkpt>
        <trkpt lat="28.830364" lon="105.295946"><ele>445.70694</ele><time>2026-04-03T23:38:54.000Z</time></trkpt>
        <trkpt lat="28.830376" lon="105.295887"><ele>446.3797</ele><time>2026-04-03T23:38:58.000Z</time></trkpt>
        <trkpt lat="28.830408" lon="105.295836"><ele>444.29196</ele><time>2026-04-03T23:39:04.000Z</time></trkpt>
        <trkpt lat="28.830414" lon="105.295779"><ele>441.92435</ele><time>2026-04-03T23:39:10.000Z</time></trkpt>
        <trkpt lat="28.830402" lon="105.295726"><ele>441.72415</ele><time>2026-04-03T23:39:16.000Z</time></trkpt>
        <trkpt lat="28.830415" lon="105.295672"><ele>441.6283</ele><time>2026-04-03T23:39:24.000Z</time></trkpt>
        <trkpt lat="28.830419" lon="105.29562"><ele>440.84308</ele><time>2026-04-03T23:39:32.000Z</time></trkpt>
        <trkpt lat="28.830438" lon="105.295563"><ele>438.67532</ele><time>2026-04-03T23:39:38.000Z</time></trkpt>
        <trkpt lat="28.830427" lon="105.295507"><ele>439.51917</ele><time>2026-04-03T23:39:42.000Z</time></trkpt>
        <trkpt lat="28.830423" lon="105.295451"><ele>439.31693</ele><time>2026-04-03T23:39:46.000Z</time></trkpt>
        <trkpt lat="28.830417" lon="105.29539"><ele>437.92783</ele><time>2026-04-03T23:39:50.000Z</time></trkpt>
        <trkpt lat="28.830425" lon="105.295336"><ele>435.8318</ele><time>2026-04-03T23:39:54.000Z</time></trkpt>
        <trkpt lat="28.830458" lon="105.295295"><ele>434.93832</ele><time>2026-04-03T23:39:58.000Z</time></trkpt>
        <trkpt lat="28.830491" lon="105.295252"><ele>433.9531</ele><time>2026-04-03T23:40:02.000Z</time></trkpt>
        <trkpt lat="28.830504" lon="105.295198"><ele>433.57205</ele><time>2026-04-03T23:40:06.000Z</time></trkpt>
        <trkpt lat="28.830542" lon="105.295156"><ele>433.77444</ele><time>2026-04-03T23:40:10.000Z</time></trkpt>
        <trkpt lat="28.830584" lon="105.295126"><ele>433.76605</ele><time>2026-04-03T23:40:14.000Z</time></trkpt>
        <trkpt lat="28.830634" lon="105.295113"><ele>432.8769</ele><time>2026-04-03T23:40:22.000Z</time></trkpt>
        <trkpt lat="28.830671" lon="105.295066"><ele>431.94623</ele><time>2026-04-03T23:40:27.000Z</time></trkpt>
        <trkpt lat="28.830711" lon="105.295026"><ele>430.73108</ele><time>2026-04-03T23:40:33.000Z</time></trkpt>
        <trkpt lat="28.830724" lon="105.294973"><ele>429.56958</ele><time>2026-04-03T23:40:39.000Z</time></trkpt>
        <trkpt lat="28.830738" lon="105.294923"><ele>428.15668</ele><time>2026-04-03T23:40:45.000Z</time></trkpt>
        <trkpt lat="28.830765" lon="105.294871"><ele>426.0843</ele><time>2026-04-03T23:40:50.000Z</time></trkpt>
        <trkpt lat="28.830816" lon="105.294864"><ele>424.9438</ele><time>2026-04-03T23:40:55.000Z</time></trkpt>
        <trkpt lat="28.83087" lon="105.294882"><ele>424.69504</ele><time>2026-04-03T23:41:00.000Z</time></trkpt>
        <trkpt lat="28.830916" lon="105.294879"><ele>423.92807</ele><time>2026-04-03T23:41:08.000Z</time></trkpt>
        <trkpt lat="28.83096" lon="105.294901"><ele>424.19653</ele><time>2026-04-03T23:41:16.000Z</time></trkpt>
        <trkpt lat="28.830997" lon="105.294934"><ele>424.11008</ele><time>2026-04-03T23:41:23.000Z</time></trkpt>
        <trkpt lat="28.831046" lon="105.294952"><ele>423.3356</ele><time>2026-04-03T23:41:31.000Z</time></trkpt>
        <trkpt lat="28.831091" lon="105.294973"><ele>424.0863</ele><time>2026-04-03T23:41:36.000Z</time></trkpt>
        <trkpt lat="28.831128" lon="105.295004"><ele>424.63336</ele><time>2026-04-03T23:41:41.000Z</time></trkpt>
        <trkpt lat="28.831162" lon="105.295041"><ele>423.1459</ele><time>2026-04-03T23:41:45.000Z</time></trkpt>
        <trkpt lat="28.831208" lon="105.295043"><ele>424.64392</ele><time>2026-04-03T23:41:51.000Z</time></trkpt>
        <trkpt lat="28.831263" lon="105.295022"><ele>425.67358</ele><time>2026-04-03T23:41:58.000Z</time></trkpt>
        <trkpt lat="28.831299" lon="105.294982"><ele>426.66254</ele><time>2026-04-03T23:42:03.000Z</time></trkpt>
        <trkpt lat="28.831336" lon="105.294951"><ele>427.2029</ele><time>2026-04-03T23:42:07.000Z</time></trkpt>
        <trkpt lat="28.831386" lon="105.294917"><ele>428.65445</ele><time>2026-04-03T23:42:12.000Z</time></trkpt>
        <trkpt lat="28.831432" lon="105.294905"><ele>428.8199</ele><time>2026-04-03T23:42:16.000Z</time></trkpt>
        <trkpt lat="28.831484" lon="105.294909"><ele>426.59576</ele><time>2026-04-03T23:42:22.000Z</time></trkpt>
        <trkpt lat="28.831534" lon="105.294921"><ele>427.39294</ele><time>2026-04-03T23:42:27.000Z</time></trkpt>
        <trkpt lat="28.83158" lon="105.294926"><ele>429.8152</ele><time>2026-04-03T23:42:33.000Z</time></trkpt>
        <trkpt lat="28.831624" lon="105.294945"><ele>428.164</ele><time>2026-04-03T23:42:43.000Z</time></trkpt>
        <trkpt lat="28.831671" lon="105.294969"><ele>426.9468</ele><time>2026-04-03T23:42:50.000Z</time></trkpt>
        <trkpt lat="28.831711" lon="105.294995"><ele>426.98547</ele><time>2026-04-03T23:42:57.000Z</time></trkpt>
        <trkpt lat="28.831754" lon="105.295013"><ele>426.35925</ele><time>2026-04-03T23:43:02.000Z</time></trkpt>
        <trkpt lat="28.831767" lon="105.295067"><ele>429.11902</ele><time>2026-04-03T23:43:13.000Z</time></trkpt>
        <trkpt lat="28.831805" lon="105.295103"><ele>429.98883</ele><time>2026-04-03T23:43:23.000Z</time></trkpt>
        <trkpt lat="28.831859" lon="105.295109"><ele>429.2662</ele><time>2026-04-03T23:43:33.000Z</time></trkpt>
        <trkpt lat="28.831906" lon="105.295104"><ele>428.8236</ele><time>2026-04-03T23:43:43.000Z</time></trkpt>
        <trkpt lat="28.831952" lon="105.295101"><ele>427.862</ele><time>2026-04-03T23:43:50.000Z</time></trkpt>
        <trkpt lat="28.832" lon="105.295092"><ele>426.55685</ele><time>2026-04-03T23:43:57.000Z</time></trkpt>
        <trkpt lat="28.832042" lon="105.295074"><ele>424.76855</ele><time>2026-04-03T23:44:02.000Z</time></trkpt>
        <trkpt lat="28.832092" lon="105.295054"><ele>422.7776</ele><time>2026-04-03T23:44:07.000Z</time></trkpt>
        <trkpt lat="28.83213" lon="105.295022"><ele>421.4804</ele><time>2026-04-03T23:44:13.000Z</time></trkpt>
        <trkpt lat="28.832182" lon="105.295017"><ele>419.93808</ele><time>2026-04-03T23:44:19.000Z</time></trkpt>
        <trkpt lat="28.832229" lon="105.294987"><ele>417.86816</ele><time>2026-04-03T23:44:27.000Z</time></trkpt>
        <trkpt lat="28.832264" lon="105.294954"><ele>415.97937</ele><time>2026-04-03T23:44:35.000Z</time></trkpt>
        <trkpt lat="28.832292" lon="105.294913"><ele>414.8741</ele><time>2026-04-03T23:44:46.000Z</time></trkpt>
        <trkpt lat="28.832333" lon="105.294879"><ele>413.2115</ele><time>2026-04-03T23:44:57.000Z</time></trkpt>
        <trkpt lat="28.832366" lon="105.294838"><ele>413.17508</ele><time>2026-04-03T23:45:05.000Z</time></trkpt>
        <trkpt lat="28.83241" lon="105.294813"><ele>411.09116</ele><time>2026-04-03T23:45:12.000Z</time></trkpt>
        <trkpt lat="28.832434" lon="105.294764"><ele>409.5635</ele><time>2026-04-03T23:45:20.000Z</time></trkpt>
        <trkpt lat="28.832475" lon="105.294731"><ele>407.8205</ele><time>2026-04-03T23:45:28.000Z</time></trkpt>
        <trkpt lat="28.832516" lon="105.294705"><ele>406.97772</ele><time>2026-04-03T23:45:35.000Z</time></trkpt>
        <trkpt lat="28.832558" lon="105.294679"><ele>406.03967</ele><time>2026-04-03T23:45:42.000Z</time></trkpt>
        <trkpt lat="28.832598" lon="105.294653"><ele>405.3151</ele><time>2026-04-03T23:45:52.000Z</time></trkpt>
        <trkpt lat="28.83264" lon="105.294625"><ele>405.67734</ele><time>2026-04-03T23:46:03.000Z</time></trkpt>
        <trkpt lat="28.832668" lon="105.294567"><ele>405.96805</ele><time>2026-04-03T23:46:16.000Z</time></trkpt>
        <trkpt lat="28.832693" lon="105.294523"><ele>404.37527</ele><time>2026-04-03T23:46:28.000Z</time></trkpt>
        <trkpt lat="28.832714" lon="105.294474"><ele>403.88376</ele><time>2026-04-03T23:46:39.000Z</time></trkpt>
        <trkpt lat="28.832711" lon="105.294422"><ele>404.22522</ele><time>2026-04-03T23:46:52.000Z</time></trkpt>
        <trkpt lat="28.832706" lon="105.29437"><ele>401.84152</ele><time>2026-04-03T23:47:03.000Z</time></trkpt>
        <trkpt lat="28.832717" lon="105.294318"><ele>399.14706</ele><time>2026-04-03T23:47:15.000Z</time></trkpt>
        <trkpt lat="28.832703" lon="105.294268"><ele>398.62122</ele><time>2026-04-03T23:47:21.000Z</time></trkpt>
        <trkpt lat="28.832706" lon="105.294209"><ele>395.6416</ele><time>2026-04-03T23:47:29.000Z</time></trkpt>
        <trkpt lat="28.832729" lon="105.294157"><ele>395.3216</ele><time>2026-04-03T23:47:34.000Z</time></trkpt>
        <trkpt lat="28.832759" lon="105.294115"><ele>393.46292</ele><time>2026-04-03T23:47:40.000Z</time></trkpt>
        <trkpt lat="28.832739" lon="105.294064"><ele>391.8239</ele><time>2026-04-03T23:47:48.000Z</time></trkpt>
        <trkpt lat="28.832717" lon="105.294017"><ele>390.51144</ele><time>2026-04-03T23:47:54.000Z</time></trkpt>
        <trkpt lat="28.832683" lon="105.293964"><ele>389.1308</ele><time>2026-04-03T23:48:01.000Z</time></trkpt>
        <trkpt lat="28.832656" lon="105.293919"><ele>388.13193</ele><time>2026-04-03T23:48:06.000Z</time></trkpt>
        <trkpt lat="28.832622" lon="105.293878"><ele>387.78806</ele><time>2026-04-03T23:48:11.000Z</time></trkpt>
        <trkpt lat="28.832594" lon="105.293831"><ele>386.30005</ele><time>2026-04-03T23:48:18.000Z</time></trkpt>
        <trkpt lat="28.832569" lon="105.293787"><ele>384.55914</ele><time>2026-04-03T23:48:27.000Z</time></trkpt>
        <trkpt lat="28.832554" lon="105.293734"><ele>384.72684</ele><time>2026-04-03T23:48:32.000Z</time></trkpt>
        <trkpt lat="28.83251" lon="105.293697"><ele>383.93826</ele><time>2026-04-03T23:48:38.000Z</time></trkpt>
        <trkpt lat="28.832527" lon="105.293645"><ele>383.67078</ele><time>2026-04-03T23:48:46.000Z</time></trkpt>
        <trkpt lat="28.832537" lon="105.293584"><ele>382.3729</ele><time>2026-04-03T23:48:52.000Z</time></trkpt>
        <trkpt lat="28.832544" lon="105.293531"><ele>381.09247</ele><time>2026-04-03T23:48:57.000Z</time></trkpt>
        <trkpt lat="28.832547" lon="105.293479"><ele>379.97336</ele><time>2026-04-03T23:49:01.000Z</time></trkpt>
        <trkpt lat="28.832549" lon="105.293421"><ele>379.36853</ele><time>2026-04-03T23:49:06.000Z</time></trkpt>
        <trkpt lat="28.83257" lon="105.29337"><ele>378.43823</ele><time>2026-04-03T23:49:11.000Z</time></trkpt>
        <trkpt lat="28.83261" lon="105.293337"><ele>377.56454</ele><time>2026-04-03T23:49:16.000Z</time></trkpt>
        <trkpt lat="28.832651" lon="105.293296"><ele>376.38663</ele><time>2026-04-03T23:49:22.000Z</time></trkpt>
        <trkpt lat="28.832684" lon="105.29325"><ele>375.79953</ele><time>2026-04-03T23:49:27.000Z</time></trkpt>
        <trkpt lat="28.832728" lon="105.293217"><ele>375.7852</ele><time>2026-04-03T23:49:33.000Z</time></trkpt>
        <trkpt lat="28.832769" lon="105.293195"><ele>375.30466</ele><time>2026-04-03T23:49:38.000Z</time></trkpt>
        <trkpt lat="28.832812" lon="105.293174"><ele>373.99493</ele><time>2026-04-03T23:49:45.000Z</time></trkpt>
        <trkpt lat="28.832855" lon="105.29314"><ele>373.58972</ele><time>2026-04-03T23:49:52.000Z</time></trkpt>
        <trkpt lat="28.832891" lon="105.293109"><ele>372.5639</ele><time>2026-04-03T23:49:59.000Z</time></trkpt>
        <trkpt lat="28.832899" lon="105.293052"><ele>370.7914</ele><time>2026-04-03T23:50:07.000Z</time></trkpt>
        <trkpt lat="28.832903" lon="105.292999"><ele>369.89975</ele><time>2026-04-03T23:50:14.000Z</time></trkpt>
        <trkpt lat="28.832869" lon="105.292955"><ele>368.4474</ele><time>2026-04-03T23:50:20.000Z</time></trkpt>
        <trkpt lat="28.83284" lon="105.292912"><ele>367.38046</ele><time>2026-04-03T23:50:24.000Z</time></trkpt>
        <trkpt lat="28.832805" lon="105.29287"><ele>366.54727</ele><time>2026-04-03T23:50:29.000Z</time></trkpt>
        <trkpt lat="28.832769" lon="105.292828"><ele>366.3969</ele><time>2026-04-03T23:50:34.000Z</time></trkpt>
        <trkpt lat="28.832732" lon="105.29279"><ele>365.15723</ele><time>2026-04-03T23:50:39.000Z</time></trkpt>
        <trkpt lat="28.832695" lon="105.292758"><ele>363.54272</ele><time>2026-04-03T23:50:44.000Z</time></trkpt>
        <trkpt lat="28.832652" lon="105.292737"><ele>363.7991</ele><time>2026-04-03T23:50:49.000Z</time></trkpt>
        <trkpt lat="28.832611" lon="105.292704"><ele>364.84338</ele><time>2026-04-03T23:50:55.000Z</time></trkpt>
        <trkpt lat="28.832572" lon="105.292668"><ele>364.62384</ele><time>2026-04-03T23:50:59.000Z</time></trkpt>
        <trkpt lat="28.832541" lon="105.292627"><ele>363.89355</ele><time>2026-04-03T23:51:05.000Z</time></trkpt>
        <trkpt lat="28.832513" lon="105.292585"><ele>363.20847</ele><time>2026-04-03T23:51:10.000Z</time></trkpt>
        <trkpt lat="28.832481" lon="105.292545"><ele>362.4367</ele><time>2026-04-03T23:51:15.000Z</time></trkpt>
        <trkpt lat="28.832451" lon="105.292506"><ele>361.85986</ele><time>2026-04-03T23:51:19.000Z</time></trkpt>
        <trkpt lat="28.832426" lon="105.292456"><ele>360.86224</ele><time>2026-04-03T23:51:24.000Z</time></trkpt>
        <trkpt lat="28.832405" lon="105.292401"><ele>358.64145</ele><time>2026-04-03T23:51:28.000Z</time></trkpt>
        <trkpt lat="28.832403" lon="105.292338"><ele>356.69324</ele><time>2026-04-03T23:51:33.000Z</time></trkpt>
        <trkpt lat="28.832436" lon="105.292292"><ele>355.3639</ele><time>2026-04-03T23:51:37.000Z</time></trkpt>
        <trkpt lat="28.832469" lon="105.292253"><ele>354.66644</ele><time>2026-04-03T23:51:41.000Z</time></trkpt>
        <trkpt lat="28.832515" lon="105.292236"><ele>353.37695</ele><time>2026-04-03T23:51:45.000Z</time></trkpt>
        <trkpt lat="28.832568" lon="105.292238"><ele>352.4814</ele><time>2026-04-03T23:51:49.000Z</time></trkpt>
        <trkpt lat="28.832616" lon="105.292248"><ele>351.42487</ele><time>2026-04-03T23:51:54.000Z</time></trkpt>
        <trkpt lat="28.832668" lon="105.292263"><ele>351.86896</ele><time>2026-04-03T23:51:58.000Z</time></trkpt>
        <trkpt lat="28.832715" lon="105.292267"><ele>351.69272</ele><time>2026-04-03T23:52:02.000Z</time></trkpt>
        <trkpt lat="28.83277" lon="105.292271"><ele>350.20615</ele><time>2026-04-03T23:52:07.000Z</time></trkpt>
        <trkpt lat="28.832818" lon="105.292255"><ele>349.7549</ele><time>2026-04-03T23:52:12.000Z</time></trkpt>
        <trkpt lat="28.832847" lon="105.292204"><ele>349.55496</ele><time>2026-04-03T23:52:17.000Z</time></trkpt>
        <trkpt lat="28.832853" lon="105.292143"><ele>350.703</ele><time>2026-04-03T23:52:22.000Z</time></trkpt>
        <trkpt lat="28.832842" lon="105.292089"><ele>348.63412</ele><time>2026-04-03T23:52:31.000Z</time></trkpt>
        <trkpt lat="28.832848" lon="105.292037"><ele>347.29733</ele><time>2026-04-03T23:52:37.000Z</time></trkpt>
        <trkpt lat="28.832858" lon="105.291981"><ele>346.47943</ele><time>2026-04-03T23:53:06.000Z</time></trkpt>
        <trkpt lat="28.832848" lon="105.291931"><ele>346.27454</ele><time>2026-04-03T23:53:10.000Z</time></trkpt>
        <trkpt lat="28.832811" lon="105.291883"><ele>345.1278</ele><time>2026-04-03T23:53:18.000Z</time></trkpt>
        <trkpt lat="28.832774" lon="105.291852"><ele>344.4104</ele><time>2026-04-03T23:53:22.000Z</time></trkpt>
        <trkpt lat="28.832732" lon="105.291821"><ele>343.58032</ele><time>2026-04-03T23:53:26.000Z</time></trkpt>
        <trkpt lat="28.832687" lon="105.291786"><ele>342.70782</ele><time>2026-04-03T23:53:30.000Z</time></trkpt>
        <trkpt lat="28.832642" lon="105.291757"><ele>341.76273</ele><time>2026-04-03T23:53:34.000Z</time></trkpt>
        <trkpt lat="28.832602" lon="105.291713"><ele>340.0504</ele><time>2026-04-03T23:53:38.000Z</time></trkpt>
        <trkpt lat="28.83256" lon="105.291674"><ele>339.65054</ele><time>2026-04-03T23:53:42.000Z</time></trkpt>
        <trkpt lat="28.832521" lon="105.291635"><ele>338.5592</ele><time>2026-04-03T23:53:46.000Z</time></trkpt>
        <trkpt lat="28.832482" lon="105.291599"><ele>338.0042</ele><time>2026-04-03T23:53:50.000Z</time></trkpt>
        <trkpt lat="28.832455" lon="105.291555"><ele>336.14993</ele><time>2026-04-03T23:53:54.000Z</time></trkpt>
        <trkpt lat="28.832429" lon="105.291501"><ele>335.5938</ele><time>2026-04-03T23:53:59.000Z</time></trkpt>
        <trkpt lat="28.832413" lon="105.291442"><ele>334.6348</ele><time>2026-04-03T23:54:03.000Z</time></trkpt>
        <trkpt lat="28.832406" lon="105.291386"><ele>334.12698</ele><time>2026-04-03T23:54:07.000Z</time></trkpt>
        <trkpt lat="28.832398" lon="105.291332"><ele>333.09875</ele><time>2026-04-03T23:54:11.000Z</time></trkpt>
        <trkpt lat="28.832399" lon="105.291277"><ele>332.6095</ele><time>2026-04-03T23:54:15.000Z</time></trkpt>
        <trkpt lat="28.832389" lon="105.291217"><ele>331.9147</ele><time>2026-04-03T23:54:20.000Z</time></trkpt>
        <trkpt lat="28.832384" lon="105.291158"><ele>331.49008</ele><time>2026-04-03T23:54:25.000Z</time></trkpt>
        <trkpt lat="28.832395" lon="105.291095"><ele>331.76538</ele><time>2026-04-03T23:54:30.000Z</time></trkpt>
        <trkpt lat="28.832411" lon="105.291045"><ele>331.51572</ele><time>2026-04-03T23:54:34.000Z</time></trkpt>
        <trkpt lat="28.832443" lon="105.291004"><ele>330.20523</ele><time>2026-04-03T23:54:38.000Z</time></trkpt>
        <trkpt lat="28.83248" lon="105.290974"><ele>329.95615</ele><time>2026-04-03T23:54:42.000Z</time></trkpt>
        <trkpt lat="28.832535" lon="105.290953"><ele>329.87277</ele><time>2026-04-03T23:54:47.000Z</time></trkpt>
        <trkpt lat="28.832578" lon="105.290935"><ele>329.61493</ele><time>2026-04-03T23:54:51.000Z</time></trkpt>
        <trkpt lat="28.832625" lon="105.290906"><ele>330.0944</ele><time>2026-04-03T23:54:56.000Z</time></trkpt>
        <trkpt lat="28.832675" lon="105.290919"><ele>329.6572</ele><time>2026-04-03T23:55:00.000Z</time></trkpt>
        <trkpt lat="28.832728" lon="105.290902"><ele>329.487</ele><time>2026-04-03T23:55:04.000Z</time></trkpt>
        <trkpt lat="28.832772" lon="105.290878"><ele>329.39914</ele><time>2026-04-03T23:55:08.000Z</time></trkpt>
        <trkpt lat="28.832816" lon="105.290862"><ele>328.94217</ele><time>2026-04-03T23:55:12.000Z</time></trkpt>
        <trkpt lat="28.832861" lon="105.290848"><ele>329.27304</ele><time>2026-04-03T23:55:16.000Z</time></trkpt>
        <trkpt lat="28.832916" lon="105.29084"><ele>328.55716</ele><time>2026-04-03T23:55:20.000Z</time></trkpt>
        <trkpt lat="28.832962" lon="105.290807"><ele>326.13373</ele><time>2026-04-03T23:55:26.000Z</time></trkpt>
        <trkpt lat="28.832992" lon="105.290764"><ele>325.38458</ele><time>2026-04-03T23:55:31.000Z</time></trkpt>
        <trkpt lat="28.832997" lon="105.290705"><ele>323.67227</ele><time>2026-04-03T23:55:38.000Z</time></trkpt>
        <trkpt lat="28.83299" lon="105.290655"><ele>323.41766</ele><time>2026-04-03T23:55:43.000Z</time></trkpt>
        <trkpt lat="28.832982" lon="105.290602"><ele>322.4976</ele><time>2026-04-03T23:55:48.000Z</time></trkpt>
        <trkpt lat="28.832991" lon="105.290544"><ele>321.20944</ele><time>2026-04-03T23:55:53.000Z</time></trkpt>
        <trkpt lat="28.832972" lon="105.290483"><ele>320.45312</ele><time>2026-04-03T23:56:00.000Z</time></trkpt>
        <trkpt lat="28.832957" lon="105.290431"><ele>320.26807</ele><time>2026-04-03T23:56:05.000Z</time></trkpt>
        <trkpt lat="28.83294" lon="105.290382"><ele>319.46216</ele><time>2026-04-03T23:56:09.000Z</time></trkpt>
        <trkpt lat="28.832927" lon="105.290321"><ele>318.84375</ele><time>2026-04-03T23:56:14.000Z</time></trkpt>
        <trkpt lat="28.83292" lon="105.290268"><ele>318.32007</ele><time>2026-04-03T23:56:18.000Z</time></trkpt>
        <trkpt lat="28.832903" lon="105.29021"><ele>317.68292</ele><time>2026-04-03T23:56:23.000Z</time></trkpt>
        <trkpt lat="28.832899" lon="105.290155"><ele>317.8659</ele><time>2026-04-03T23:56:27.000Z</time></trkpt>
        <trkpt lat="28.832937" lon="105.290124"><ele>317.32812</ele><time>2026-04-03T23:56:35.000Z</time></trkpt>
      </trkseg>
  </trk>
</gpx>